<?xml version="1.0" encoding="UTF-8" standalone="yes"?>
<?xml-stylesheet type="text/xsl" href="details.xsl"?>
<gpx
 version="1.1"
 creator="My Tracks running on HTC Desire"
 xmlns:xsi="http://www.w3.org/2001/XMLSchema-instance"
 xmlns="http://www.topografix.com/GPX/1/1"
 xmlns:topografix="http://www.topografix.com/GPX/Private/TopoGrafix/0/1" xsi:schemaLocation="http://www.topografix.com/GPX/1/1 http://www.topografix.com/GPX/1/1/gpx.xsd http://www.topografix.com/GPX/Private/TopoGrafix/0/1 http://www.topografix.com/GPX/Private/TopoGrafix/0/1/topografix.xsd">
<trk>
<name><![CDATA[2011-04-17 13:48 Abendrunde Variante]]></name>
<desc><![CDATA[]]></desc>
<number>8</number>
<extensions><topografix:color>c0c0c0</topografix:color></extensions>
<trkseg>
<trkpt lat="50.36913" lon="12.47003">
<ele>617</ele>
<time>2011-04-17T11:48:20Z</time>
</trkpt>
<trkpt lat="50.36908" lon="12.47005">
<ele>617</ele>
<time>2011-04-17T11:53:05Z</time>
</trkpt>
<trkpt lat="50.36908" lon="12.47005">
<ele>617</ele>
<time>2011-04-17T11:53:05Z</time>
</trkpt>
<trkpt lat="50.36908" lon="12.47005">
<ele>617</ele>
<time>2011-04-17T11:53:06Z</time>
</trkpt>
<trkpt lat="50.36903" lon="12.47002">
<ele>617</ele>
<time>2011-04-17T11:53:10Z</time>
</trkpt>
<trkpt lat="50.36899" lon="12.46998">
<ele>616</ele>
<time>2011-04-17T11:53:14Z</time>
</trkpt>
<trkpt lat="50.36898" lon="12.46991">
<ele>616</ele>
<time>2011-04-17T11:53:19Z</time>
</trkpt>
<trkpt lat="50.36903" lon="12.46987">
<ele>613</ele>
<time>2011-04-17T11:53:26Z</time>
</trkpt>
<trkpt lat="50.36907" lon="12.46985">
<ele>611</ele>
<time>2011-04-17T11:53:33Z</time>
</trkpt>
<trkpt lat="50.36912" lon="12.46983">
<ele>610</ele>
<time>2011-04-17T11:53:41Z</time>
</trkpt>
<trkpt lat="50.36919" lon="12.46985">
<ele>608</ele>
<time>2011-04-17T11:53:45Z</time>
</trkpt>
<trkpt lat="50.36924" lon="12.46984">
<ele>610</ele>
<time>2011-04-17T11:53:49Z</time>
</trkpt>
<trkpt lat="50.36928" lon="12.46986">
<ele>610</ele>
<time>2011-04-17T11:54:02Z</time>
</trkpt>
<trkpt lat="50.36933" lon="12.46986">
<ele>609</ele>
<time>2011-04-17T11:54:04Z</time>
</trkpt>
<trkpt lat="50.36939" lon="12.4699">
<ele>609</ele>
<time>2011-04-17T11:54:07Z</time>
</trkpt>
<trkpt lat="50.36944" lon="12.46993">
<ele>609</ele>
<time>2011-04-17T11:54:09Z</time>
</trkpt>
<trkpt lat="50.36949" lon="12.46995">
<ele>609</ele>
<time>2011-04-17T11:54:10Z</time>
</trkpt>
<trkpt lat="50.36955" lon="12.46996">
<ele>609</ele>
<time>2011-04-17T11:54:12Z</time>
</trkpt>
<trkpt lat="50.36962" lon="12.46999">
<ele>609</ele>
<time>2011-04-17T11:54:14Z</time>
</trkpt>
<trkpt lat="50.36968" lon="12.47002">
<ele>609</ele>
<time>2011-04-17T11:54:16Z</time>
</trkpt>
<trkpt lat="50.36975" lon="12.47005">
<ele>609</ele>
<time>2011-04-17T11:54:18Z</time>
</trkpt>
<trkpt lat="50.3698" lon="12.47007">
<ele>609</ele>
<time>2011-04-17T11:54:20Z</time>
</trkpt>
<trkpt lat="50.36987" lon="12.47009">
<ele>609</ele>
<time>2011-04-17T11:54:22Z</time>
</trkpt>
<trkpt lat="50.36994" lon="12.47012">
<ele>607</ele>
<time>2011-04-17T11:54:24Z</time>
</trkpt>
<trkpt lat="50.37" lon="12.47014">
<ele>606</ele>
<time>2011-04-17T11:54:26Z</time>
</trkpt>
<trkpt lat="50.37007" lon="12.47015">
<ele>606</ele>
<time>2011-04-17T11:54:28Z</time>
</trkpt>
<trkpt lat="50.37014" lon="12.47017">
<ele>607</ele>
<time>2011-04-17T11:54:30Z</time>
</trkpt>
<trkpt lat="50.3702" lon="12.4702">
<ele>607</ele>
<time>2011-04-17T11:54:32Z</time>
</trkpt>
<trkpt lat="50.37026" lon="12.4702">
<ele>607</ele>
<time>2011-04-17T11:54:34Z</time>
</trkpt>
<trkpt lat="50.37031" lon="12.4702">
<ele>607</ele>
<time>2011-04-17T11:54:36Z</time>
</trkpt>
<trkpt lat="50.37037" lon="12.47021">
<ele>608</ele>
<time>2011-04-17T11:54:38Z</time>
</trkpt>
<trkpt lat="50.37044" lon="12.4702">
<ele>608</ele>
<time>2011-04-17T11:54:40Z</time>
</trkpt>
<trkpt lat="50.37051" lon="12.47017">
<ele>610</ele>
<time>2011-04-17T11:54:42Z</time>
</trkpt>
<trkpt lat="50.37056" lon="12.47014">
<ele>611</ele>
<time>2011-04-17T11:54:44Z</time>
</trkpt>
<trkpt lat="50.37062" lon="12.47014">
<ele>612</ele>
<time>2011-04-17T11:54:46Z</time>
</trkpt>
<trkpt lat="50.37069" lon="12.47012">
<ele>612</ele>
<time>2011-04-17T11:54:48Z</time>
</trkpt>
<trkpt lat="50.37074" lon="12.4701">
<ele>612</ele>
<time>2011-04-17T11:54:50Z</time>
</trkpt>
<trkpt lat="50.3708" lon="12.47009">
<ele>611</ele>
<time>2011-04-17T11:54:52Z</time>
</trkpt>
<trkpt lat="50.37085" lon="12.47011">
<ele>612</ele>
<time>2011-04-17T11:54:53Z</time>
</trkpt>
<trkpt lat="50.3709" lon="12.47015">
<ele>611</ele>
<time>2011-04-17T11:54:54Z</time>
</trkpt>
<trkpt lat="50.37096" lon="12.47015">
<ele>611</ele>
<time>2011-04-17T11:54:56Z</time>
</trkpt>
<trkpt lat="50.37102" lon="12.47013">
<ele>611</ele>
<time>2011-04-17T11:54:58Z</time>
</trkpt>
<trkpt lat="50.37108" lon="12.4701">
<ele>611</ele>
<time>2011-04-17T11:55:00Z</time>
</trkpt>
<trkpt lat="50.37112" lon="12.47009">
<ele>612</ele>
<time>2011-04-17T11:55:02Z</time>
</trkpt>
<trkpt lat="50.37117" lon="12.47004">
<ele>613</ele>
<time>2011-04-17T11:55:04Z</time>
</trkpt>
<trkpt lat="50.37122" lon="12.46998">
<ele>612</ele>
<time>2011-04-17T11:55:06Z</time>
</trkpt>
<trkpt lat="50.37126" lon="12.46991">
<ele>612</ele>
<time>2011-04-17T11:55:08Z</time>
</trkpt>
<trkpt lat="50.3713" lon="12.46984">
<ele>611</ele>
<time>2011-04-17T11:55:10Z</time>
</trkpt>
<trkpt lat="50.37138" lon="12.46981">
<ele>611</ele>
<time>2011-04-17T11:55:12Z</time>
</trkpt>
<trkpt lat="50.37143" lon="12.46976">
<ele>611</ele>
<time>2011-04-17T11:55:14Z</time>
</trkpt>
<trkpt lat="50.37149" lon="12.46974">
<ele>611</ele>
<time>2011-04-17T11:55:16Z</time>
</trkpt>
<trkpt lat="50.37154" lon="12.46971">
<ele>611</ele>
<time>2011-04-17T11:55:18Z</time>
</trkpt>
<trkpt lat="50.3716" lon="12.46971">
<ele>611</ele>
<time>2011-04-17T11:55:20Z</time>
</trkpt>
<trkpt lat="50.37166" lon="12.4697">
<ele>611</ele>
<time>2011-04-17T11:55:22Z</time>
</trkpt>
<trkpt lat="50.37171" lon="12.46969">
<ele>611</ele>
<time>2011-04-17T11:55:24Z</time>
</trkpt>
<trkpt lat="50.37178" lon="12.46968">
<ele>611</ele>
<time>2011-04-17T11:55:26Z</time>
</trkpt>
<trkpt lat="50.37184" lon="12.46965">
<ele>610</ele>
<time>2011-04-17T11:55:28Z</time>
</trkpt>
<trkpt lat="50.37189" lon="12.46963">
<ele>611</ele>
<time>2011-04-17T11:55:30Z</time>
</trkpt>
<trkpt lat="50.37195" lon="12.46961">
<ele>610</ele>
<time>2011-04-17T11:55:32Z</time>
</trkpt>
<trkpt lat="50.37201" lon="12.46959">
<ele>611</ele>
<time>2011-04-17T11:55:34Z</time>
</trkpt>
<trkpt lat="50.37206" lon="12.46957">
<ele>611</ele>
<time>2011-04-17T11:55:36Z</time>
</trkpt>
<trkpt lat="50.37212" lon="12.46956">
<ele>612</ele>
<time>2011-04-17T11:55:38Z</time>
</trkpt>
<trkpt lat="50.37217" lon="12.46954">
<ele>611</ele>
<time>2011-04-17T11:55:40Z</time>
</trkpt>
<trkpt lat="50.37223" lon="12.46952">
<ele>611</ele>
<time>2011-04-17T11:55:42Z</time>
</trkpt>
<trkpt lat="50.37229" lon="12.4695">
<ele>612</ele>
<time>2011-04-17T11:55:44Z</time>
</trkpt>
<trkpt lat="50.37235" lon="12.46948">
<ele>612</ele>
<time>2011-04-17T11:55:46Z</time>
</trkpt>
<trkpt lat="50.3724" lon="12.46945">
<ele>612</ele>
<time>2011-04-17T11:55:48Z</time>
</trkpt>
<trkpt lat="50.37245" lon="12.46942">
<ele>613</ele>
<time>2011-04-17T11:55:50Z</time>
</trkpt>
<trkpt lat="50.3725" lon="12.4694">
<ele>613</ele>
<time>2011-04-17T11:55:52Z</time>
</trkpt>
<trkpt lat="50.37256" lon="12.4694">
<ele>614</ele>
<time>2011-04-17T11:55:54Z</time>
</trkpt>
<trkpt lat="50.37261" lon="12.46939">
<ele>615</ele>
<time>2011-04-17T11:55:56Z</time>
</trkpt>
<trkpt lat="50.37268" lon="12.46938">
<ele>615</ele>
<time>2011-04-17T11:55:58Z</time>
</trkpt>
<trkpt lat="50.37273" lon="12.46935">
<ele>615</ele>
<time>2011-04-17T11:56:00Z</time>
</trkpt>
<trkpt lat="50.37278" lon="12.46933">
<ele>615</ele>
<time>2011-04-17T11:56:02Z</time>
</trkpt>
<trkpt lat="50.37282" lon="12.46931">
<ele>611</ele>
<time>2011-04-17T11:56:04Z</time>
</trkpt>
<trkpt lat="50.37289" lon="12.4693">
<ele>610</ele>
<time>2011-04-17T11:56:06Z</time>
</trkpt>
<trkpt lat="50.37295" lon="12.46926">
<ele>610</ele>
<time>2011-04-17T11:56:08Z</time>
</trkpt>
<trkpt lat="50.37301" lon="12.46923">
<ele>611</ele>
<time>2011-04-17T11:56:10Z</time>
</trkpt>
<trkpt lat="50.37305" lon="12.4692">
<ele>612</ele>
<time>2011-04-17T11:56:12Z</time>
</trkpt>
<trkpt lat="50.37311" lon="12.46918">
<ele>612</ele>
<time>2011-04-17T11:56:14Z</time>
</trkpt>
<trkpt lat="50.37316" lon="12.46916">
<ele>613</ele>
<time>2011-04-17T11:56:16Z</time>
</trkpt>
<trkpt lat="50.37322" lon="12.46913">
<ele>614</ele>
<time>2011-04-17T11:56:18Z</time>
</trkpt>
<trkpt lat="50.37326" lon="12.46911">
<ele>614</ele>
<time>2011-04-17T11:56:20Z</time>
</trkpt>
<trkpt lat="50.37331" lon="12.46909">
<ele>614</ele>
<time>2011-04-17T11:56:22Z</time>
</trkpt>
<trkpt lat="50.37338" lon="12.46909">
<ele>613</ele>
<time>2011-04-17T11:56:24Z</time>
</trkpt>
<trkpt lat="50.37344" lon="12.46908">
<ele>613</ele>
<time>2011-04-17T11:56:26Z</time>
</trkpt>
<trkpt lat="50.3735" lon="12.46906">
<ele>613</ele>
<time>2011-04-17T11:56:28Z</time>
</trkpt>
<trkpt lat="50.37356" lon="12.46904">
<ele>612</ele>
<time>2011-04-17T11:56:30Z</time>
</trkpt>
<trkpt lat="50.3736" lon="12.46902">
<ele>612</ele>
<time>2011-04-17T11:56:31Z</time>
</trkpt>
<trkpt lat="50.37366" lon="12.469">
<ele>612</ele>
<time>2011-04-17T11:56:33Z</time>
</trkpt>
<trkpt lat="50.37372" lon="12.46898">
<ele>611</ele>
<time>2011-04-17T11:56:35Z</time>
</trkpt>
<trkpt lat="50.37378" lon="12.46897">
<ele>612</ele>
<time>2011-04-17T11:56:37Z</time>
</trkpt>
<trkpt lat="50.37384" lon="12.46894">
<ele>611</ele>
<time>2011-04-17T11:56:39Z</time>
</trkpt>
<trkpt lat="50.37391" lon="12.46891">
<ele>611</ele>
<time>2011-04-17T11:56:41Z</time>
</trkpt>
<trkpt lat="50.37396" lon="12.46889">
<ele>612</ele>
<time>2011-04-17T11:56:43Z</time>
</trkpt>
<trkpt lat="50.37402" lon="12.46886">
<ele>612</ele>
<time>2011-04-17T11:56:45Z</time>
</trkpt>
<trkpt lat="50.37408" lon="12.46884">
<ele>611</ele>
<time>2011-04-17T11:56:47Z</time>
</trkpt>
<trkpt lat="50.37415" lon="12.4688">
<ele>609</ele>
<time>2011-04-17T11:56:49Z</time>
</trkpt>
<trkpt lat="50.37421" lon="12.46877">
<ele>609</ele>
<time>2011-04-17T11:56:51Z</time>
</trkpt>
<trkpt lat="50.37427" lon="12.46874">
<ele>608</ele>
<time>2011-04-17T11:56:53Z</time>
</trkpt>
<trkpt lat="50.37433" lon="12.4687">
<ele>609</ele>
<time>2011-04-17T11:56:55Z</time>
</trkpt>
<trkpt lat="50.37437" lon="12.46861">
<ele>608</ele>
<time>2011-04-17T11:56:57Z</time>
</trkpt>
<trkpt lat="50.37441" lon="12.46856">
<ele>608</ele>
<time>2011-04-17T11:56:59Z</time>
</trkpt>
<trkpt lat="50.37444" lon="12.46851">
<ele>608</ele>
<time>2011-04-17T11:57:01Z</time>
</trkpt>
<trkpt lat="50.37452" lon="12.46849">
<ele>605</ele>
<time>2011-04-17T11:57:03Z</time>
</trkpt>
<trkpt lat="50.37457" lon="12.46846">
<ele>604</ele>
<time>2011-04-17T11:57:05Z</time>
</trkpt>
<trkpt lat="50.37462" lon="12.4684">
<ele>604</ele>
<time>2011-04-17T11:57:07Z</time>
</trkpt>
<trkpt lat="50.37465" lon="12.46833">
<ele>604</ele>
<time>2011-04-17T11:57:09Z</time>
</trkpt>
<trkpt lat="50.37468" lon="12.46827">
<ele>605</ele>
<time>2011-04-17T11:57:11Z</time>
</trkpt>
<trkpt lat="50.37472" lon="12.4682">
<ele>606</ele>
<time>2011-04-17T11:57:14Z</time>
</trkpt>
<trkpt lat="50.37476" lon="12.46816">
<ele>607</ele>
<time>2011-04-17T11:57:16Z</time>
</trkpt>
<trkpt lat="50.37482" lon="12.46808">
<ele>607</ele>
<time>2011-04-17T11:57:18Z</time>
</trkpt>
<trkpt lat="50.37487" lon="12.46801">
<ele>608</ele>
<time>2011-04-17T11:57:20Z</time>
</trkpt>
<trkpt lat="50.37492" lon="12.46794">
<ele>608</ele>
<time>2011-04-17T11:57:22Z</time>
</trkpt>
<trkpt lat="50.37496" lon="12.46788">
<ele>608</ele>
<time>2011-04-17T11:57:24Z</time>
</trkpt>
<trkpt lat="50.37501" lon="12.46783">
<ele>609</ele>
<time>2011-04-17T11:57:26Z</time>
</trkpt>
<trkpt lat="50.37505" lon="12.46778">
<ele>609</ele>
<time>2011-04-17T11:57:28Z</time>
</trkpt>
<trkpt lat="50.3751" lon="12.46773">
<ele>608</ele>
<time>2011-04-17T11:57:30Z</time>
</trkpt>
<trkpt lat="50.37514" lon="12.46767">
<ele>609</ele>
<time>2011-04-17T11:57:32Z</time>
</trkpt>
<trkpt lat="50.37518" lon="12.46759">
<ele>609</ele>
<time>2011-04-17T11:57:34Z</time>
</trkpt>
<trkpt lat="50.37522" lon="12.46752">
<ele>607</ele>
<time>2011-04-17T11:57:37Z</time>
</trkpt>
<trkpt lat="50.37526" lon="12.46748">
<ele>607</ele>
<time>2011-04-17T11:57:39Z</time>
</trkpt>
<trkpt lat="50.3753" lon="12.4674">
<ele>607</ele>
<time>2011-04-17T11:57:41Z</time>
</trkpt>
<trkpt lat="50.37535" lon="12.46735">
<ele>607</ele>
<time>2011-04-17T11:57:43Z</time>
</trkpt>
<trkpt lat="50.37538" lon="12.4673">
<ele>608</ele>
<time>2011-04-17T11:57:45Z</time>
</trkpt>
<trkpt lat="50.37542" lon="12.46723">
<ele>608</ele>
<time>2011-04-17T11:57:47Z</time>
</trkpt>
<trkpt lat="50.37547" lon="12.46717">
<ele>608</ele>
<time>2011-04-17T11:57:49Z</time>
</trkpt>
<trkpt lat="50.37552" lon="12.46712">
<ele>609</ele>
<time>2011-04-17T11:57:51Z</time>
</trkpt>
<trkpt lat="50.37555" lon="12.46706">
<ele>607</ele>
<time>2011-04-17T11:57:53Z</time>
</trkpt>
<trkpt lat="50.3756" lon="12.46701">
<ele>608</ele>
<time>2011-04-17T11:57:55Z</time>
</trkpt>
<trkpt lat="50.37564" lon="12.46695">
<ele>607</ele>
<time>2011-04-17T11:57:57Z</time>
</trkpt>
<trkpt lat="50.37568" lon="12.4669">
<ele>607</ele>
<time>2011-04-17T11:57:59Z</time>
</trkpt>
<trkpt lat="50.37572" lon="12.46685">
<ele>608</ele>
<time>2011-04-17T11:58:01Z</time>
</trkpt>
<trkpt lat="50.37576" lon="12.46679">
<ele>609</ele>
<time>2011-04-17T11:58:03Z</time>
</trkpt>
<trkpt lat="50.37581" lon="12.46676">
<ele>609</ele>
<time>2011-04-17T11:58:05Z</time>
</trkpt>
<trkpt lat="50.37585" lon="12.46671">
<ele>609</ele>
<time>2011-04-17T11:58:07Z</time>
</trkpt>
<trkpt lat="50.37589" lon="12.46664">
<ele>610</ele>
<time>2011-04-17T11:58:09Z</time>
</trkpt>
<trkpt lat="50.37594" lon="12.46657">
<ele>610</ele>
<time>2011-04-17T11:58:11Z</time>
</trkpt>
<trkpt lat="50.37598" lon="12.46648">
<ele>611</ele>
<time>2011-04-17T11:58:14Z</time>
</trkpt>
<trkpt lat="50.37603" lon="12.46644">
<ele>612</ele>
<time>2011-04-17T11:58:16Z</time>
</trkpt>
<trkpt lat="50.37606" lon="12.46636">
<ele>613</ele>
<time>2011-04-17T11:58:18Z</time>
</trkpt>
<trkpt lat="50.37611" lon="12.46631">
<ele>613</ele>
<time>2011-04-17T11:58:20Z</time>
</trkpt>
<trkpt lat="50.37616" lon="12.46628">
<ele>614</ele>
<time>2011-04-17T11:58:22Z</time>
</trkpt>
<trkpt lat="50.3762" lon="12.46624">
<ele>614</ele>
<time>2011-04-17T11:58:24Z</time>
</trkpt>
<trkpt lat="50.37625" lon="12.46618">
<ele>615</ele>
<time>2011-04-17T11:58:26Z</time>
</trkpt>
<trkpt lat="50.37629" lon="12.46612">
<ele>614</ele>
<time>2011-04-17T11:58:28Z</time>
</trkpt>
<trkpt lat="50.37636" lon="12.46609">
<ele>614</ele>
<time>2011-04-17T11:58:31Z</time>
</trkpt>
<trkpt lat="50.37641" lon="12.46608">
<ele>613</ele>
<time>2011-04-17T11:58:33Z</time>
</trkpt>
<trkpt lat="50.37647" lon="12.46606">
<ele>614</ele>
<time>2011-04-17T11:58:35Z</time>
</trkpt>
<trkpt lat="50.37652" lon="12.46605">
<ele>613</ele>
<time>2011-04-17T11:58:37Z</time>
</trkpt>
<trkpt lat="50.37657" lon="12.46598">
<ele>613</ele>
<time>2011-04-17T11:58:39Z</time>
</trkpt>
<trkpt lat="50.37662" lon="12.46595">
<ele>612</ele>
<time>2011-04-17T11:58:41Z</time>
</trkpt>
<trkpt lat="50.37668" lon="12.46592">
<ele>612</ele>
<time>2011-04-17T11:58:43Z</time>
</trkpt>
<trkpt lat="50.37672" lon="12.46588">
<ele>615</ele>
<time>2011-04-17T11:58:45Z</time>
</trkpt>
<trkpt lat="50.37674" lon="12.46575">
<ele>616</ele>
<time>2011-04-17T11:58:47Z</time>
</trkpt>
<trkpt lat="50.37676" lon="12.46564">
<ele>620</ele>
<time>2011-04-17T11:58:49Z</time>
</trkpt>
<trkpt lat="50.37679" lon="12.46559">
<ele>621</ele>
<time>2011-04-17T11:58:51Z</time>
</trkpt>
<trkpt lat="50.37683" lon="12.46553">
<ele>620</ele>
<time>2011-04-17T11:58:53Z</time>
</trkpt>
<trkpt lat="50.37688" lon="12.46548">
<ele>621</ele>
<time>2011-04-17T11:58:55Z</time>
</trkpt>
<trkpt lat="50.37695" lon="12.46546">
<ele>621</ele>
<time>2011-04-17T11:58:57Z</time>
</trkpt>
<trkpt lat="50.377" lon="12.46544">
<ele>621</ele>
<time>2011-04-17T11:58:59Z</time>
</trkpt>
<trkpt lat="50.37706" lon="12.46542">
<ele>621</ele>
<time>2011-04-17T11:59:01Z</time>
</trkpt>
<trkpt lat="50.37711" lon="12.46537">
<ele>619</ele>
<time>2011-04-17T11:59:03Z</time>
</trkpt>
<trkpt lat="50.37717" lon="12.46536">
<ele>618</ele>
<time>2011-04-17T11:59:05Z</time>
</trkpt>
<trkpt lat="50.37722" lon="12.46535">
<ele>619</ele>
<time>2011-04-17T11:59:07Z</time>
</trkpt>
<trkpt lat="50.37726" lon="12.46532">
<ele>619</ele>
<time>2011-04-17T11:59:09Z</time>
</trkpt>
<trkpt lat="50.37731" lon="12.46531">
<ele>619</ele>
<time>2011-04-17T11:59:11Z</time>
</trkpt>
<trkpt lat="50.37735" lon="12.46526">
<ele>619</ele>
<time>2011-04-17T11:59:13Z</time>
</trkpt>
<trkpt lat="50.37741" lon="12.46523">
<ele>619</ele>
<time>2011-04-17T11:59:15Z</time>
</trkpt>
<trkpt lat="50.37747" lon="12.46521">
<ele>619</ele>
<time>2011-04-17T11:59:17Z</time>
</trkpt>
<trkpt lat="50.37752" lon="12.46517">
<ele>619</ele>
<time>2011-04-17T11:59:19Z</time>
</trkpt>
<trkpt lat="50.37758" lon="12.4651">
<ele>619</ele>
<time>2011-04-17T11:59:21Z</time>
</trkpt>
<trkpt lat="50.37763" lon="12.46506">
<ele>619</ele>
<time>2011-04-17T11:59:24Z</time>
</trkpt>
<trkpt lat="50.37766" lon="12.46491">
<ele>622</ele>
<time>2011-04-17T11:59:26Z</time>
</trkpt>
<trkpt lat="50.3777" lon="12.46488">
<ele>623</ele>
<time>2011-04-17T11:59:28Z</time>
</trkpt>
<trkpt lat="50.37774" lon="12.46483">
<ele>623</ele>
<time>2011-04-17T11:59:30Z</time>
</trkpt>
<trkpt lat="50.37778" lon="12.46479">
<ele>623</ele>
<time>2011-04-17T11:59:32Z</time>
</trkpt>
<trkpt lat="50.37779" lon="12.46466">
<ele>624</ele>
<time>2011-04-17T11:59:33Z</time>
</trkpt>
<trkpt lat="50.37782" lon="12.46462">
<ele>625</ele>
<time>2011-04-17T11:59:35Z</time>
</trkpt>
<trkpt lat="50.37787" lon="12.46455">
<ele>624</ele>
<time>2011-04-17T11:59:37Z</time>
</trkpt>
<trkpt lat="50.37793" lon="12.46451">
<ele>624</ele>
<time>2011-04-17T11:59:40Z</time>
</trkpt>
<trkpt lat="50.37796" lon="12.46442">
<ele>625</ele>
<time>2011-04-17T11:59:42Z</time>
</trkpt>
<trkpt lat="50.378" lon="12.46436">
<ele>625</ele>
<time>2011-04-17T11:59:44Z</time>
</trkpt>
<trkpt lat="50.37804" lon="12.46432">
<ele>624</ele>
<time>2011-04-17T11:59:46Z</time>
</trkpt>
<trkpt lat="50.37808" lon="12.46426">
<ele>625</ele>
<time>2011-04-17T11:59:48Z</time>
</trkpt>
<trkpt lat="50.37812" lon="12.46422">
<ele>625</ele>
<time>2011-04-17T11:59:50Z</time>
</trkpt>
<trkpt lat="50.37816" lon="12.46417">
<ele>625</ele>
<time>2011-04-17T11:59:52Z</time>
</trkpt>
<trkpt lat="50.37819" lon="12.46406">
<ele>626</ele>
<time>2011-04-17T11:59:54Z</time>
</trkpt>
<trkpt lat="50.37823" lon="12.46397">
<ele>627</ele>
<time>2011-04-17T11:59:56Z</time>
</trkpt>
<trkpt lat="50.37826" lon="12.4639">
<ele>630</ele>
<time>2011-04-17T11:59:58Z</time>
</trkpt>
<trkpt lat="50.37828" lon="12.46383">
<ele>630</ele>
<time>2011-04-17T12:00:00Z</time>
</trkpt>
<trkpt lat="50.37833" lon="12.46377">
<ele>632</ele>
<time>2011-04-17T12:00:02Z</time>
</trkpt>
<trkpt lat="50.37839" lon="12.4637">
<ele>633</ele>
<time>2011-04-17T12:00:05Z</time>
</trkpt>
<trkpt lat="50.37842" lon="12.46363">
<ele>634</ele>
<time>2011-04-17T12:00:07Z</time>
</trkpt>
<trkpt lat="50.37846" lon="12.46355">
<ele>635</ele>
<time>2011-04-17T12:00:09Z</time>
</trkpt>
<trkpt lat="50.37849" lon="12.46351">
<ele>634</ele>
<time>2011-04-17T12:00:11Z</time>
</trkpt>
<trkpt lat="50.37855" lon="12.46342">
<ele>635</ele>
<time>2011-04-17T12:00:14Z</time>
</trkpt>
<trkpt lat="50.37858" lon="12.46336">
<ele>635</ele>
<time>2011-04-17T12:00:16Z</time>
</trkpt>
<trkpt lat="50.37863" lon="12.46329">
<ele>638</ele>
<time>2011-04-17T12:00:18Z</time>
</trkpt>
<trkpt lat="50.37867" lon="12.46323">
<ele>638</ele>
<time>2011-04-17T12:00:20Z</time>
</trkpt>
<trkpt lat="50.37871" lon="12.46317">
<ele>637</ele>
<time>2011-04-17T12:00:22Z</time>
</trkpt>
<trkpt lat="50.37874" lon="12.4631">
<ele>637</ele>
<time>2011-04-17T12:00:24Z</time>
</trkpt>
<trkpt lat="50.37877" lon="12.46302">
<ele>637</ele>
<time>2011-04-17T12:00:26Z</time>
</trkpt>
<trkpt lat="50.37883" lon="12.46295">
<ele>636</ele>
<time>2011-04-17T12:00:28Z</time>
</trkpt>
<trkpt lat="50.37888" lon="12.46289">
<ele>636</ele>
<time>2011-04-17T12:00:30Z</time>
</trkpt>
<trkpt lat="50.37892" lon="12.46285">
<ele>635</ele>
<time>2011-04-17T12:00:32Z</time>
</trkpt>
<trkpt lat="50.37897" lon="12.46282">
<ele>635</ele>
<time>2011-04-17T12:00:34Z</time>
</trkpt>
<trkpt lat="50.37901" lon="12.46276">
<ele>634</ele>
<time>2011-04-17T12:00:36Z</time>
</trkpt>
<trkpt lat="50.37904" lon="12.4627">
<ele>634</ele>
<time>2011-04-17T12:00:38Z</time>
</trkpt>
<trkpt lat="50.37909" lon="12.46263">
<ele>634</ele>
<time>2011-04-17T12:00:40Z</time>
</trkpt>
<trkpt lat="50.37914" lon="12.46256">
<ele>634</ele>
<time>2011-04-17T12:00:42Z</time>
</trkpt>
<trkpt lat="50.37919" lon="12.46251">
<ele>633</ele>
<time>2011-04-17T12:00:44Z</time>
</trkpt>
<trkpt lat="50.37926" lon="12.46246">
<ele>633</ele>
<time>2011-04-17T12:00:46Z</time>
</trkpt>
<trkpt lat="50.3793" lon="12.46241">
<ele>631</ele>
<time>2011-04-17T12:00:48Z</time>
</trkpt>
<trkpt lat="50.37935" lon="12.46237">
<ele>628</ele>
<time>2011-04-17T12:00:50Z</time>
</trkpt>
<trkpt lat="50.3794" lon="12.46235">
<ele>628</ele>
<time>2011-04-17T12:00:52Z</time>
</trkpt>
<trkpt lat="50.37945" lon="12.46229">
<ele>627</ele>
<time>2011-04-17T12:00:54Z</time>
</trkpt>
<trkpt lat="50.37949" lon="12.4622">
<ele>628</ele>
<time>2011-04-17T12:00:56Z</time>
</trkpt>
<trkpt lat="50.37954" lon="12.46215">
<ele>627</ele>
<time>2011-04-17T12:00:58Z</time>
</trkpt>
<trkpt lat="50.3796" lon="12.46212">
<ele>628</ele>
<time>2011-04-17T12:01:00Z</time>
</trkpt>
<trkpt lat="50.37967" lon="12.46207">
<ele>627</ele>
<time>2011-04-17T12:01:02Z</time>
</trkpt>
<trkpt lat="50.37972" lon="12.46205">
<ele>626</ele>
<time>2011-04-17T12:01:04Z</time>
</trkpt>
<trkpt lat="50.37979" lon="12.46202">
<ele>627</ele>
<time>2011-04-17T12:01:06Z</time>
</trkpt>
<trkpt lat="50.37985" lon="12.462">
<ele>626</ele>
<time>2011-04-17T12:01:08Z</time>
</trkpt>
<trkpt lat="50.37992" lon="12.46196">
<ele>625</ele>
<time>2011-04-17T12:01:10Z</time>
</trkpt>
<trkpt lat="50.38002" lon="12.46195">
<ele>625</ele>
<time>2011-04-17T12:01:14Z</time>
</trkpt>
<trkpt lat="50.38009" lon="12.46197">
<ele>624</ele>
<time>2011-04-17T12:01:16Z</time>
</trkpt>
<trkpt lat="50.38014" lon="12.46197">
<ele>625</ele>
<time>2011-04-17T12:01:18Z</time>
</trkpt>
<trkpt lat="50.38019" lon="12.462">
<ele>625</ele>
<time>2011-04-17T12:01:20Z</time>
</trkpt>
<trkpt lat="50.38027" lon="12.462">
<ele>625</ele>
<time>2011-04-17T12:01:23Z</time>
</trkpt>
<trkpt lat="50.38033" lon="12.46204">
<ele>622</ele>
<time>2011-04-17T12:01:25Z</time>
</trkpt>
<trkpt lat="50.38038" lon="12.46204">
<ele>620</ele>
<time>2011-04-17T12:01:27Z</time>
</trkpt>
<trkpt lat="50.38044" lon="12.46205">
<ele>620</ele>
<time>2011-04-17T12:01:29Z</time>
</trkpt>
<trkpt lat="50.3805" lon="12.46205">
<ele>620</ele>
<time>2011-04-17T12:01:32Z</time>
</trkpt>
<trkpt lat="50.38057" lon="12.46204">
<ele>620</ele>
<time>2011-04-17T12:01:34Z</time>
</trkpt>
<trkpt lat="50.38064" lon="12.46199">
<ele>620</ele>
<time>2011-04-17T12:01:36Z</time>
</trkpt>
<trkpt lat="50.3807" lon="12.46197">
<ele>620</ele>
<time>2011-04-17T12:01:38Z</time>
</trkpt>
<trkpt lat="50.38077" lon="12.46197">
<ele>618</ele>
<time>2011-04-17T12:01:40Z</time>
</trkpt>
<trkpt lat="50.38083" lon="12.46195">
<ele>619</ele>
<time>2011-04-17T12:01:43Z</time>
</trkpt>
<trkpt lat="50.38088" lon="12.46192">
<ele>620</ele>
<time>2011-04-17T12:01:46Z</time>
</trkpt>
<trkpt lat="50.38093" lon="12.4619">
<ele>620</ele>
<time>2011-04-17T12:01:49Z</time>
</trkpt>
<trkpt lat="50.38098" lon="12.46186">
<ele>621</ele>
<time>2011-04-17T12:01:52Z</time>
</trkpt>
<trkpt lat="50.38104" lon="12.4618">
<ele>623</ele>
<time>2011-04-17T12:01:54Z</time>
</trkpt>
<trkpt lat="50.38111" lon="12.46175">
<ele>623</ele>
<time>2011-04-17T12:01:56Z</time>
</trkpt>
<trkpt lat="50.38116" lon="12.46171">
<ele>623</ele>
<time>2011-04-17T12:01:58Z</time>
</trkpt>
<trkpt lat="50.38122" lon="12.46167">
<ele>623</ele>
<time>2011-04-17T12:02:00Z</time>
</trkpt>
<trkpt lat="50.38126" lon="12.46164">
<ele>624</ele>
<time>2011-04-17T12:02:02Z</time>
</trkpt>
<trkpt lat="50.3813" lon="12.46161">
<ele>624</ele>
<time>2011-04-17T12:02:04Z</time>
</trkpt>
<trkpt lat="50.38135" lon="12.4616">
<ele>624</ele>
<time>2011-04-17T12:02:06Z</time>
</trkpt>
<trkpt lat="50.38141" lon="12.46158">
<ele>622</ele>
<time>2011-04-17T12:02:08Z</time>
</trkpt>
<trkpt lat="50.38146" lon="12.46158">
<ele>623</ele>
<time>2011-04-17T12:02:10Z</time>
</trkpt>
<trkpt lat="50.3815" lon="12.46154">
<ele>622</ele>
<time>2011-04-17T12:02:12Z</time>
</trkpt>
<trkpt lat="50.38155" lon="12.46153">
<ele>622</ele>
<time>2011-04-17T12:02:14Z</time>
</trkpt>
<trkpt lat="50.3816" lon="12.4615">
<ele>622</ele>
<time>2011-04-17T12:02:16Z</time>
</trkpt>
<trkpt lat="50.38166" lon="12.46145">
<ele>621</ele>
<time>2011-04-17T12:02:19Z</time>
</trkpt>
<trkpt lat="50.38171" lon="12.46142">
<ele>621</ele>
<time>2011-04-17T12:02:21Z</time>
</trkpt>
<trkpt lat="50.38173" lon="12.46136">
<ele>621</ele>
<time>2011-04-17T12:02:22Z</time>
</trkpt>
<trkpt lat="50.38178" lon="12.46128">
<ele>621</ele>
<time>2011-04-17T12:02:24Z</time>
</trkpt>
<trkpt lat="50.38183" lon="12.46123">
<ele>621</ele>
<time>2011-04-17T12:02:27Z</time>
</trkpt>
<trkpt lat="50.38187" lon="12.46121">
<ele>621</ele>
<time>2011-04-17T12:02:29Z</time>
</trkpt>
<trkpt lat="50.38194" lon="12.46119">
<ele>619</ele>
<time>2011-04-17T12:02:32Z</time>
</trkpt>
<trkpt lat="50.38198" lon="12.46109">
<ele>619</ele>
<time>2011-04-17T12:02:34Z</time>
</trkpt>
<trkpt lat="50.38202" lon="12.46099">
<ele>619</ele>
<time>2011-04-17T12:02:36Z</time>
</trkpt>
<trkpt lat="50.38206" lon="12.46095">
<ele>620</ele>
<time>2011-04-17T12:02:38Z</time>
</trkpt>
<trkpt lat="50.38211" lon="12.46089">
<ele>620</ele>
<time>2011-04-17T12:02:41Z</time>
</trkpt>
<trkpt lat="50.38215" lon="12.46082">
<ele>621</ele>
<time>2011-04-17T12:02:43Z</time>
</trkpt>
<trkpt lat="50.3822" lon="12.46073">
<ele>620</ele>
<time>2011-04-17T12:02:46Z</time>
</trkpt>
<trkpt lat="50.38222" lon="12.46064">
<ele>620</ele>
<time>2011-04-17T12:02:48Z</time>
</trkpt>
<trkpt lat="50.38225" lon="12.46056">
<ele>619</ele>
<time>2011-04-17T12:02:50Z</time>
</trkpt>
<trkpt lat="50.38227" lon="12.46049">
<ele>620</ele>
<time>2011-04-17T12:02:52Z</time>
</trkpt>
<trkpt lat="50.3823" lon="12.46043">
<ele>621</ele>
<time>2011-04-17T12:02:54Z</time>
</trkpt>
<trkpt lat="50.38232" lon="12.46033">
<ele>623</ele>
<time>2011-04-17T12:02:56Z</time>
</trkpt>
<trkpt lat="50.38234" lon="12.46025">
<ele>626</ele>
<time>2011-04-17T12:02:58Z</time>
</trkpt>
<trkpt lat="50.38238" lon="12.46018">
<ele>627</ele>
<time>2011-04-17T12:03:00Z</time>
</trkpt>
<trkpt lat="50.38241" lon="12.46013">
<ele>627</ele>
<time>2011-04-17T12:03:02Z</time>
</trkpt>
<trkpt lat="50.38243" lon="12.46006">
<ele>628</ele>
<time>2011-04-17T12:03:04Z</time>
</trkpt>
<trkpt lat="50.38247" lon="12.45997">
<ele>629</ele>
<time>2011-04-17T12:03:07Z</time>
</trkpt>
<trkpt lat="50.3825" lon="12.45988">
<ele>629</ele>
<time>2011-04-17T12:03:09Z</time>
</trkpt>
<trkpt lat="50.38251" lon="12.4598">
<ele>632</ele>
<time>2011-04-17T12:03:11Z</time>
</trkpt>
<trkpt lat="50.38254" lon="12.45971">
<ele>632</ele>
<time>2011-04-17T12:03:14Z</time>
</trkpt>
<trkpt lat="50.38258" lon="12.45966">
<ele>632</ele>
<time>2011-04-17T12:03:16Z</time>
</trkpt>
<trkpt lat="50.38261" lon="12.45959">
<ele>633</ele>
<time>2011-04-17T12:03:19Z</time>
</trkpt>
<trkpt lat="50.38265" lon="12.4595">
<ele>634</ele>
<time>2011-04-17T12:03:21Z</time>
</trkpt>
<trkpt lat="50.38268" lon="12.45941">
<ele>635</ele>
<time>2011-04-17T12:03:23Z</time>
</trkpt>
<trkpt lat="50.3827" lon="12.45933">
<ele>635</ele>
<time>2011-04-17T12:03:25Z</time>
</trkpt>
<trkpt lat="50.38273" lon="12.45925">
<ele>637</ele>
<time>2011-04-17T12:03:27Z</time>
</trkpt>
<trkpt lat="50.38276" lon="12.45919">
<ele>637</ele>
<time>2011-04-17T12:03:29Z</time>
</trkpt>
<trkpt lat="50.3828" lon="12.45912">
<ele>638</ele>
<time>2011-04-17T12:03:31Z</time>
</trkpt>
<trkpt lat="50.38282" lon="12.45905">
<ele>637</ele>
<time>2011-04-17T12:03:33Z</time>
</trkpt>
<trkpt lat="50.38286" lon="12.45898">
<ele>637</ele>
<time>2011-04-17T12:03:35Z</time>
</trkpt>
<trkpt lat="50.38289" lon="12.45891">
<ele>637</ele>
<time>2011-04-17T12:03:37Z</time>
</trkpt>
<trkpt lat="50.38292" lon="12.45886">
<ele>638</ele>
<time>2011-04-17T12:03:39Z</time>
</trkpt>
<trkpt lat="50.38296" lon="12.4588">
<ele>637</ele>
<time>2011-04-17T12:03:41Z</time>
</trkpt>
<trkpt lat="50.383" lon="12.45875">
<ele>637</ele>
<time>2011-04-17T12:03:43Z</time>
</trkpt>
<trkpt lat="50.38304" lon="12.4587">
<ele>637</ele>
<time>2011-04-17T12:03:45Z</time>
</trkpt>
<trkpt lat="50.38308" lon="12.45865">
<ele>637</ele>
<time>2011-04-17T12:03:47Z</time>
</trkpt>
<trkpt lat="50.38311" lon="12.45859">
<ele>637</ele>
<time>2011-04-17T12:03:49Z</time>
</trkpt>
<trkpt lat="50.38314" lon="12.45853">
<ele>634</ele>
<time>2011-04-17T12:03:51Z</time>
</trkpt>
<trkpt lat="50.38319" lon="12.45847">
<ele>634</ele>
<time>2011-04-17T12:03:53Z</time>
</trkpt>
<trkpt lat="50.38322" lon="12.45842">
<ele>634</ele>
<time>2011-04-17T12:03:55Z</time>
</trkpt>
<trkpt lat="50.38326" lon="12.45836">
<ele>635</ele>
<time>2011-04-17T12:03:57Z</time>
</trkpt>
<trkpt lat="50.3833" lon="12.45827">
<ele>637</ele>
<time>2011-04-17T12:03:59Z</time>
</trkpt>
<trkpt lat="50.38333" lon="12.45821">
<ele>638</ele>
<time>2011-04-17T12:04:01Z</time>
</trkpt>
<trkpt lat="50.38338" lon="12.45815">
<ele>639</ele>
<time>2011-04-17T12:04:03Z</time>
</trkpt>
<trkpt lat="50.38343" lon="12.4581">
<ele>639</ele>
<time>2011-04-17T12:04:05Z</time>
</trkpt>
<trkpt lat="50.38347" lon="12.45802">
<ele>641</ele>
<time>2011-04-17T12:04:07Z</time>
</trkpt>
<trkpt lat="50.38352" lon="12.45794">
<ele>642</ele>
<time>2011-04-17T12:04:09Z</time>
</trkpt>
<trkpt lat="50.38355" lon="12.45787">
<ele>645</ele>
<time>2011-04-17T12:04:11Z</time>
</trkpt>
<trkpt lat="50.38359" lon="12.45782">
<ele>644</ele>
<time>2011-04-17T12:04:13Z</time>
</trkpt>
<trkpt lat="50.38364" lon="12.45776">
<ele>645</ele>
<time>2011-04-17T12:04:16Z</time>
</trkpt>
<trkpt lat="50.38368" lon="12.45771">
<ele>645</ele>
<time>2011-04-17T12:04:18Z</time>
</trkpt>
<trkpt lat="50.38371" lon="12.45765">
<ele>645</ele>
<time>2011-04-17T12:04:20Z</time>
</trkpt>
<trkpt lat="50.38375" lon="12.45761">
<ele>645</ele>
<time>2011-04-17T12:04:22Z</time>
</trkpt>
<trkpt lat="50.3838" lon="12.45756">
<ele>645</ele>
<time>2011-04-17T12:04:24Z</time>
</trkpt>
<trkpt lat="50.38383" lon="12.45748">
<ele>647</ele>
<time>2011-04-17T12:04:26Z</time>
</trkpt>
<trkpt lat="50.38386" lon="12.45741">
<ele>648</ele>
<time>2011-04-17T12:04:28Z</time>
</trkpt>
<trkpt lat="50.38391" lon="12.45735">
<ele>649</ele>
<time>2011-04-17T12:04:30Z</time>
</trkpt>
<trkpt lat="50.38396" lon="12.45728">
<ele>648</ele>
<time>2011-04-17T12:04:33Z</time>
</trkpt>
<trkpt lat="50.38399" lon="12.4572">
<ele>648</ele>
<time>2011-04-17T12:04:35Z</time>
</trkpt>
<trkpt lat="50.38404" lon="12.45715">
<ele>647</ele>
<time>2011-04-17T12:04:37Z</time>
</trkpt>
<trkpt lat="50.38408" lon="12.45707">
<ele>644</ele>
<time>2011-04-17T12:04:40Z</time>
</trkpt>
<trkpt lat="50.38413" lon="12.45703">
<ele>645</ele>
<time>2011-04-17T12:04:42Z</time>
</trkpt>
<trkpt lat="50.38418" lon="12.45696">
<ele>644</ele>
<time>2011-04-17T12:04:44Z</time>
</trkpt>
<trkpt lat="50.38422" lon="12.45692">
<ele>645</ele>
<time>2011-04-17T12:04:46Z</time>
</trkpt>
<trkpt lat="50.38427" lon="12.45684">
<ele>642</ele>
<time>2011-04-17T12:04:48Z</time>
</trkpt>
<trkpt lat="50.38431" lon="12.4568">
<ele>641</ele>
<time>2011-04-17T12:04:50Z</time>
</trkpt>
<trkpt lat="50.38435" lon="12.45674">
<ele>640</ele>
<time>2011-04-17T12:04:52Z</time>
</trkpt>
<trkpt lat="50.3844" lon="12.45667">
<ele>640</ele>
<time>2011-04-17T12:04:54Z</time>
</trkpt>
<trkpt lat="50.38444" lon="12.45662">
<ele>640</ele>
<time>2011-04-17T12:04:56Z</time>
</trkpt>
<trkpt lat="50.38447" lon="12.45656">
<ele>641</ele>
<time>2011-04-17T12:04:58Z</time>
</trkpt>
<trkpt lat="50.3845" lon="12.4565">
<ele>642</ele>
<time>2011-04-17T12:05:00Z</time>
</trkpt>
<trkpt lat="50.38454" lon="12.45641">
<ele>643</ele>
<time>2011-04-17T12:05:03Z</time>
</trkpt>
<trkpt lat="50.38457" lon="12.45633">
<ele>643</ele>
<time>2011-04-17T12:05:05Z</time>
</trkpt>
<trkpt lat="50.3846" lon="12.45628">
<ele>644</ele>
<time>2011-04-17T12:05:07Z</time>
</trkpt>
<trkpt lat="50.38462" lon="12.4562">
<ele>646</ele>
<time>2011-04-17T12:05:09Z</time>
</trkpt>
<trkpt lat="50.38465" lon="12.45612">
<ele>647</ele>
<time>2011-04-17T12:05:11Z</time>
</trkpt>
<trkpt lat="50.38468" lon="12.45606">
<ele>646</ele>
<time>2011-04-17T12:05:13Z</time>
</trkpt>
<trkpt lat="50.38472" lon="12.45597">
<ele>648</ele>
<time>2011-04-17T12:05:16Z</time>
</trkpt>
<trkpt lat="50.38476" lon="12.45589">
<ele>648</ele>
<time>2011-04-17T12:05:18Z</time>
</trkpt>
<trkpt lat="50.3848" lon="12.4558">
<ele>649</ele>
<time>2011-04-17T12:05:21Z</time>
</trkpt>
<trkpt lat="50.38484" lon="12.45574">
<ele>649</ele>
<time>2011-04-17T12:05:23Z</time>
</trkpt>
<trkpt lat="50.38488" lon="12.45565">
<ele>649</ele>
<time>2011-04-17T12:05:26Z</time>
</trkpt>
<trkpt lat="50.38488" lon="12.45555">
<ele>655</ele>
<time>2011-04-17T12:05:27Z</time>
</trkpt>
<trkpt lat="50.38488" lon="12.45548">
<ele>656</ele>
<time>2011-04-17T12:05:30Z</time>
</trkpt>
<trkpt lat="50.38485" lon="12.45542">
<ele>655</ele>
<time>2011-04-17T12:05:32Z</time>
</trkpt>
<trkpt lat="50.3848" lon="12.45536">
<ele>654</ele>
<time>2011-04-17T12:05:34Z</time>
</trkpt>
<trkpt lat="50.38474" lon="12.45534">
<ele>653</ele>
<time>2011-04-17T12:05:36Z</time>
</trkpt>
<trkpt lat="50.38469" lon="12.45532">
<ele>652</ele>
<time>2011-04-17T12:05:38Z</time>
</trkpt>
<trkpt lat="50.38464" lon="12.45531">
<ele>651</ele>
<time>2011-04-17T12:05:40Z</time>
</trkpt>
<trkpt lat="50.38459" lon="12.45527">
<ele>651</ele>
<time>2011-04-17T12:05:42Z</time>
</trkpt>
<trkpt lat="50.38449" lon="12.45527">
<ele>652</ele>
<time>2011-04-17T12:05:44Z</time>
</trkpt>
<trkpt lat="50.38445" lon="12.45524">
<ele>651</ele>
<time>2011-04-17T12:05:49Z</time>
</trkpt>
<trkpt lat="50.3844" lon="12.45524">
<ele>653</ele>
<time>2011-04-17T12:06:07Z</time>
</trkpt>
<trkpt lat="50.3844" lon="12.45524">
<ele>653</ele>
<time>2011-04-17T12:06:07Z</time>
</trkpt>
<trkpt lat="50.3844" lon="12.45524">
<ele>653</ele>
<time>2011-04-17T12:06:51Z</time>
</trkpt>
<trkpt lat="50.38436" lon="12.45529">
<ele>652</ele>
<time>2011-04-17T12:07:37Z</time>
</trkpt>
<trkpt lat="50.38434" lon="12.45538">
<ele>654</ele>
<time>2011-04-17T12:07:43Z</time>
</trkpt>
<trkpt lat="50.38431" lon="12.45544">
<ele>654</ele>
<time>2011-04-17T12:07:45Z</time>
</trkpt>
<trkpt lat="50.3843" lon="12.45552">
<ele>654</ele>
<time>2011-04-17T12:07:47Z</time>
</trkpt>
<trkpt lat="50.3843" lon="12.45559">
<ele>654</ele>
<time>2011-04-17T12:07:48Z</time>
</trkpt>
<trkpt lat="50.38426" lon="12.45567">
<ele>656</ele>
<time>2011-04-17T12:07:50Z</time>
</trkpt>
<trkpt lat="50.3842" lon="12.45574">
<ele>656</ele>
<time>2011-04-17T12:07:52Z</time>
</trkpt>
<trkpt lat="50.38418" lon="12.45581">
<ele>656</ele>
<time>2011-04-17T12:07:54Z</time>
</trkpt>
<trkpt lat="50.38416" lon="12.45589">
<ele>657</ele>
<time>2011-04-17T12:07:56Z</time>
</trkpt>
<trkpt lat="50.38414" lon="12.45596">
<ele>658</ele>
<time>2011-04-17T12:07:58Z</time>
</trkpt>
<trkpt lat="50.38412" lon="12.45604">
<ele>658</ele>
<time>2011-04-17T12:08:00Z</time>
</trkpt>
<trkpt lat="50.38408" lon="12.45609">
<ele>658</ele>
<time>2011-04-17T12:08:01Z</time>
</trkpt>
<trkpt lat="50.38406" lon="12.45617">
<ele>659</ele>
<time>2011-04-17T12:08:03Z</time>
</trkpt>
<trkpt lat="50.38401" lon="12.45623">
<ele>658</ele>
<time>2011-04-17T12:08:05Z</time>
</trkpt>
<trkpt lat="50.38396" lon="12.45632">
<ele>658</ele>
<time>2011-04-17T12:08:07Z</time>
</trkpt>
<trkpt lat="50.38393" lon="12.4564">
<ele>658</ele>
<time>2011-04-17T12:08:09Z</time>
</trkpt>
<trkpt lat="50.38387" lon="12.45647">
<ele>658</ele>
<time>2011-04-17T12:08:11Z</time>
</trkpt>
<trkpt lat="50.38385" lon="12.45653">
<ele>660</ele>
<time>2011-04-17T12:08:13Z</time>
</trkpt>
<trkpt lat="50.38385" lon="12.45661">
<ele>661</ele>
<time>2011-04-17T12:08:15Z</time>
</trkpt>
<trkpt lat="50.3838" lon="12.45667">
<ele>661</ele>
<time>2011-04-17T12:08:17Z</time>
</trkpt>
<trkpt lat="50.38376" lon="12.45675">
<ele>660</ele>
<time>2011-04-17T12:08:19Z</time>
</trkpt>
<trkpt lat="50.38372" lon="12.45681">
<ele>661</ele>
<time>2011-04-17T12:08:21Z</time>
</trkpt>
<trkpt lat="50.38367" lon="12.45682">
<ele>660</ele>
<time>2011-04-17T12:08:22Z</time>
</trkpt>
<trkpt lat="50.38362" lon="12.45686">
<ele>661</ele>
<time>2011-04-17T12:08:24Z</time>
</trkpt>
<trkpt lat="50.38358" lon="12.45692">
<ele>662</ele>
<time>2011-04-17T12:08:26Z</time>
</trkpt>
<trkpt lat="50.38355" lon="12.45696">
<ele>663</ele>
<time>2011-04-17T12:08:29Z</time>
</trkpt>
<trkpt lat="50.3836" lon="12.45698">
<ele>664</ele>
<time>2011-04-17T12:08:33Z</time>
</trkpt>
<trkpt lat="50.38358" lon="12.45708">
<ele>669</ele>
<time>2011-04-17T12:09:03Z</time>
</trkpt>
<trkpt lat="50.38355" lon="12.45715">
<ele>671</ele>
<time>2011-04-17T12:09:05Z</time>
</trkpt>
<trkpt lat="50.38348" lon="12.4572">
<ele>670</ele>
<time>2011-04-17T12:09:07Z</time>
</trkpt>
<trkpt lat="50.38342" lon="12.45728">
<ele>671</ele>
<time>2011-04-17T12:09:10Z</time>
</trkpt>
<trkpt lat="50.38334" lon="12.45736">
<ele>670</ele>
<time>2011-04-17T12:09:12Z</time>
</trkpt>
<trkpt lat="50.3833" lon="12.45741">
<ele>670</ele>
<time>2011-04-17T12:09:13Z</time>
</trkpt>
<trkpt lat="50.38326" lon="12.45746">
<ele>669</ele>
<time>2011-04-17T12:09:14Z</time>
</trkpt>
<trkpt lat="50.38317" lon="12.4575">
<ele>667</ele>
<time>2011-04-17T12:09:15Z</time>
</trkpt>
<trkpt lat="50.3831" lon="12.45758">
<ele>666</ele>
<time>2011-04-17T12:09:17Z</time>
</trkpt>
<trkpt lat="50.38301" lon="12.45764">
<ele>667</ele>
<time>2011-04-17T12:09:19Z</time>
</trkpt>
<trkpt lat="50.38296" lon="12.45768">
<ele>667</ele>
<time>2011-04-17T12:09:20Z</time>
</trkpt>
<trkpt lat="50.38291" lon="12.45772">
<ele>666</ele>
<time>2011-04-17T12:09:21Z</time>
</trkpt>
<trkpt lat="50.38287" lon="12.45774">
<ele>666</ele>
<time>2011-04-17T12:09:22Z</time>
</trkpt>
<trkpt lat="50.38278" lon="12.45781">
<ele>665</ele>
<time>2011-04-17T12:09:24Z</time>
</trkpt>
<trkpt lat="50.38271" lon="12.45786">
<ele>663</ele>
<time>2011-04-17T12:09:25Z</time>
</trkpt>
<trkpt lat="50.38262" lon="12.45788">
<ele>663</ele>
<time>2011-04-17T12:09:27Z</time>
</trkpt>
<trkpt lat="50.38258" lon="12.45791">
<ele>662</ele>
<time>2011-04-17T12:09:28Z</time>
</trkpt>
<trkpt lat="50.38253" lon="12.45795">
<ele>661</ele>
<time>2011-04-17T12:09:29Z</time>
</trkpt>
<trkpt lat="50.38247" lon="12.45801">
<ele>661</ele>
<time>2011-04-17T12:09:30Z</time>
</trkpt>
<trkpt lat="50.38241" lon="12.45807">
<ele>660</ele>
<time>2011-04-17T12:09:31Z</time>
</trkpt>
<trkpt lat="50.38235" lon="12.45814">
<ele>660</ele>
<time>2011-04-17T12:09:32Z</time>
</trkpt>
<trkpt lat="50.38226" lon="12.45818">
<ele>658</ele>
<time>2011-04-17T12:09:34Z</time>
</trkpt>
<trkpt lat="50.38222" lon="12.45822">
<ele>657</ele>
<time>2011-04-17T12:09:35Z</time>
</trkpt>
<trkpt lat="50.38219" lon="12.45828">
<ele>655</ele>
<time>2011-04-17T12:09:36Z</time>
</trkpt>
<trkpt lat="50.38215" lon="12.45831">
<ele>653</ele>
<time>2011-04-17T12:09:37Z</time>
</trkpt>
<trkpt lat="50.38209" lon="12.45836">
<ele>651</ele>
<time>2011-04-17T12:09:39Z</time>
</trkpt>
<trkpt lat="50.38203" lon="12.4584">
<ele>648</ele>
<time>2011-04-17T12:09:41Z</time>
</trkpt>
<trkpt lat="50.38198" lon="12.45845">
<ele>647</ele>
<time>2011-04-17T12:09:43Z</time>
</trkpt>
<trkpt lat="50.38194" lon="12.45852">
<ele>646</ele>
<time>2011-04-17T12:09:45Z</time>
</trkpt>
<trkpt lat="50.38188" lon="12.45857">
<ele>645</ele>
<time>2011-04-17T12:09:48Z</time>
</trkpt>
<trkpt lat="50.38182" lon="12.45861">
<ele>643</ele>
<time>2011-04-17T12:09:51Z</time>
</trkpt>
<trkpt lat="50.38177" lon="12.45866">
<ele>644</ele>
<time>2011-04-17T12:09:55Z</time>
</trkpt>
<trkpt lat="50.38172" lon="12.45871">
<ele>644</ele>
<time>2011-04-17T12:09:58Z</time>
</trkpt>
<trkpt lat="50.38168" lon="12.45874">
<ele>645</ele>
<time>2011-04-17T12:10:01Z</time>
</trkpt>
<trkpt lat="50.38164" lon="12.45879">
<ele>645</ele>
<time>2011-04-17T12:10:04Z</time>
</trkpt>
<trkpt lat="50.38159" lon="12.45886">
<ele>646</ele>
<time>2011-04-17T12:10:08Z</time>
</trkpt>
<trkpt lat="50.38155" lon="12.45891">
<ele>646</ele>
<time>2011-04-17T12:10:12Z</time>
</trkpt>
<trkpt lat="50.38149" lon="12.45894">
<ele>646</ele>
<time>2011-04-17T12:10:15Z</time>
</trkpt>
<trkpt lat="50.38145" lon="12.45897">
<ele>646</ele>
<time>2011-04-17T12:10:18Z</time>
</trkpt>
<trkpt lat="50.3814" lon="12.45898">
<ele>647</ele>
<time>2011-04-17T12:10:21Z</time>
</trkpt>
<trkpt lat="50.38135" lon="12.45898">
<ele>646</ele>
<time>2011-04-17T12:10:24Z</time>
</trkpt>
<trkpt lat="50.3813" lon="12.45903">
<ele>645</ele>
<time>2011-04-17T12:10:26Z</time>
</trkpt>
<trkpt lat="50.38126" lon="12.45908">
<ele>645</ele>
<time>2011-04-17T12:10:28Z</time>
</trkpt>
<trkpt lat="50.38122" lon="12.45911">
<ele>647</ele>
<time>2011-04-17T12:10:31Z</time>
</trkpt>
<trkpt lat="50.38116" lon="12.45912">
<ele>649</ele>
<time>2011-04-17T12:10:35Z</time>
</trkpt>
<trkpt lat="50.38112" lon="12.45916">
<ele>649</ele>
<time>2011-04-17T12:10:37Z</time>
</trkpt>
<trkpt lat="50.38107" lon="12.45922">
<ele>649</ele>
<time>2011-04-17T12:10:39Z</time>
</trkpt>
<trkpt lat="50.38103" lon="12.45926">
<ele>649</ele>
<time>2011-04-17T12:10:41Z</time>
</trkpt>
<trkpt lat="50.38097" lon="12.45928">
<ele>648</ele>
<time>2011-04-17T12:10:44Z</time>
</trkpt>
<trkpt lat="50.38092" lon="12.45932">
<ele>648</ele>
<time>2011-04-17T12:10:46Z</time>
</trkpt>
<trkpt lat="50.38088" lon="12.45936">
<ele>647</ele>
<time>2011-04-17T12:10:48Z</time>
</trkpt>
<trkpt lat="50.38083" lon="12.4594">
<ele>647</ele>
<time>2011-04-17T12:10:50Z</time>
</trkpt>
<trkpt lat="50.38078" lon="12.45941">
<ele>646</ele>
<time>2011-04-17T12:10:52Z</time>
</trkpt>
<trkpt lat="50.38072" lon="12.45946">
<ele>648</ele>
<time>2011-04-17T12:10:55Z</time>
</trkpt>
<trkpt lat="50.38067" lon="12.4595">
<ele>649</ele>
<time>2011-04-17T12:10:57Z</time>
</trkpt>
<trkpt lat="50.38061" lon="12.45955">
<ele>649</ele>
<time>2011-04-17T12:10:59Z</time>
</trkpt>
<trkpt lat="50.38056" lon="12.45958">
<ele>649</ele>
<time>2011-04-17T12:11:01Z</time>
</trkpt>
<trkpt lat="50.3805" lon="12.45961">
<ele>649</ele>
<time>2011-04-17T12:11:04Z</time>
</trkpt>
<trkpt lat="50.38046" lon="12.45962">
<ele>648</ele>
<time>2011-04-17T12:11:06Z</time>
</trkpt>
<trkpt lat="50.38041" lon="12.45965">
<ele>648</ele>
<time>2011-04-17T12:11:08Z</time>
</trkpt>
<trkpt lat="50.38036" lon="12.45965">
<ele>648</ele>
<time>2011-04-17T12:11:11Z</time>
</trkpt>
<trkpt lat="50.38029" lon="12.45967">
<ele>650</ele>
<time>2011-04-17T12:11:15Z</time>
</trkpt>
<trkpt lat="50.38024" lon="12.45972">
<ele>650</ele>
<time>2011-04-17T12:11:16Z</time>
</trkpt>
<trkpt lat="50.38018" lon="12.45973">
<ele>650</ele>
<time>2011-04-17T12:11:18Z</time>
</trkpt>
<trkpt lat="50.38012" lon="12.45976">
<ele>651</ele>
<time>2011-04-17T12:11:20Z</time>
</trkpt>
<trkpt lat="50.38007" lon="12.45978">
<ele>651</ele>
<time>2011-04-17T12:11:22Z</time>
</trkpt>
<trkpt lat="50.38001" lon="12.4598">
<ele>651</ele>
<time>2011-04-17T12:11:24Z</time>
</trkpt>
<trkpt lat="50.37996" lon="12.45979">
<ele>651</ele>
<time>2011-04-17T12:11:26Z</time>
</trkpt>
<trkpt lat="50.3799" lon="12.45981">
<ele>651</ele>
<time>2011-04-17T12:11:28Z</time>
</trkpt>
<trkpt lat="50.37984" lon="12.45983">
<ele>650</ele>
<time>2011-04-17T12:11:30Z</time>
</trkpt>
<trkpt lat="50.37978" lon="12.45985">
<ele>650</ele>
<time>2011-04-17T12:11:32Z</time>
</trkpt>
<trkpt lat="50.37972" lon="12.45986">
<ele>650</ele>
<time>2011-04-17T12:11:34Z</time>
</trkpt>
<trkpt lat="50.37967" lon="12.45987">
<ele>651</ele>
<time>2011-04-17T12:11:36Z</time>
</trkpt>
<trkpt lat="50.37962" lon="12.45988">
<ele>651</ele>
<time>2011-04-17T12:11:38Z</time>
</trkpt>
<trkpt lat="50.37957" lon="12.45991">
<ele>650</ele>
<time>2011-04-17T12:11:40Z</time>
</trkpt>
<trkpt lat="50.3795" lon="12.45992">
<ele>649</ele>
<time>2011-04-17T12:11:42Z</time>
</trkpt>
<trkpt lat="50.37944" lon="12.45994">
<ele>649</ele>
<time>2011-04-17T12:11:44Z</time>
</trkpt>
<trkpt lat="50.37937" lon="12.45997">
<ele>649</ele>
<time>2011-04-17T12:11:46Z</time>
</trkpt>
<trkpt lat="50.3793" lon="12.46">
<ele>649</ele>
<time>2011-04-17T12:11:48Z</time>
</trkpt>
<trkpt lat="50.37923" lon="12.46002">
<ele>649</ele>
<time>2011-04-17T12:11:50Z</time>
</trkpt>
<trkpt lat="50.37916" lon="12.46004">
<ele>649</ele>
<time>2011-04-17T12:11:52Z</time>
</trkpt>
<trkpt lat="50.37908" lon="12.46005">
<ele>649</ele>
<time>2011-04-17T12:11:54Z</time>
</trkpt>
<trkpt lat="50.379" lon="12.46008">
<ele>649</ele>
<time>2011-04-17T12:11:56Z</time>
</trkpt>
<trkpt lat="50.37896" lon="12.4601">
<ele>648</ele>
<time>2011-04-17T12:11:57Z</time>
</trkpt>
<trkpt lat="50.37886" lon="12.46012">
<ele>648</ele>
<time>2011-04-17T12:11:59Z</time>
</trkpt>
<trkpt lat="50.37881" lon="12.46014">
<ele>648</ele>
<time>2011-04-17T12:12:00Z</time>
</trkpt>
<trkpt lat="50.37871" lon="12.46018">
<ele>647</ele>
<time>2011-04-17T12:12:02Z</time>
</trkpt>
<trkpt lat="50.37866" lon="12.46021">
<ele>647</ele>
<time>2011-04-17T12:12:03Z</time>
</trkpt>
<trkpt lat="50.37861" lon="12.46025">
<ele>648</ele>
<time>2011-04-17T12:12:04Z</time>
</trkpt>
<trkpt lat="50.37856" lon="12.46028">
<ele>647</ele>
<time>2011-04-17T12:12:05Z</time>
</trkpt>
<trkpt lat="50.37852" lon="12.4603">
<ele>647</ele>
<time>2011-04-17T12:12:06Z</time>
</trkpt>
<trkpt lat="50.37845" lon="12.46034">
<ele>646</ele>
<time>2011-04-17T12:12:08Z</time>
</trkpt>
<trkpt lat="50.3784" lon="12.46037">
<ele>646</ele>
<time>2011-04-17T12:12:10Z</time>
</trkpt>
<trkpt lat="50.37834" lon="12.46044">
<ele>646</ele>
<time>2011-04-17T12:12:12Z</time>
</trkpt>
<trkpt lat="50.37828" lon="12.46052">
<ele>645</ele>
<time>2011-04-17T12:12:14Z</time>
</trkpt>
<trkpt lat="50.37824" lon="12.46054">
<ele>644</ele>
<time>2011-04-17T12:12:15Z</time>
</trkpt>
<trkpt lat="50.37818" lon="12.46062">
<ele>644</ele>
<time>2011-04-17T12:12:17Z</time>
</trkpt>
<trkpt lat="50.37812" lon="12.46068">
<ele>644</ele>
<time>2011-04-17T12:12:19Z</time>
</trkpt>
<trkpt lat="50.37807" lon="12.46073">
<ele>643</ele>
<time>2011-04-17T12:12:21Z</time>
</trkpt>
<trkpt lat="50.37805" lon="12.4608">
<ele>643</ele>
<time>2011-04-17T12:12:26Z</time>
</trkpt>
<trkpt lat="50.37803" lon="12.46087">
<ele>642</ele>
<time>2011-04-17T12:12:37Z</time>
</trkpt>
<trkpt lat="50.37797" lon="12.46093">
<ele>641</ele>
<time>2011-04-17T12:12:40Z</time>
</trkpt>
<trkpt lat="50.37793" lon="12.46099">
<ele>641</ele>
<time>2011-04-17T12:12:56Z</time>
</trkpt>
<trkpt lat="50.37788" lon="12.46104">
<ele>640</ele>
<time>2011-04-17T12:13:00Z</time>
</trkpt>
<trkpt lat="50.37783" lon="12.46106">
<ele>640</ele>
<time>2011-04-17T12:13:02Z</time>
</trkpt>
<trkpt lat="50.37778" lon="12.46109">
<ele>640</ele>
<time>2011-04-17T12:13:04Z</time>
</trkpt>
<trkpt lat="50.37773" lon="12.46111">
<ele>641</ele>
<time>2011-04-17T12:13:06Z</time>
</trkpt>
<trkpt lat="50.37766" lon="12.46114">
<ele>642</ele>
<time>2011-04-17T12:13:09Z</time>
</trkpt>
<trkpt lat="50.3776" lon="12.46118">
<ele>642</ele>
<time>2011-04-17T12:13:12Z</time>
</trkpt>
<trkpt lat="50.37754" lon="12.46121">
<ele>642</ele>
<time>2011-04-17T12:13:15Z</time>
</trkpt>
<trkpt lat="50.37748" lon="12.46122">
<ele>643</ele>
<time>2011-04-17T12:13:17Z</time>
</trkpt>
<trkpt lat="50.37742" lon="12.46125">
<ele>645</ele>
<time>2011-04-17T12:13:20Z</time>
</trkpt>
<trkpt lat="50.37736" lon="12.46125">
<ele>645</ele>
<time>2011-04-17T12:13:23Z</time>
</trkpt>
<trkpt lat="50.3773" lon="12.46128">
<ele>645</ele>
<time>2011-04-17T12:13:27Z</time>
</trkpt>
<trkpt lat="50.37723" lon="12.46132">
<ele>644</ele>
<time>2011-04-17T12:13:30Z</time>
</trkpt>
<trkpt lat="50.37719" lon="12.46137">
<ele>645</ele>
<time>2011-04-17T12:13:32Z</time>
</trkpt>
<trkpt lat="50.37715" lon="12.46141">
<ele>645</ele>
<time>2011-04-17T12:13:34Z</time>
</trkpt>
<trkpt lat="50.37709" lon="12.46146">
<ele>647</ele>
<time>2011-04-17T12:13:37Z</time>
</trkpt>
<trkpt lat="50.37704" lon="12.46152">
<ele>647</ele>
<time>2011-04-17T12:13:40Z</time>
</trkpt>
<trkpt lat="50.37698" lon="12.46156">
<ele>647</ele>
<time>2011-04-17T12:13:43Z</time>
</trkpt>
<trkpt lat="50.37693" lon="12.46158">
<ele>647</ele>
<time>2011-04-17T12:13:45Z</time>
</trkpt>
<trkpt lat="50.37688" lon="12.46161">
<ele>646</ele>
<time>2011-04-17T12:13:47Z</time>
</trkpt>
<trkpt lat="50.37684" lon="12.46165">
<ele>646</ele>
<time>2011-04-17T12:13:49Z</time>
</trkpt>
<trkpt lat="50.37678" lon="12.4617">
<ele>647</ele>
<time>2011-04-17T12:13:52Z</time>
</trkpt>
<trkpt lat="50.37672" lon="12.46174">
<ele>648</ele>
<time>2011-04-17T12:13:55Z</time>
</trkpt>
<trkpt lat="50.37667" lon="12.46175">
<ele>649</ele>
<time>2011-04-17T12:13:58Z</time>
</trkpt>
<trkpt lat="50.37661" lon="12.46177">
<ele>650</ele>
<time>2011-04-17T12:14:01Z</time>
</trkpt>
<trkpt lat="50.37655" lon="12.46177">
<ele>650</ele>
<time>2011-04-17T12:14:04Z</time>
</trkpt>
<trkpt lat="50.37649" lon="12.46177">
<ele>650</ele>
<time>2011-04-17T12:14:07Z</time>
</trkpt>
<trkpt lat="50.37643" lon="12.46178">
<ele>650</ele>
<time>2011-04-17T12:14:10Z</time>
</trkpt>
<trkpt lat="50.37636" lon="12.4618">
<ele>651</ele>
<time>2011-04-17T12:14:14Z</time>
</trkpt>
<trkpt lat="50.37631" lon="12.4618">
<ele>651</ele>
<time>2011-04-17T12:14:17Z</time>
</trkpt>
<trkpt lat="50.37625" lon="12.46182">
<ele>650</ele>
<time>2011-04-17T12:14:20Z</time>
</trkpt>
<trkpt lat="50.37619" lon="12.46182">
<ele>651</ele>
<time>2011-04-17T12:14:23Z</time>
</trkpt>
<trkpt lat="50.37614" lon="12.4618">
<ele>651</ele>
<time>2011-04-17T12:14:27Z</time>
</trkpt>
<trkpt lat="50.37608" lon="12.4618">
<ele>652</ele>
<time>2011-04-17T12:14:30Z</time>
</trkpt>
<trkpt lat="50.37603" lon="12.46183">
<ele>653</ele>
<time>2011-04-17T12:14:33Z</time>
</trkpt>
<trkpt lat="50.37598" lon="12.46185">
<ele>653</ele>
<time>2011-04-17T12:14:35Z</time>
</trkpt>
<trkpt lat="50.37592" lon="12.4619">
<ele>653</ele>
<time>2011-04-17T12:14:38Z</time>
</trkpt>
<trkpt lat="50.37588" lon="12.46193">
<ele>653</ele>
<time>2011-04-17T12:14:41Z</time>
</trkpt>
<trkpt lat="50.37583" lon="12.46197">
<ele>654</ele>
<time>2011-04-17T12:14:44Z</time>
</trkpt>
<trkpt lat="50.37578" lon="12.46199">
<ele>655</ele>
<time>2011-04-17T12:14:47Z</time>
</trkpt>
<trkpt lat="50.37573" lon="12.46204">
<ele>654</ele>
<time>2011-04-17T12:14:50Z</time>
</trkpt>
<trkpt lat="50.37568" lon="12.46207">
<ele>655</ele>
<time>2011-04-17T12:14:53Z</time>
</trkpt>
<trkpt lat="50.37563" lon="12.4621">
<ele>656</ele>
<time>2011-04-17T12:14:56Z</time>
</trkpt>
<trkpt lat="50.37558" lon="12.46213">
<ele>657</ele>
<time>2011-04-17T12:14:59Z</time>
</trkpt>
<trkpt lat="50.37553" lon="12.46217">
<ele>657</ele>
<time>2011-04-17T12:15:02Z</time>
</trkpt>
<trkpt lat="50.37548" lon="12.46221">
<ele>658</ele>
<time>2011-04-17T12:15:05Z</time>
</trkpt>
<trkpt lat="50.37544" lon="12.46224">
<ele>658</ele>
<time>2011-04-17T12:15:08Z</time>
</trkpt>
<trkpt lat="50.3754" lon="12.46227">
<ele>658</ele>
<time>2011-04-17T12:15:11Z</time>
</trkpt>
<trkpt lat="50.37536" lon="12.4623">
<ele>657</ele>
<time>2011-04-17T12:15:14Z</time>
</trkpt>
<trkpt lat="50.37531" lon="12.46233">
<ele>657</ele>
<time>2011-04-17T12:15:17Z</time>
</trkpt>
<trkpt lat="50.37527" lon="12.46235">
<ele>658</ele>
<time>2011-04-17T12:15:20Z</time>
</trkpt>
<trkpt lat="50.37523" lon="12.46238">
<ele>658</ele>
<time>2011-04-17T12:15:23Z</time>
</trkpt>
<trkpt lat="50.37518" lon="12.46241">
<ele>659</ele>
<time>2011-04-17T12:15:26Z</time>
</trkpt>
<trkpt lat="50.37513" lon="12.46244">
<ele>659</ele>
<time>2011-04-17T12:15:30Z</time>
</trkpt>
<trkpt lat="50.37508" lon="12.46249">
<ele>659</ele>
<time>2011-04-17T12:15:33Z</time>
</trkpt>
<trkpt lat="50.37503" lon="12.46251">
<ele>659</ele>
<time>2011-04-17T12:15:36Z</time>
</trkpt>
<trkpt lat="50.37498" lon="12.46254">
<ele>660</ele>
<time>2011-04-17T12:15:39Z</time>
</trkpt>
<trkpt lat="50.37493" lon="12.46256">
<ele>661</ele>
<time>2011-04-17T12:15:42Z</time>
</trkpt>
<trkpt lat="50.37488" lon="12.46257">
<ele>661</ele>
<time>2011-04-17T12:15:45Z</time>
</trkpt>
<trkpt lat="50.37482" lon="12.46258">
<ele>661</ele>
<time>2011-04-17T12:15:49Z</time>
</trkpt>
<trkpt lat="50.37477" lon="12.46259">
<ele>661</ele>
<time>2011-04-17T12:15:52Z</time>
</trkpt>
<trkpt lat="50.37472" lon="12.46259">
<ele>661</ele>
<time>2011-04-17T12:15:55Z</time>
</trkpt>
<trkpt lat="50.37468" lon="12.46262">
<ele>661</ele>
<time>2011-04-17T12:15:58Z</time>
</trkpt>
<trkpt lat="50.37463" lon="12.46263">
<ele>662</ele>
<time>2011-04-17T12:16:01Z</time>
</trkpt>
<trkpt lat="50.37458" lon="12.46264">
<ele>663</ele>
<time>2011-04-17T12:16:04Z</time>
</trkpt>
<trkpt lat="50.37451" lon="12.46266">
<ele>662</ele>
<time>2011-04-17T12:16:08Z</time>
</trkpt>
<trkpt lat="50.37446" lon="12.46267">
<ele>662</ele>
<time>2011-04-17T12:16:11Z</time>
</trkpt>
<trkpt lat="50.3744" lon="12.46267">
<ele>661</ele>
<time>2011-04-17T12:16:15Z</time>
</trkpt>
<trkpt lat="50.37435" lon="12.46265">
<ele>660</ele>
<time>2011-04-17T12:16:19Z</time>
</trkpt>
<trkpt lat="50.37429" lon="12.46266">
<ele>660</ele>
<time>2011-04-17T12:16:22Z</time>
</trkpt>
<trkpt lat="50.37424" lon="12.46267">
<ele>660</ele>
<time>2011-04-17T12:16:25Z</time>
</trkpt>
<trkpt lat="50.37419" lon="12.46267">
<ele>660</ele>
<time>2011-04-17T12:16:28Z</time>
</trkpt>
<trkpt lat="50.37413" lon="12.46268">
<ele>660</ele>
<time>2011-04-17T12:16:31Z</time>
</trkpt>
<trkpt lat="50.37407" lon="12.46271">
<ele>660</ele>
<time>2011-04-17T12:16:34Z</time>
</trkpt>
<trkpt lat="50.37402" lon="12.46271">
<ele>660</ele>
<time>2011-04-17T12:16:36Z</time>
</trkpt>
<trkpt lat="50.37397" lon="12.46273">
<ele>659</ele>
<time>2011-04-17T12:16:40Z</time>
</trkpt>
<trkpt lat="50.37392" lon="12.46274">
<ele>660</ele>
<time>2011-04-17T12:16:43Z</time>
</trkpt>
<trkpt lat="50.37386" lon="12.46275">
<ele>660</ele>
<time>2011-04-17T12:16:46Z</time>
</trkpt>
<trkpt lat="50.3738" lon="12.46276">
<ele>660</ele>
<time>2011-04-17T12:16:49Z</time>
</trkpt>
<trkpt lat="50.37375" lon="12.46277">
<ele>660</ele>
<time>2011-04-17T12:16:52Z</time>
</trkpt>
<trkpt lat="50.37369" lon="12.46281">
<ele>662</ele>
<time>2011-04-17T12:16:55Z</time>
</trkpt>
<trkpt lat="50.37363" lon="12.46282">
<ele>661</ele>
<time>2011-04-17T12:16:58Z</time>
</trkpt>
<trkpt lat="50.37358" lon="12.46284">
<ele>662</ele>
<time>2011-04-17T12:17:01Z</time>
</trkpt>
<trkpt lat="50.37353" lon="12.46287">
<ele>662</ele>
<time>2011-04-17T12:17:04Z</time>
</trkpt>
<trkpt lat="50.37348" lon="12.46289">
<ele>662</ele>
<time>2011-04-17T12:17:07Z</time>
</trkpt>
<trkpt lat="50.37342" lon="12.4629">
<ele>663</ele>
<time>2011-04-17T12:17:11Z</time>
</trkpt>
<trkpt lat="50.37338" lon="12.46293">
<ele>664</ele>
<time>2011-04-17T12:17:14Z</time>
</trkpt>
<trkpt lat="50.37332" lon="12.46295">
<ele>664</ele>
<time>2011-04-17T12:17:18Z</time>
</trkpt>
<trkpt lat="50.37327" lon="12.46298">
<ele>664</ele>
<time>2011-04-17T12:17:21Z</time>
</trkpt>
<trkpt lat="50.37322" lon="12.463">
<ele>664</ele>
<time>2011-04-17T12:17:25Z</time>
</trkpt>
<trkpt lat="50.37317" lon="12.46302">
<ele>665</ele>
<time>2011-04-17T12:17:29Z</time>
</trkpt>
<trkpt lat="50.37311" lon="12.46304">
<ele>666</ele>
<time>2011-04-17T12:17:33Z</time>
</trkpt>
<trkpt lat="50.37306" lon="12.46308">
<ele>667</ele>
<time>2011-04-17T12:17:36Z</time>
</trkpt>
<trkpt lat="50.37302" lon="12.46311">
<ele>668</ele>
<time>2011-04-17T12:17:39Z</time>
</trkpt>
<trkpt lat="50.37297" lon="12.46314">
<ele>668</ele>
<time>2011-04-17T12:17:42Z</time>
</trkpt>
<trkpt lat="50.37292" lon="12.46316">
<ele>668</ele>
<time>2011-04-17T12:17:46Z</time>
</trkpt>
<trkpt lat="50.37288" lon="12.4632">
<ele>669</ele>
<time>2011-04-17T12:17:51Z</time>
</trkpt>
<trkpt lat="50.37283" lon="12.46323">
<ele>670</ele>
<time>2011-04-17T12:17:56Z</time>
</trkpt>
<trkpt lat="50.37278" lon="12.46328">
<ele>671</ele>
<time>2011-04-17T12:18:01Z</time>
</trkpt>
<trkpt lat="50.37274" lon="12.46332">
<ele>672</ele>
<time>2011-04-17T12:18:06Z</time>
</trkpt>
<trkpt lat="50.3727" lon="12.46334">
<ele>672</ele>
<time>2011-04-17T12:18:08Z</time>
</trkpt>
<trkpt lat="50.37265" lon="12.46336">
<ele>672</ele>
<time>2011-04-17T12:18:11Z</time>
</trkpt>
<trkpt lat="50.3726" lon="12.46339">
<ele>673</ele>
<time>2011-04-17T12:18:15Z</time>
</trkpt>
<trkpt lat="50.37257" lon="12.46332">
<ele>673</ele>
<time>2011-04-17T12:18:22Z</time>
</trkpt>
<trkpt lat="50.37261" lon="12.46326">
<ele>673</ele>
<time>2011-04-17T12:18:27Z</time>
</trkpt>
<trkpt lat="50.37266" lon="12.4632">
<ele>674</ele>
<time>2011-04-17T12:18:32Z</time>
</trkpt>
<trkpt lat="50.37261" lon="12.46325">
<ele>672</ele>
<time>2011-04-17T12:18:39Z</time>
</trkpt>
<trkpt lat="50.37259" lon="12.46331">
<ele>672</ele>
<time>2011-04-17T12:18:43Z</time>
</trkpt>
<trkpt lat="50.37263" lon="12.46329">
<ele>671</ele>
<time>2011-04-17T12:19:52Z</time>
</trkpt>
<trkpt lat="50.37263" lon="12.46329">
<ele>671</ele>
<time>2011-04-17T12:19:52Z</time>
</trkpt>
<trkpt lat="50.37263" lon="12.46329">
<ele>671</ele>
<time>2011-04-17T12:19:53Z</time>
</trkpt>
<trkpt lat="50.37266" lon="12.46323">
<ele>673</ele>
<time>2011-04-17T12:19:59Z</time>
</trkpt>
<trkpt lat="50.3727" lon="12.46316">
<ele>672</ele>
<time>2011-04-17T12:20:04Z</time>
</trkpt>
<trkpt lat="50.37273" lon="12.46307">
<ele>674</ele>
<time>2011-04-17T12:20:08Z</time>
</trkpt>
<trkpt lat="50.37276" lon="12.46302">
<ele>674</ele>
<time>2011-04-17T12:20:11Z</time>
</trkpt>
<trkpt lat="50.37279" lon="12.46295">
<ele>673</ele>
<time>2011-04-17T12:20:15Z</time>
</trkpt>
<trkpt lat="50.37282" lon="12.46289">
<ele>674</ele>
<time>2011-04-17T12:20:19Z</time>
</trkpt>
<trkpt lat="50.37286" lon="12.46284">
<ele>674</ele>
<time>2011-04-17T12:20:21Z</time>
</trkpt>
<trkpt lat="50.3729" lon="12.46278">
<ele>675</ele>
<time>2011-04-17T12:20:24Z</time>
</trkpt>
<trkpt lat="50.37294" lon="12.46273">
<ele>675</ele>
<time>2011-04-17T12:20:27Z</time>
</trkpt>
<trkpt lat="50.37295" lon="12.46265">
<ele>674</ele>
<time>2011-04-17T12:20:29Z</time>
</trkpt>
<trkpt lat="50.373" lon="12.46258">
<ele>674</ele>
<time>2011-04-17T12:20:32Z</time>
</trkpt>
<trkpt lat="50.37304" lon="12.4625">
<ele>675</ele>
<time>2011-04-17T12:20:36Z</time>
</trkpt>
<trkpt lat="50.37308" lon="12.46244">
<ele>675</ele>
<time>2011-04-17T12:20:39Z</time>
</trkpt>
<trkpt lat="50.37311" lon="12.46237">
<ele>674</ele>
<time>2011-04-17T12:20:42Z</time>
</trkpt>
<trkpt lat="50.37314" lon="12.4623">
<ele>675</ele>
<time>2011-04-17T12:20:45Z</time>
</trkpt>
<trkpt lat="50.37318" lon="12.46224">
<ele>675</ele>
<time>2011-04-17T12:20:48Z</time>
</trkpt>
<trkpt lat="50.3732" lon="12.46218">
<ele>674</ele>
<time>2011-04-17T12:20:51Z</time>
</trkpt>
<trkpt lat="50.37323" lon="12.46211">
<ele>675</ele>
<time>2011-04-17T12:20:54Z</time>
</trkpt>
<trkpt lat="50.37326" lon="12.46205">
<ele>675</ele>
<time>2011-04-17T12:20:56Z</time>
</trkpt>
<trkpt lat="50.37329" lon="12.46197">
<ele>675</ele>
<time>2011-04-17T12:21:00Z</time>
</trkpt>
<trkpt lat="50.37332" lon="12.4619">
<ele>675</ele>
<time>2011-04-17T12:21:03Z</time>
</trkpt>
<trkpt lat="50.37335" lon="12.46185">
<ele>673</ele>
<time>2011-04-17T12:21:06Z</time>
</trkpt>
<trkpt lat="50.37336" lon="12.46177">
<ele>673</ele>
<time>2011-04-17T12:21:09Z</time>
</trkpt>
<trkpt lat="50.37339" lon="12.46169">
<ele>673</ele>
<time>2011-04-17T12:21:12Z</time>
</trkpt>
<trkpt lat="50.3734" lon="12.46162">
<ele>674</ele>
<time>2011-04-17T12:21:15Z</time>
</trkpt>
<trkpt lat="50.37342" lon="12.46154">
<ele>674</ele>
<time>2011-04-17T12:21:18Z</time>
</trkpt>
<trkpt lat="50.37344" lon="12.46147">
<ele>675</ele>
<time>2011-04-17T12:21:21Z</time>
</trkpt>
<trkpt lat="50.37346" lon="12.46138">
<ele>676</ele>
<time>2011-04-17T12:21:25Z</time>
</trkpt>
<trkpt lat="50.37347" lon="12.46131">
<ele>677</ele>
<time>2011-04-17T12:21:29Z</time>
</trkpt>
<trkpt lat="50.37349" lon="12.46124">
<ele>678</ele>
<time>2011-04-17T12:21:33Z</time>
</trkpt>
<trkpt lat="50.37352" lon="12.46117">
<ele>678</ele>
<time>2011-04-17T12:21:36Z</time>
</trkpt>
<trkpt lat="50.37355" lon="12.46108">
<ele>678</ele>
<time>2011-04-17T12:21:39Z</time>
</trkpt>
<trkpt lat="50.37356" lon="12.46101">
<ele>680</ele>
<time>2011-04-17T12:21:43Z</time>
</trkpt>
<trkpt lat="50.37359" lon="12.46094">
<ele>681</ele>
<time>2011-04-17T12:21:46Z</time>
</trkpt>
<trkpt lat="50.37361" lon="12.46085">
<ele>682</ele>
<time>2011-04-17T12:21:51Z</time>
</trkpt>
<trkpt lat="50.37364" lon="12.4608">
<ele>683</ele>
<time>2011-04-17T12:21:54Z</time>
</trkpt>
<trkpt lat="50.37368" lon="12.46075">
<ele>684</ele>
<time>2011-04-17T12:21:57Z</time>
</trkpt>
<trkpt lat="50.37371" lon="12.46067">
<ele>684</ele>
<time>2011-04-17T12:22:01Z</time>
</trkpt>
<trkpt lat="50.37373" lon="12.46058">
<ele>686</ele>
<time>2011-04-17T12:22:08Z</time>
</trkpt>
<trkpt lat="50.37378" lon="12.46054">
<ele>686</ele>
<time>2011-04-17T12:22:13Z</time>
</trkpt>
<trkpt lat="50.37383" lon="12.46048">
<ele>688</ele>
<time>2011-04-17T12:22:18Z</time>
</trkpt>
<trkpt lat="50.37388" lon="12.46045">
<ele>688</ele>
<time>2011-04-17T12:22:23Z</time>
</trkpt>
<trkpt lat="50.37392" lon="12.46042">
<ele>689</ele>
<time>2011-04-17T12:22:27Z</time>
</trkpt>
<trkpt lat="50.37396" lon="12.46037">
<ele>689</ele>
<time>2011-04-17T12:22:31Z</time>
</trkpt>
<trkpt lat="50.37399" lon="12.46029">
<ele>689</ele>
<time>2011-04-17T12:22:36Z</time>
</trkpt>
<trkpt lat="50.37404" lon="12.46027">
<ele>691</ele>
<time>2011-04-17T12:22:38Z</time>
</trkpt>
<trkpt lat="50.37408" lon="12.46022">
<ele>693</ele>
<time>2011-04-17T12:22:41Z</time>
</trkpt>
<trkpt lat="50.37413" lon="12.46017">
<ele>694</ele>
<time>2011-04-17T12:22:45Z</time>
</trkpt>
<trkpt lat="50.37416" lon="12.46011">
<ele>694</ele>
<time>2011-04-17T12:22:49Z</time>
</trkpt>
<trkpt lat="50.37421" lon="12.46007">
<ele>696</ele>
<time>2011-04-17T12:22:52Z</time>
</trkpt>
<trkpt lat="50.37424" lon="12.46002">
<ele>696</ele>
<time>2011-04-17T12:22:56Z</time>
</trkpt>
<trkpt lat="50.37429" lon="12.45999">
<ele>697</ele>
<time>2011-04-17T12:23:01Z</time>
</trkpt>
<trkpt lat="50.37433" lon="12.45994">
<ele>699</ele>
<time>2011-04-17T12:23:09Z</time>
</trkpt>
<trkpt lat="50.37437" lon="12.4599">
<ele>700</ele>
<time>2011-04-17T12:23:14Z</time>
</trkpt>
<trkpt lat="50.37443" lon="12.45986">
<ele>701</ele>
<time>2011-04-17T12:23:17Z</time>
</trkpt>
<trkpt lat="50.37447" lon="12.45983">
<ele>701</ele>
<time>2011-04-17T12:23:20Z</time>
</trkpt>
<trkpt lat="50.37452" lon="12.45979">
<ele>701</ele>
<time>2011-04-17T12:23:23Z</time>
</trkpt>
<trkpt lat="50.37454" lon="12.45973">
<ele>699</ele>
<time>2011-04-17T12:23:29Z</time>
</trkpt>
<trkpt lat="50.37458" lon="12.45969">
<ele>699</ele>
<time>2011-04-17T12:23:33Z</time>
</trkpt>
<trkpt lat="50.37464" lon="12.45963">
<ele>701</ele>
<time>2011-04-17T12:23:39Z</time>
</trkpt>
<trkpt lat="50.3747" lon="12.4596">
<ele>702</ele>
<time>2011-04-17T12:23:42Z</time>
</trkpt>
<trkpt lat="50.37475" lon="12.45953">
<ele>704</ele>
<time>2011-04-17T12:23:47Z</time>
</trkpt>
<trkpt lat="50.37481" lon="12.45946">
<ele>705</ele>
<time>2011-04-17T12:23:50Z</time>
</trkpt>
<trkpt lat="50.37485" lon="12.45942">
<ele>707</ele>
<time>2011-04-17T12:23:55Z</time>
</trkpt>
<trkpt lat="50.37489" lon="12.45937">
<ele>706</ele>
<time>2011-04-17T12:23:58Z</time>
</trkpt>
<trkpt lat="50.37494" lon="12.45935">
<ele>705</ele>
<time>2011-04-17T12:24:01Z</time>
</trkpt>
<trkpt lat="50.37497" lon="12.4593">
<ele>706</ele>
<time>2011-04-17T12:24:06Z</time>
</trkpt>
<trkpt lat="50.37501" lon="12.45925">
<ele>708</ele>
<time>2011-04-17T12:24:10Z</time>
</trkpt>
<trkpt lat="50.37504" lon="12.45918">
<ele>706</ele>
<time>2011-04-17T12:24:14Z</time>
</trkpt>
<trkpt lat="50.37508" lon="12.45913">
<ele>708</ele>
<time>2011-04-17T12:24:18Z</time>
</trkpt>
<trkpt lat="50.3751" lon="12.45905">
<ele>709</ele>
<time>2011-04-17T12:24:22Z</time>
</trkpt>
<trkpt lat="50.37514" lon="12.45899">
<ele>711</ele>
<time>2011-04-17T12:24:25Z</time>
</trkpt>
<trkpt lat="50.37518" lon="12.45893">
<ele>712</ele>
<time>2011-04-17T12:24:29Z</time>
</trkpt>
<trkpt lat="50.37524" lon="12.45892">
<ele>713</ele>
<time>2011-04-17T12:24:40Z</time>
</trkpt>
<trkpt lat="50.37518" lon="12.45897">
<ele>713</ele>
<time>2011-04-17T12:24:55Z</time>
</trkpt>
<trkpt lat="50.37515" lon="12.45902">
<ele>713</ele>
<time>2011-04-17T12:24:58Z</time>
</trkpt>
<trkpt lat="50.37512" lon="12.45908">
<ele>714</ele>
<time>2011-04-17T12:25:06Z</time>
</trkpt>
<trkpt lat="50.37512" lon="12.45908">
<ele>714</ele>
<time>2011-04-17T12:25:06Z</time>
</trkpt>
<trkpt lat="50.37512" lon="12.45908">
<ele>714</ele>
<time>2011-04-17T12:25:07Z</time>
</trkpt>
<trkpt lat="50.37508" lon="12.45911">
<ele>714</ele>
<time>2011-04-17T12:25:24Z</time>
</trkpt>
<trkpt lat="50.37502" lon="12.45913">
<ele>714</ele>
<time>2011-04-17T12:25:27Z</time>
</trkpt>
<trkpt lat="50.37496" lon="12.45912">
<ele>714</ele>
<time>2011-04-17T12:25:30Z</time>
</trkpt>
<trkpt lat="50.3749" lon="12.45912">
<ele>715</ele>
<time>2011-04-17T12:25:34Z</time>
</trkpt>
<trkpt lat="50.37485" lon="12.45912">
<ele>714</ele>
<time>2011-04-17T12:25:37Z</time>
</trkpt>
<trkpt lat="50.37479" lon="12.45913">
<ele>714</ele>
<time>2011-04-17T12:25:39Z</time>
</trkpt>
<trkpt lat="50.37473" lon="12.45914">
<ele>715</ele>
<time>2011-04-17T12:25:41Z</time>
</trkpt>
<trkpt lat="50.37467" lon="12.45918">
<ele>712</ele>
<time>2011-04-17T12:25:51Z</time>
</trkpt>
<trkpt lat="50.37461" lon="12.45922">
<ele>710</ele>
<time>2011-04-17T12:25:53Z</time>
</trkpt>
<trkpt lat="50.37455" lon="12.45925">
<ele>710</ele>
<time>2011-04-17T12:25:56Z</time>
</trkpt>
<trkpt lat="50.3745" lon="12.45925">
<ele>710</ele>
<time>2011-04-17T12:25:58Z</time>
</trkpt>
<trkpt lat="50.37445" lon="12.45928">
<ele>711</ele>
<time>2011-04-17T12:26:00Z</time>
</trkpt>
<trkpt lat="50.37445" lon="12.45928">
<ele>711</ele>
<time>2011-04-17T12:26:00Z</time>
</trkpt>
<trkpt lat="50.37445" lon="12.45928">
<ele>711</ele>
<time>2011-04-17T12:26:01Z</time>
</trkpt>
<trkpt lat="50.37438" lon="12.4593">
<ele>710</ele>
<time>2011-04-17T12:26:03Z</time>
</trkpt>
<trkpt lat="50.37433" lon="12.45933">
<ele>710</ele>
<time>2011-04-17T12:26:05Z</time>
</trkpt>
<trkpt lat="50.37429" lon="12.45935">
<ele>711</ele>
<time>2011-04-17T12:26:07Z</time>
</trkpt>
<trkpt lat="50.37424" lon="12.45942">
<ele>711</ele>
<time>2011-04-17T12:26:10Z</time>
</trkpt>
<trkpt lat="50.37419" lon="12.45945">
<ele>711</ele>
<time>2011-04-17T12:26:12Z</time>
</trkpt>
<trkpt lat="50.37415" lon="12.45948">
<ele>713</ele>
<time>2011-04-17T12:26:14Z</time>
</trkpt>
<trkpt lat="50.37408" lon="12.45949">
<ele>715</ele>
<time>2011-04-17T12:26:17Z</time>
</trkpt>
<trkpt lat="50.37402" lon="12.4595">
<ele>716</ele>
<time>2011-04-17T12:26:20Z</time>
</trkpt>
<trkpt lat="50.37398" lon="12.45954">
<ele>718</ele>
<time>2011-04-17T12:26:27Z</time>
</trkpt>
<trkpt lat="50.37392" lon="12.45957">
<ele>718</ele>
<time>2011-04-17T12:26:29Z</time>
</trkpt>
<trkpt lat="50.37388" lon="12.4596">
<ele>718</ele>
<time>2011-04-17T12:26:31Z</time>
</trkpt>
<trkpt lat="50.3738" lon="12.45961">
<ele>718</ele>
<time>2011-04-17T12:26:34Z</time>
</trkpt>
<trkpt lat="50.37375" lon="12.45963">
<ele>717</ele>
<time>2011-04-17T12:26:36Z</time>
</trkpt>
<trkpt lat="50.3737" lon="12.45967">
<ele>717</ele>
<time>2011-04-17T12:26:38Z</time>
</trkpt>
<trkpt lat="50.37363" lon="12.45968">
<ele>719</ele>
<time>2011-04-17T12:26:40Z</time>
</trkpt>
<trkpt lat="50.37358" lon="12.45966">
<ele>716</ele>
<time>2011-04-17T12:26:47Z</time>
</trkpt>
<trkpt lat="50.3735" lon="12.45968">
<ele>715</ele>
<time>2011-04-17T12:26:50Z</time>
</trkpt>
<trkpt lat="50.37345" lon="12.45973">
<ele>715</ele>
<time>2011-04-17T12:26:53Z</time>
</trkpt>
<trkpt lat="50.37339" lon="12.45971">
<ele>714</ele>
<time>2011-04-17T12:27:01Z</time>
</trkpt>
<trkpt lat="50.37339" lon="12.45971">
<ele>714</ele>
<time>2011-04-17T12:27:01Z</time>
</trkpt>
<trkpt lat="50.37339" lon="12.45971">
<ele>714</ele>
<time>2011-04-17T12:27:02Z</time>
</trkpt>
<trkpt lat="50.37334" lon="12.45974">
<ele>713</ele>
<time>2011-04-17T12:27:05Z</time>
</trkpt>
<trkpt lat="50.37334" lon="12.45974">
<ele>713</ele>
<time>2011-04-17T12:27:05Z</time>
</trkpt>
<trkpt lat="50.37334" lon="12.45974">
<ele>713</ele>
<time>2011-04-17T12:27:06Z</time>
</trkpt>
<trkpt lat="50.37329" lon="12.45974">
<ele>713</ele>
<time>2011-04-17T12:27:07Z</time>
</trkpt>
<trkpt lat="50.37323" lon="12.45974">
<ele>715</ele>
<time>2011-04-17T12:27:09Z</time>
</trkpt>
<trkpt lat="50.37315" lon="12.45974">
<ele>714</ele>
<time>2011-04-17T12:27:11Z</time>
</trkpt>
<trkpt lat="50.37306" lon="12.45977">
<ele>714</ele>
<time>2011-04-17T12:27:14Z</time>
</trkpt>
<trkpt lat="50.37301" lon="12.45979">
<ele>715</ele>
<time>2011-04-17T12:27:17Z</time>
</trkpt>
<trkpt lat="50.37296" lon="12.45982">
<ele>716</ele>
<time>2011-04-17T12:27:19Z</time>
</trkpt>
<trkpt lat="50.37291" lon="12.45985">
<ele>716</ele>
<time>2011-04-17T12:27:24Z</time>
</trkpt>
<trkpt lat="50.37284" lon="12.45987">
<ele>716</ele>
<time>2011-04-17T12:27:26Z</time>
</trkpt>
<trkpt lat="50.37278" lon="12.4599">
<ele>715</ele>
<time>2011-04-17T12:27:28Z</time>
</trkpt>
<trkpt lat="50.37278" lon="12.4599">
<ele>715</ele>
<time>2011-04-17T12:27:28Z</time>
</trkpt>
<trkpt lat="50.37278" lon="12.4599">
<ele>715</ele>
<time>2011-04-17T12:27:29Z</time>
</trkpt>
<trkpt lat="50.37271" lon="12.45992">
<ele>714</ele>
<time>2011-04-17T12:27:31Z</time>
</trkpt>
<trkpt lat="50.37265" lon="12.45996">
<ele>712</ele>
<time>2011-04-17T12:27:33Z</time>
</trkpt>
<trkpt lat="50.3726" lon="12.45998">
<ele>712</ele>
<time>2011-04-17T12:27:35Z</time>
</trkpt>
<trkpt lat="50.37254" lon="12.45999">
<ele>714</ele>
<time>2011-04-17T12:27:39Z</time>
</trkpt>
<trkpt lat="50.3725" lon="12.46001">
<ele>713</ele>
<time>2011-04-17T12:27:41Z</time>
</trkpt>
<trkpt lat="50.37246" lon="12.46008">
<ele>719</ele>
<time>2011-04-17T12:27:48Z</time>
</trkpt>
<trkpt lat="50.37241" lon="12.46013">
<ele>720</ele>
<time>2011-04-17T12:27:51Z</time>
</trkpt>
<trkpt lat="50.37236" lon="12.46018">
<ele>718</ele>
<time>2011-04-17T12:27:53Z</time>
</trkpt>
<trkpt lat="50.37231" lon="12.46024">
<ele>720</ele>
<time>2011-04-17T12:27:56Z</time>
</trkpt>
<trkpt lat="50.37226" lon="12.46028">
<ele>719</ele>
<time>2011-04-17T12:27:58Z</time>
</trkpt>
<trkpt lat="50.37221" lon="12.46032">
<ele>719</ele>
<time>2011-04-17T12:28:01Z</time>
</trkpt>
<trkpt lat="50.37215" lon="12.46036">
<ele>717</ele>
<time>2011-04-17T12:28:03Z</time>
</trkpt>
<trkpt lat="50.3721" lon="12.46038">
<ele>716</ele>
<time>2011-04-17T12:28:05Z</time>
</trkpt>
<trkpt lat="50.37205" lon="12.46044">
<ele>715</ele>
<time>2011-04-17T12:28:07Z</time>
</trkpt>
<trkpt lat="50.37199" lon="12.46048">
<ele>714</ele>
<time>2011-04-17T12:28:09Z</time>
</trkpt>
<trkpt lat="50.37193" lon="12.46052">
<ele>713</ele>
<time>2011-04-17T12:28:11Z</time>
</trkpt>
<trkpt lat="50.37185" lon="12.46055">
<ele>710</ele>
<time>2011-04-17T12:28:14Z</time>
</trkpt>
<trkpt lat="50.3718" lon="12.46057">
<ele>709</ele>
<time>2011-04-17T12:28:16Z</time>
</trkpt>
<trkpt lat="50.37174" lon="12.46062">
<ele>711</ele>
<time>2011-04-17T12:28:18Z</time>
</trkpt>
<trkpt lat="50.37169" lon="12.46067">
<ele>712</ele>
<time>2011-04-17T12:28:21Z</time>
</trkpt>
<trkpt lat="50.37164" lon="12.46062">
<ele>712</ele>
<time>2011-04-17T12:28:24Z</time>
</trkpt>
<trkpt lat="50.37164" lon="12.4607">
<ele>711</ele>
<time>2011-04-17T12:29:12Z</time>
</trkpt>
<trkpt lat="50.37165" lon="12.46079">
<ele>711</ele>
<time>2011-04-17T12:32:09Z</time>
</trkpt>
<trkpt lat="50.37169" lon="12.46072">
<ele>712</ele>
<time>2011-04-17T12:32:28Z</time>
</trkpt>
<trkpt lat="50.37167" lon="12.46065">
<ele>711</ele>
<time>2011-04-17T12:32:34Z</time>
</trkpt>
<trkpt lat="50.37164" lon="12.46057">
<ele>709</ele>
<time>2011-04-17T12:33:00Z</time>
</trkpt>
<trkpt lat="50.37162" lon="12.46048">
<ele>710</ele>
<time>2011-04-17T12:33:02Z</time>
</trkpt>
<trkpt lat="50.37157" lon="12.46042">
<ele>710</ele>
<time>2011-04-17T12:33:04Z</time>
</trkpt>
<trkpt lat="50.37152" lon="12.46035">
<ele>710</ele>
<time>2011-04-17T12:33:07Z</time>
</trkpt>
<trkpt lat="50.37149" lon="12.46024">
<ele>710</ele>
<time>2011-04-17T12:33:10Z</time>
</trkpt>
<trkpt lat="50.37146" lon="12.46019">
<ele>710</ele>
<time>2011-04-17T12:33:12Z</time>
</trkpt>
<trkpt lat="50.37142" lon="12.46013">
<ele>710</ele>
<time>2011-04-17T12:33:14Z</time>
</trkpt>
<trkpt lat="50.37139" lon="12.46007">
<ele>711</ele>
<time>2011-04-17T12:33:16Z</time>
</trkpt>
<trkpt lat="50.37134" lon="12.45999">
<ele>715</ele>
<time>2011-04-17T12:33:18Z</time>
</trkpt>
<trkpt lat="50.3713" lon="12.45996">
<ele>714</ele>
<time>2011-04-17T12:33:21Z</time>
</trkpt>
<trkpt lat="50.37125" lon="12.45993">
<ele>713</ele>
<time>2011-04-17T12:33:24Z</time>
</trkpt>
<trkpt lat="50.37119" lon="12.45992">
<ele>712</ele>
<time>2011-04-17T12:33:27Z</time>
</trkpt>
<trkpt lat="50.37115" lon="12.45988">
<ele>711</ele>
<time>2011-04-17T12:33:29Z</time>
</trkpt>
<trkpt lat="50.37108" lon="12.45985">
<ele>710</ele>
<time>2011-04-17T12:33:32Z</time>
</trkpt>
<trkpt lat="50.37104" lon="12.45978">
<ele>711</ele>
<time>2011-04-17T12:33:36Z</time>
</trkpt>
<trkpt lat="50.37099" lon="12.45975">
<ele>710</ele>
<time>2011-04-17T12:33:39Z</time>
</trkpt>
<trkpt lat="50.37095" lon="12.45971">
<ele>709</ele>
<time>2011-04-17T12:33:42Z</time>
</trkpt>
<trkpt lat="50.3709" lon="12.45969">
<ele>708</ele>
<time>2011-04-17T12:33:45Z</time>
</trkpt>
<trkpt lat="50.37084" lon="12.45964">
<ele>708</ele>
<time>2011-04-17T12:33:48Z</time>
</trkpt>
<trkpt lat="50.37078" lon="12.4596">
<ele>709</ele>
<time>2011-04-17T12:33:50Z</time>
</trkpt>
<trkpt lat="50.37073" lon="12.45956">
<ele>709</ele>
<time>2011-04-17T12:33:52Z</time>
</trkpt>
<trkpt lat="50.37067" lon="12.45952">
<ele>709</ele>
<time>2011-04-17T12:33:55Z</time>
</trkpt>
<trkpt lat="50.37063" lon="12.45948">
<ele>709</ele>
<time>2011-04-17T12:33:57Z</time>
</trkpt>
<trkpt lat="50.37061" lon="12.45941">
<ele>709</ele>
<time>2011-04-17T12:34:00Z</time>
</trkpt>
<trkpt lat="50.37058" lon="12.45935">
<ele>711</ele>
<time>2011-04-17T12:34:03Z</time>
</trkpt>
<trkpt lat="50.37056" lon="12.45928">
<ele>712</ele>
<time>2011-04-17T12:34:06Z</time>
</trkpt>
<trkpt lat="50.37056" lon="12.45919">
<ele>711</ele>
<time>2011-04-17T12:34:09Z</time>
</trkpt>
<trkpt lat="50.37056" lon="12.4591">
<ele>710</ele>
<time>2011-04-17T12:34:12Z</time>
</trkpt>
<trkpt lat="50.37055" lon="12.45901">
<ele>710</ele>
<time>2011-04-17T12:34:15Z</time>
</trkpt>
<trkpt lat="50.37056" lon="12.45891">
<ele>711</ele>
<time>2011-04-17T12:34:18Z</time>
</trkpt>
<trkpt lat="50.37059" lon="12.45882">
<ele>710</ele>
<time>2011-04-17T12:34:21Z</time>
</trkpt>
<trkpt lat="50.37061" lon="12.45873">
<ele>708</ele>
<time>2011-04-17T12:34:24Z</time>
</trkpt>
<trkpt lat="50.37064" lon="12.45867">
<ele>708</ele>
<time>2011-04-17T12:34:26Z</time>
</trkpt>
<trkpt lat="50.37065" lon="12.4586">
<ele>709</ele>
<time>2011-04-17T12:34:29Z</time>
</trkpt>
<trkpt lat="50.37068" lon="12.45851">
<ele>710</ele>
<time>2011-04-17T12:34:32Z</time>
</trkpt>
<trkpt lat="50.37068" lon="12.45851">
<ele>710</ele>
<time>2011-04-17T12:34:32Z</time>
</trkpt>
<trkpt lat="50.37068" lon="12.45851">
<ele>710</ele>
<time>2011-04-17T12:34:40Z</time>
</trkpt>
<trkpt lat="50.37069" lon="12.45844">
<ele>711</ele>
<time>2011-04-17T12:34:45Z</time>
</trkpt>
<trkpt lat="50.37072" lon="12.45837">
<ele>711</ele>
<time>2011-04-17T12:34:47Z</time>
</trkpt>
<trkpt lat="50.37074" lon="12.45827">
<ele>712</ele>
<time>2011-04-17T12:34:50Z</time>
</trkpt>
<trkpt lat="50.37076" lon="12.45818">
<ele>713</ele>
<time>2011-04-17T12:34:53Z</time>
</trkpt>
<trkpt lat="50.3708" lon="12.45811">
<ele>713</ele>
<time>2011-04-17T12:34:57Z</time>
</trkpt>
<trkpt lat="50.37082" lon="12.45804">
<ele>715</ele>
<time>2011-04-17T12:35:00Z</time>
</trkpt>
<trkpt lat="50.37087" lon="12.45794">
<ele>716</ele>
<time>2011-04-17T12:35:03Z</time>
</trkpt>
<trkpt lat="50.37087" lon="12.45785">
<ele>717</ele>
<time>2011-04-17T12:35:06Z</time>
</trkpt>
<trkpt lat="50.37089" lon="12.45779">
<ele>718</ele>
<time>2011-04-17T12:35:08Z</time>
</trkpt>
<trkpt lat="50.37092" lon="12.45772">
<ele>718</ele>
<time>2011-04-17T12:35:11Z</time>
</trkpt>
<trkpt lat="50.37091" lon="12.4576">
<ele>725</ele>
<time>2011-04-17T12:35:14Z</time>
</trkpt>
<trkpt lat="50.37095" lon="12.45754">
<ele>722</ele>
<time>2011-04-17T12:35:18Z</time>
</trkpt>
<trkpt lat="50.37096" lon="12.45746">
<ele>722</ele>
<time>2011-04-17T12:35:21Z</time>
</trkpt>
<trkpt lat="50.37099" lon="12.45739">
<ele>722</ele>
<time>2011-04-17T12:35:24Z</time>
</trkpt>
<trkpt lat="50.37104" lon="12.4574">
<ele>718</ele>
<time>2011-04-17T12:35:25Z</time>
</trkpt>
<trkpt lat="50.37108" lon="12.45733">
<ele>718</ele>
<time>2011-04-17T12:35:28Z</time>
</trkpt>
<trkpt lat="50.37111" lon="12.45727">
<ele>719</ele>
<time>2011-04-17T12:35:32Z</time>
</trkpt>
<trkpt lat="50.37115" lon="12.45722">
<ele>715</ele>
<time>2011-04-17T12:35:35Z</time>
</trkpt>
<trkpt lat="50.37118" lon="12.45716">
<ele>714</ele>
<time>2011-04-17T12:35:38Z</time>
</trkpt>
<trkpt lat="50.37121" lon="12.45711">
<ele>713</ele>
<time>2011-04-17T12:35:41Z</time>
</trkpt>
<trkpt lat="50.37124" lon="12.45705">
<ele>712</ele>
<time>2011-04-17T12:35:44Z</time>
</trkpt>
<trkpt lat="50.37128" lon="12.45697">
<ele>712</ele>
<time>2011-04-17T12:35:47Z</time>
</trkpt>
<trkpt lat="50.3713" lon="12.45688">
<ele>712</ele>
<time>2011-04-17T12:35:50Z</time>
</trkpt>
<trkpt lat="50.37133" lon="12.4568">
<ele>712</ele>
<time>2011-04-17T12:35:53Z</time>
</trkpt>
<trkpt lat="50.37135" lon="12.45672">
<ele>712</ele>
<time>2011-04-17T12:35:56Z</time>
</trkpt>
<trkpt lat="50.37135" lon="12.45664">
<ele>712</ele>
<time>2011-04-17T12:35:58Z</time>
</trkpt>
<trkpt lat="50.37138" lon="12.45658">
<ele>713</ele>
<time>2011-04-17T12:36:02Z</time>
</trkpt>
<trkpt lat="50.37139" lon="12.45649">
<ele>713</ele>
<time>2011-04-17T12:36:05Z</time>
</trkpt>
<trkpt lat="50.37141" lon="12.45641">
<ele>713</ele>
<time>2011-04-17T12:36:08Z</time>
</trkpt>
<trkpt lat="50.37144" lon="12.45632">
<ele>715</ele>
<time>2011-04-17T12:36:12Z</time>
</trkpt>
<trkpt lat="50.37146" lon="12.45624">
<ele>715</ele>
<time>2011-04-17T12:36:15Z</time>
</trkpt>
<trkpt lat="50.3715" lon="12.45616">
<ele>715</ele>
<time>2011-04-17T12:36:18Z</time>
</trkpt>
<trkpt lat="50.37154" lon="12.45611">
<ele>715</ele>
<time>2011-04-17T12:36:21Z</time>
</trkpt>
<trkpt lat="50.37156" lon="12.45602">
<ele>716</ele>
<time>2011-04-17T12:36:24Z</time>
</trkpt>
<trkpt lat="50.37158" lon="12.45595">
<ele>716</ele>
<time>2011-04-17T12:36:26Z</time>
</trkpt>
<trkpt lat="50.3716" lon="12.45586">
<ele>717</ele>
<time>2011-04-17T12:36:29Z</time>
</trkpt>
<trkpt lat="50.37162" lon="12.45579">
<ele>717</ele>
<time>2011-04-17T12:36:32Z</time>
</trkpt>
<trkpt lat="50.37164" lon="12.45572">
<ele>716</ele>
<time>2011-04-17T12:36:36Z</time>
</trkpt>
<trkpt lat="50.37164" lon="12.45564">
<ele>718</ele>
<time>2011-04-17T12:36:40Z</time>
</trkpt>
<trkpt lat="50.3717" lon="12.45559">
<ele>718</ele>
<time>2011-04-17T12:36:43Z</time>
</trkpt>
<trkpt lat="50.37173" lon="12.45552">
<ele>716</ele>
<time>2011-04-17T12:36:47Z</time>
</trkpt>
<trkpt lat="50.37178" lon="12.45543">
<ele>716</ele>
<time>2011-04-17T12:36:49Z</time>
</trkpt>
<trkpt lat="50.37183" lon="12.45535">
<ele>717</ele>
<time>2011-04-17T12:36:51Z</time>
</trkpt>
<trkpt lat="50.37186" lon="12.45529">
<ele>719</ele>
<time>2011-04-17T12:36:53Z</time>
</trkpt>
<trkpt lat="50.37191" lon="12.45523">
<ele>718</ele>
<time>2011-04-17T12:36:55Z</time>
</trkpt>
<trkpt lat="50.37196" lon="12.45518">
<ele>719</ele>
<time>2011-04-17T12:36:57Z</time>
</trkpt>
<trkpt lat="50.372" lon="12.4551">
<ele>718</ele>
<time>2011-04-17T12:36:59Z</time>
</trkpt>
<trkpt lat="50.37203" lon="12.45504">
<ele>718</ele>
<time>2011-04-17T12:37:01Z</time>
</trkpt>
<trkpt lat="50.37206" lon="12.45496">
<ele>718</ele>
<time>2011-04-17T12:37:04Z</time>
</trkpt>
<trkpt lat="50.37207" lon="12.45489">
<ele>719</ele>
<time>2011-04-17T12:37:06Z</time>
</trkpt>
<trkpt lat="50.37213" lon="12.4548">
<ele>719</ele>
<time>2011-04-17T12:37:09Z</time>
</trkpt>
<trkpt lat="50.37217" lon="12.45475">
<ele>719</ele>
<time>2011-04-17T12:37:11Z</time>
</trkpt>
<trkpt lat="50.37224" lon="12.45469">
<ele>718</ele>
<time>2011-04-17T12:37:14Z</time>
</trkpt>
<trkpt lat="50.37228" lon="12.45463">
<ele>718</ele>
<time>2011-04-17T12:37:16Z</time>
</trkpt>
<trkpt lat="50.37232" lon="12.45457">
<ele>718</ele>
<time>2011-04-17T12:37:18Z</time>
</trkpt>
<trkpt lat="50.37236" lon="12.45454">
<ele>718</ele>
<time>2011-04-17T12:37:20Z</time>
</trkpt>
<trkpt lat="50.37241" lon="12.45444">
<ele>718</ele>
<time>2011-04-17T12:37:22Z</time>
</trkpt>
<trkpt lat="50.37247" lon="12.45438">
<ele>717</ele>
<time>2011-04-17T12:37:24Z</time>
</trkpt>
<trkpt lat="50.37252" lon="12.45433">
<ele>717</ele>
<time>2011-04-17T12:37:26Z</time>
</trkpt>
<trkpt lat="50.37259" lon="12.45426">
<ele>716</ele>
<time>2011-04-17T12:37:28Z</time>
</trkpt>
<trkpt lat="50.37265" lon="12.45421">
<ele>717</ele>
<time>2011-04-17T12:37:30Z</time>
</trkpt>
<trkpt lat="50.37271" lon="12.45421">
<ele>712</ele>
<time>2011-04-17T12:37:31Z</time>
</trkpt>
<trkpt lat="50.37277" lon="12.45414">
<ele>712</ele>
<time>2011-04-17T12:37:33Z</time>
</trkpt>
<trkpt lat="50.37281" lon="12.45407">
<ele>712</ele>
<time>2011-04-17T12:37:35Z</time>
</trkpt>
<trkpt lat="50.37284" lon="12.45401">
<ele>713</ele>
<time>2011-04-17T12:37:37Z</time>
</trkpt>
<trkpt lat="50.3729" lon="12.45393">
<ele>713</ele>
<time>2011-04-17T12:37:40Z</time>
</trkpt>
<trkpt lat="50.37294" lon="12.45388">
<ele>714</ele>
<time>2011-04-17T12:37:42Z</time>
</trkpt>
<trkpt lat="50.37299" lon="12.45379">
<ele>712</ele>
<time>2011-04-17T12:37:45Z</time>
</trkpt>
<trkpt lat="50.37303" lon="12.45373">
<ele>712</ele>
<time>2011-04-17T12:37:47Z</time>
</trkpt>
<trkpt lat="50.37307" lon="12.45369">
<ele>712</ele>
<time>2011-04-17T12:37:49Z</time>
</trkpt>
<trkpt lat="50.37313" lon="12.45364">
<ele>711</ele>
<time>2011-04-17T12:37:52Z</time>
</trkpt>
<trkpt lat="50.3732" lon="12.45359">
<ele>710</ele>
<time>2011-04-17T12:37:54Z</time>
</trkpt>
<trkpt lat="50.37326" lon="12.45355">
<ele>711</ele>
<time>2011-04-17T12:37:56Z</time>
</trkpt>
<trkpt lat="50.37331" lon="12.45349">
<ele>711</ele>
<time>2011-04-17T12:37:58Z</time>
</trkpt>
<trkpt lat="50.37339" lon="12.45341">
<ele>710</ele>
<time>2011-04-17T12:38:00Z</time>
</trkpt>
<trkpt lat="50.37344" lon="12.45336">
<ele>709</ele>
<time>2011-04-17T12:38:02Z</time>
</trkpt>
<trkpt lat="50.37349" lon="12.45331">
<ele>709</ele>
<time>2011-04-17T12:38:04Z</time>
</trkpt>
<trkpt lat="50.37356" lon="12.45324">
<ele>710</ele>
<time>2011-04-17T12:38:06Z</time>
</trkpt>
<trkpt lat="50.37362" lon="12.45318">
<ele>710</ele>
<time>2011-04-17T12:38:08Z</time>
</trkpt>
<trkpt lat="50.3737" lon="12.45314">
<ele>711</ele>
<time>2011-04-17T12:38:10Z</time>
</trkpt>
<trkpt lat="50.37377" lon="12.45309">
<ele>712</ele>
<time>2011-04-17T12:38:12Z</time>
</trkpt>
<trkpt lat="50.37384" lon="12.45302">
<ele>712</ele>
<time>2011-04-17T12:38:14Z</time>
</trkpt>
<trkpt lat="50.37389" lon="12.45294">
<ele>714</ele>
<time>2011-04-17T12:38:16Z</time>
</trkpt>
<trkpt lat="50.37393" lon="12.4529">
<ele>714</ele>
<time>2011-04-17T12:38:18Z</time>
</trkpt>
<trkpt lat="50.37397" lon="12.45285">
<ele>715</ele>
<time>2011-04-17T12:38:20Z</time>
</trkpt>
<trkpt lat="50.374" lon="12.4528">
<ele>716</ele>
<time>2011-04-17T12:38:22Z</time>
</trkpt>
<trkpt lat="50.37405" lon="12.45276">
<ele>718</ele>
<time>2011-04-17T12:38:24Z</time>
</trkpt>
<trkpt lat="50.37408" lon="12.45271">
<ele>719</ele>
<time>2011-04-17T12:38:26Z</time>
</trkpt>
<trkpt lat="50.3741" lon="12.45263">
<ele>722</ele>
<time>2011-04-17T12:38:29Z</time>
</trkpt>
<trkpt lat="50.37415" lon="12.45257">
<ele>724</ele>
<time>2011-04-17T12:38:31Z</time>
</trkpt>
<trkpt lat="50.37419" lon="12.45253">
<ele>726</ele>
<time>2011-04-17T12:38:33Z</time>
</trkpt>
<trkpt lat="50.37423" lon="12.4525">
<ele>727</ele>
<time>2011-04-17T12:38:35Z</time>
</trkpt>
<trkpt lat="50.37419" lon="12.45246">
<ele>732</ele>
<time>2011-04-17T12:38:48Z</time>
</trkpt>
<trkpt lat="50.37419" lon="12.45246">
<ele>732</ele>
<time>2011-04-17T12:38:48Z</time>
</trkpt>
<trkpt lat="50.37419" lon="12.45246">
<ele>732</ele>
<time>2011-04-17T12:38:50Z</time>
</trkpt>
<trkpt lat="50.3742" lon="12.45255">
<ele>732</ele>
<time>2011-04-17T12:39:04Z</time>
</trkpt>
<trkpt lat="50.37424" lon="12.45257">
<ele>732</ele>
<time>2011-04-17T12:39:06Z</time>
</trkpt>
<trkpt lat="50.3742" lon="12.45252">
<ele>736</ele>
<time>2011-04-17T12:39:24Z</time>
</trkpt>
<trkpt lat="50.37415" lon="12.45246">
<ele>738</ele>
<time>2011-04-17T12:39:28Z</time>
</trkpt>
<trkpt lat="50.37413" lon="12.45236">
<ele>744</ele>
<time>2011-04-17T12:39:30Z</time>
</trkpt>
<trkpt lat="50.37415" lon="12.45229">
<ele>749</ele>
<time>2011-04-17T12:39:34Z</time>
</trkpt>
<trkpt lat="50.3741" lon="12.45233">
<ele>748</ele>
<time>2011-04-17T12:39:42Z</time>
</trkpt>
<trkpt lat="50.37407" lon="12.45239">
<ele>747</ele>
<time>2011-04-17T12:39:44Z</time>
</trkpt>
<trkpt lat="50.37401" lon="12.45239">
<ele>746</ele>
<time>2011-04-17T12:39:46Z</time>
</trkpt>
<trkpt lat="50.37396" lon="12.4524">
<ele>745</ele>
<time>2011-04-17T12:39:48Z</time>
</trkpt>
<trkpt lat="50.3739" lon="12.45241">
<ele>744</ele>
<time>2011-04-17T12:39:50Z</time>
</trkpt>
<trkpt lat="50.37383" lon="12.45242">
<ele>741</ele>
<time>2011-04-17T12:39:52Z</time>
</trkpt>
<trkpt lat="50.37377" lon="12.4524">
<ele>741</ele>
<time>2011-04-17T12:39:54Z</time>
</trkpt>
<trkpt lat="50.37373" lon="12.45237">
<ele>740</ele>
<time>2011-04-17T12:39:56Z</time>
</trkpt>
<trkpt lat="50.37368" lon="12.45238">
<ele>737</ele>
<time>2011-04-17T12:39:58Z</time>
</trkpt>
<trkpt lat="50.3736" lon="12.45238">
<ele>736</ele>
<time>2011-04-17T12:40:00Z</time>
</trkpt>
<trkpt lat="50.37354" lon="12.4524">
<ele>735</ele>
<time>2011-04-17T12:40:02Z</time>
</trkpt>
<trkpt lat="50.37348" lon="12.45241">
<ele>735</ele>
<time>2011-04-17T12:40:04Z</time>
</trkpt>
<trkpt lat="50.37341" lon="12.45236">
<ele>735</ele>
<time>2011-04-17T12:40:06Z</time>
</trkpt>
<trkpt lat="50.37334" lon="12.45235">
<ele>736</ele>
<time>2011-04-17T12:40:08Z</time>
</trkpt>
<trkpt lat="50.3733" lon="12.45234">
<ele>735</ele>
<time>2011-04-17T12:40:10Z</time>
</trkpt>
<trkpt lat="50.37323" lon="12.45233">
<ele>735</ele>
<time>2011-04-17T12:40:12Z</time>
</trkpt>
<trkpt lat="50.37318" lon="12.45233">
<ele>735</ele>
<time>2011-04-17T12:40:14Z</time>
</trkpt>
<trkpt lat="50.37314" lon="12.45234">
<ele>732</ele>
<time>2011-04-17T12:40:16Z</time>
</trkpt>
<trkpt lat="50.37309" lon="12.45235">
<ele>731</ele>
<time>2011-04-17T12:40:18Z</time>
</trkpt>
<trkpt lat="50.37302" lon="12.45236">
<ele>729</ele>
<time>2011-04-17T12:40:20Z</time>
</trkpt>
<trkpt lat="50.37297" lon="12.45238">
<ele>727</ele>
<time>2011-04-17T12:40:22Z</time>
</trkpt>
<trkpt lat="50.3729" lon="12.45237">
<ele>726</ele>
<time>2011-04-17T12:40:24Z</time>
</trkpt>
<trkpt lat="50.37284" lon="12.45239">
<ele>723</ele>
<time>2011-04-17T12:40:26Z</time>
</trkpt>
<trkpt lat="50.37278" lon="12.45238">
<ele>722</ele>
<time>2011-04-17T12:40:28Z</time>
</trkpt>
<trkpt lat="50.3727" lon="12.45241">
<ele>722</ele>
<time>2011-04-17T12:40:31Z</time>
</trkpt>
<trkpt lat="50.37264" lon="12.45242">
<ele>721</ele>
<time>2011-04-17T12:40:33Z</time>
</trkpt>
<trkpt lat="50.37258" lon="12.45243">
<ele>719</ele>
<time>2011-04-17T12:40:34Z</time>
</trkpt>
<trkpt lat="50.37253" lon="12.45248">
<ele>718</ele>
<time>2011-04-17T12:40:37Z</time>
</trkpt>
<trkpt lat="50.37249" lon="12.45252">
<ele>716</ele>
<time>2011-04-17T12:40:41Z</time>
</trkpt>
<trkpt lat="50.37242" lon="12.45255">
<ele>716</ele>
<time>2011-04-17T12:40:43Z</time>
</trkpt>
<trkpt lat="50.37235" lon="12.45257">
<ele>715</ele>
<time>2011-04-17T12:40:45Z</time>
</trkpt>
<trkpt lat="50.37228" lon="12.45257">
<ele>714</ele>
<time>2011-04-17T12:40:47Z</time>
</trkpt>
<trkpt lat="50.37221" lon="12.4526">
<ele>714</ele>
<time>2011-04-17T12:40:49Z</time>
</trkpt>
<trkpt lat="50.37214" lon="12.45262">
<ele>713</ele>
<time>2011-04-17T12:40:51Z</time>
</trkpt>
<trkpt lat="50.37208" lon="12.45263">
<ele>711</ele>
<time>2011-04-17T12:40:53Z</time>
</trkpt>
<trkpt lat="50.372" lon="12.45263">
<ele>710</ele>
<time>2011-04-17T12:40:55Z</time>
</trkpt>
<trkpt lat="50.37194" lon="12.45265">
<ele>710</ele>
<time>2011-04-17T12:40:57Z</time>
</trkpt>
<trkpt lat="50.37188" lon="12.45266">
<ele>710</ele>
<time>2011-04-17T12:40:59Z</time>
</trkpt>
<trkpt lat="50.37181" lon="12.45266">
<ele>711</ele>
<time>2011-04-17T12:41:01Z</time>
</trkpt>
<trkpt lat="50.37175" lon="12.45268">
<ele>713</ele>
<time>2011-04-17T12:41:04Z</time>
</trkpt>
<trkpt lat="50.37168" lon="12.45265">
<ele>713</ele>
<time>2011-04-17T12:41:07Z</time>
</trkpt>
<trkpt lat="50.37163" lon="12.45263">
<ele>713</ele>
<time>2011-04-17T12:41:09Z</time>
</trkpt>
<trkpt lat="50.37158" lon="12.45263">
<ele>714</ele>
<time>2011-04-17T12:41:11Z</time>
</trkpt>
<trkpt lat="50.37151" lon="12.4526">
<ele>715</ele>
<time>2011-04-17T12:41:13Z</time>
</trkpt>
<trkpt lat="50.37144" lon="12.45263">
<ele>715</ele>
<time>2011-04-17T12:41:16Z</time>
</trkpt>
<trkpt lat="50.37139" lon="12.45262">
<ele>715</ele>
<time>2011-04-17T12:41:17Z</time>
</trkpt>
<trkpt lat="50.37132" lon="12.45264">
<ele>715</ele>
<time>2011-04-17T12:41:19Z</time>
</trkpt>
<trkpt lat="50.37126" lon="12.45262">
<ele>713</ele>
<time>2011-04-17T12:41:22Z</time>
</trkpt>
<trkpt lat="50.37119" lon="12.45262">
<ele>713</ele>
<time>2011-04-17T12:41:24Z</time>
</trkpt>
<trkpt lat="50.37113" lon="12.45262">
<ele>712</ele>
<time>2011-04-17T12:41:26Z</time>
</trkpt>
<trkpt lat="50.37104" lon="12.45264">
<ele>712</ele>
<time>2011-04-17T12:41:28Z</time>
</trkpt>
<trkpt lat="50.37096" lon="12.45266">
<ele>711</ele>
<time>2011-04-17T12:41:30Z</time>
</trkpt>
<trkpt lat="50.37088" lon="12.45269">
<ele>708</ele>
<time>2011-04-17T12:41:32Z</time>
</trkpt>
<trkpt lat="50.37082" lon="12.4527">
<ele>706</ele>
<time>2011-04-17T12:41:33Z</time>
</trkpt>
<trkpt lat="50.37075" lon="12.45271">
<ele>705</ele>
<time>2011-04-17T12:41:35Z</time>
</trkpt>
<trkpt lat="50.37069" lon="12.45272">
<ele>704</ele>
<time>2011-04-17T12:41:36Z</time>
</trkpt>
<trkpt lat="50.37062" lon="12.45275">
<ele>704</ele>
<time>2011-04-17T12:41:38Z</time>
</trkpt>
<trkpt lat="50.37054" lon="12.45278">
<ele>702</ele>
<time>2011-04-17T12:41:40Z</time>
</trkpt>
<trkpt lat="50.37049" lon="12.45281">
<ele>701</ele>
<time>2011-04-17T12:41:42Z</time>
</trkpt>
<trkpt lat="50.37043" lon="12.45285">
<ele>701</ele>
<time>2011-04-17T12:41:44Z</time>
</trkpt>
<trkpt lat="50.37038" lon="12.45287">
<ele>700</ele>
<time>2011-04-17T12:41:46Z</time>
</trkpt>
<trkpt lat="50.37031" lon="12.45287">
<ele>700</ele>
<time>2011-04-17T12:41:48Z</time>
</trkpt>
<trkpt lat="50.37025" lon="12.4529">
<ele>701</ele>
<time>2011-04-17T12:41:50Z</time>
</trkpt>
<trkpt lat="50.37021" lon="12.45292">
<ele>700</ele>
<time>2011-04-17T12:41:52Z</time>
</trkpt>
<trkpt lat="50.37016" lon="12.45297">
<ele>701</ele>
<time>2011-04-17T12:41:54Z</time>
</trkpt>
<trkpt lat="50.3701" lon="12.453">
<ele>701</ele>
<time>2011-04-17T12:41:56Z</time>
</trkpt>
<trkpt lat="50.37004" lon="12.45302">
<ele>700</ele>
<time>2011-04-17T12:41:58Z</time>
</trkpt>
<trkpt lat="50.36998" lon="12.45307">
<ele>699</ele>
<time>2011-04-17T12:42:00Z</time>
</trkpt>
<trkpt lat="50.36993" lon="12.45309">
<ele>699</ele>
<time>2011-04-17T12:42:02Z</time>
</trkpt>
<trkpt lat="50.36987" lon="12.45312">
<ele>699</ele>
<time>2011-04-17T12:42:05Z</time>
</trkpt>
<trkpt lat="50.36983" lon="12.45317">
<ele>700</ele>
<time>2011-04-17T12:42:08Z</time>
</trkpt>
<trkpt lat="50.3698" lon="12.45322">
<ele>700</ele>
<time>2011-04-17T12:42:10Z</time>
</trkpt>
<trkpt lat="50.36976" lon="12.45325">
<ele>700</ele>
<time>2011-04-17T12:42:12Z</time>
</trkpt>
<trkpt lat="50.36971" lon="12.45331">
<ele>701</ele>
<time>2011-04-17T12:42:14Z</time>
</trkpt>
<trkpt lat="50.36965" lon="12.45337">
<ele>701</ele>
<time>2011-04-17T12:42:16Z</time>
</trkpt>
<trkpt lat="50.36959" lon="12.45342">
<ele>702</ele>
<time>2011-04-17T12:42:18Z</time>
</trkpt>
<trkpt lat="50.36952" lon="12.4535">
<ele>701</ele>
<time>2011-04-17T12:42:20Z</time>
</trkpt>
<trkpt lat="50.36945" lon="12.45358">
<ele>700</ele>
<time>2011-04-17T12:42:22Z</time>
</trkpt>
<trkpt lat="50.36941" lon="12.45362">
<ele>701</ele>
<time>2011-04-17T12:42:23Z</time>
</trkpt>
<trkpt lat="50.36935" lon="12.45366">
<ele>699</ele>
<time>2011-04-17T12:42:25Z</time>
</trkpt>
<trkpt lat="50.36927" lon="12.45369">
<ele>698</ele>
<time>2011-04-17T12:42:27Z</time>
</trkpt>
<trkpt lat="50.36921" lon="12.45374">
<ele>698</ele>
<time>2011-04-17T12:42:29Z</time>
</trkpt>
<trkpt lat="50.36914" lon="12.4538">
<ele>699</ele>
<time>2011-04-17T12:42:31Z</time>
</trkpt>
<trkpt lat="50.36911" lon="12.45388">
<ele>700</ele>
<time>2011-04-17T12:42:33Z</time>
</trkpt>
<trkpt lat="50.36904" lon="12.45395">
<ele>700</ele>
<time>2011-04-17T12:42:35Z</time>
</trkpt>
<trkpt lat="50.36897" lon="12.45402">
<ele>701</ele>
<time>2011-04-17T12:42:37Z</time>
</trkpt>
<trkpt lat="50.36892" lon="12.45407">
<ele>701</ele>
<time>2011-04-17T12:42:39Z</time>
</trkpt>
<trkpt lat="50.36888" lon="12.45416">
<ele>701</ele>
<time>2011-04-17T12:42:41Z</time>
</trkpt>
<trkpt lat="50.36884" lon="12.45421">
<ele>701</ele>
<time>2011-04-17T12:42:42Z</time>
</trkpt>
<trkpt lat="50.36878" lon="12.45428">
<ele>700</ele>
<time>2011-04-17T12:42:44Z</time>
</trkpt>
<trkpt lat="50.36872" lon="12.45434">
<ele>700</ele>
<time>2011-04-17T12:42:46Z</time>
</trkpt>
<trkpt lat="50.36868" lon="12.45438">
<ele>699</ele>
<time>2011-04-17T12:42:47Z</time>
</trkpt>
<trkpt lat="50.36861" lon="12.45444">
<ele>699</ele>
<time>2011-04-17T12:42:49Z</time>
</trkpt>
<trkpt lat="50.36857" lon="12.45446">
<ele>696</ele>
<time>2011-04-17T12:42:50Z</time>
</trkpt>
<trkpt lat="50.36852" lon="12.45448">
<ele>695</ele>
<time>2011-04-17T12:42:51Z</time>
</trkpt>
<trkpt lat="50.36847" lon="12.4545">
<ele>695</ele>
<time>2011-04-17T12:42:53Z</time>
</trkpt>
<trkpt lat="50.36841" lon="12.45455">
<ele>695</ele>
<time>2011-04-17T12:42:54Z</time>
</trkpt>
<trkpt lat="50.36837" lon="12.45457">
<ele>693</ele>
<time>2011-04-17T12:42:55Z</time>
</trkpt>
<trkpt lat="50.36832" lon="12.45458">
<ele>692</ele>
<time>2011-04-17T12:42:56Z</time>
</trkpt>
<trkpt lat="50.36827" lon="12.45461">
<ele>692</ele>
<time>2011-04-17T12:42:57Z</time>
</trkpt>
<trkpt lat="50.36822" lon="12.45466">
<ele>693</ele>
<time>2011-04-17T12:42:58Z</time>
</trkpt>
<trkpt lat="50.36817" lon="12.45468">
<ele>690</ele>
<time>2011-04-17T12:42:59Z</time>
</trkpt>
<trkpt lat="50.36812" lon="12.45472">
<ele>687</ele>
<time>2011-04-17T12:43:01Z</time>
</trkpt>
<trkpt lat="50.36806" lon="12.45474">
<ele>682</ele>
<time>2011-04-17T12:43:04Z</time>
</trkpt>
<trkpt lat="50.36802" lon="12.45478">
<ele>680</ele>
<time>2011-04-17T12:43:06Z</time>
</trkpt>
<trkpt lat="50.36797" lon="12.45485">
<ele>680</ele>
<time>2011-04-17T12:43:08Z</time>
</trkpt>
<trkpt lat="50.36793" lon="12.45488">
<ele>680</ele>
<time>2011-04-17T12:43:10Z</time>
</trkpt>
<trkpt lat="50.36788" lon="12.45493">
<ele>680</ele>
<time>2011-04-17T12:43:12Z</time>
</trkpt>
<trkpt lat="50.36782" lon="12.45496">
<ele>680</ele>
<time>2011-04-17T12:43:15Z</time>
</trkpt>
<trkpt lat="50.36776" lon="12.45498">
<ele>679</ele>
<time>2011-04-17T12:43:17Z</time>
</trkpt>
<trkpt lat="50.3677" lon="12.45501">
<ele>678</ele>
<time>2011-04-17T12:43:19Z</time>
</trkpt>
<trkpt lat="50.36762" lon="12.45505">
<ele>677</ele>
<time>2011-04-17T12:43:21Z</time>
</trkpt>
<trkpt lat="50.36754" lon="12.45509">
<ele>676</ele>
<time>2011-04-17T12:43:23Z</time>
</trkpt>
<trkpt lat="50.36751" lon="12.45514">
<ele>676</ele>
<time>2011-04-17T12:43:24Z</time>
</trkpt>
<trkpt lat="50.36746" lon="12.45517">
<ele>676</ele>
<time>2011-04-17T12:43:25Z</time>
</trkpt>
<trkpt lat="50.36739" lon="12.4552">
<ele>676</ele>
<time>2011-04-17T12:43:27Z</time>
</trkpt>
<trkpt lat="50.36731" lon="12.45524">
<ele>677</ele>
<time>2011-04-17T12:43:29Z</time>
</trkpt>
<trkpt lat="50.36723" lon="12.45523">
<ele>678</ele>
<time>2011-04-17T12:43:31Z</time>
</trkpt>
<trkpt lat="50.36717" lon="12.45524">
<ele>681</ele>
<time>2011-04-17T12:43:35Z</time>
</trkpt>
<trkpt lat="50.36719" lon="12.45531">
<ele>693</ele>
<time>2011-04-17T12:45:09Z</time>
</trkpt>
<trkpt lat="50.36716" lon="12.45536">
<ele>693</ele>
<time>2011-04-17T12:45:20Z</time>
</trkpt>
<trkpt lat="50.3671" lon="12.45538">
<ele>694</ele>
<time>2011-04-17T12:46:27Z</time>
</trkpt>
<trkpt lat="50.36706" lon="12.45539">
<ele>693</ele>
<time>2011-04-17T12:46:29Z</time>
</trkpt>
<trkpt lat="50.367" lon="12.4554">
<ele>691</ele>
<time>2011-04-17T12:46:33Z</time>
</trkpt>
<trkpt lat="50.36696" lon="12.45543">
<ele>693</ele>
<time>2011-04-17T12:46:35Z</time>
</trkpt>
<trkpt lat="50.36689" lon="12.45546">
<ele>695</ele>
<time>2011-04-17T12:46:38Z</time>
</trkpt>
<trkpt lat="50.36682" lon="12.4555">
<ele>697</ele>
<time>2011-04-17T12:46:41Z</time>
</trkpt>
<trkpt lat="50.36677" lon="12.45549">
<ele>698</ele>
<time>2011-04-17T12:46:42Z</time>
</trkpt>
<trkpt lat="50.3667" lon="12.45549">
<ele>701</ele>
<time>2011-04-17T12:46:44Z</time>
</trkpt>
<trkpt lat="50.36663" lon="12.4555">
<ele>701</ele>
<time>2011-04-17T12:46:46Z</time>
</trkpt>
<trkpt lat="50.36656" lon="12.4555">
<ele>699</ele>
<time>2011-04-17T12:46:48Z</time>
</trkpt>
<trkpt lat="50.3665" lon="12.45552">
<ele>697</ele>
<time>2011-04-17T12:46:50Z</time>
</trkpt>
<trkpt lat="50.36642" lon="12.45553">
<ele>694</ele>
<time>2011-04-17T12:46:52Z</time>
</trkpt>
<trkpt lat="50.36637" lon="12.45553">
<ele>694</ele>
<time>2011-04-17T12:46:54Z</time>
</trkpt>
<trkpt lat="50.36631" lon="12.45554">
<ele>692</ele>
<time>2011-04-17T12:46:58Z</time>
</trkpt>
<trkpt lat="50.36625" lon="12.45552">
<ele>691</ele>
<time>2011-04-17T12:47:01Z</time>
</trkpt>
<trkpt lat="50.3662" lon="12.4555">
<ele>691</ele>
<time>2011-04-17T12:47:03Z</time>
</trkpt>
<trkpt lat="50.36615" lon="12.4555">
<ele>691</ele>
<time>2011-04-17T12:47:05Z</time>
</trkpt>
<trkpt lat="50.36607" lon="12.45549">
<ele>689</ele>
<time>2011-04-17T12:47:08Z</time>
</trkpt>
<trkpt lat="50.36602" lon="12.45549">
<ele>689</ele>
<time>2011-04-17T12:47:09Z</time>
</trkpt>
<trkpt lat="50.36592" lon="12.45552">
<ele>686</ele>
<time>2011-04-17T12:47:11Z</time>
</trkpt>
<trkpt lat="50.36584" lon="12.45554">
<ele>684</ele>
<time>2011-04-17T12:47:13Z</time>
</trkpt>
<trkpt lat="50.36577" lon="12.45555">
<ele>683</ele>
<time>2011-04-17T12:47:15Z</time>
</trkpt>
<trkpt lat="50.3657" lon="12.45555">
<ele>683</ele>
<time>2011-04-17T12:47:17Z</time>
</trkpt>
<trkpt lat="50.36564" lon="12.45556">
<ele>682</ele>
<time>2011-04-17T12:47:19Z</time>
</trkpt>
<trkpt lat="50.36558" lon="12.4556">
<ele>681</ele>
<time>2011-04-17T12:47:22Z</time>
</trkpt>
<trkpt lat="50.36552" lon="12.45564">
<ele>681</ele>
<time>2011-04-17T12:47:24Z</time>
</trkpt>
<trkpt lat="50.36547" lon="12.45565">
<ele>681</ele>
<time>2011-04-17T12:47:26Z</time>
</trkpt>
<trkpt lat="50.36542" lon="12.45567">
<ele>681</ele>
<time>2011-04-17T12:47:28Z</time>
</trkpt>
<trkpt lat="50.36536" lon="12.45567">
<ele>680</ele>
<time>2011-04-17T12:47:30Z</time>
</trkpt>
<trkpt lat="50.36532" lon="12.4557">
<ele>679</ele>
<time>2011-04-17T12:47:32Z</time>
</trkpt>
<trkpt lat="50.36527" lon="12.45573">
<ele>680</ele>
<time>2011-04-17T12:47:35Z</time>
</trkpt>
<trkpt lat="50.36523" lon="12.45577">
<ele>682</ele>
<time>2011-04-17T12:47:37Z</time>
</trkpt>
<trkpt lat="50.36517" lon="12.4558">
<ele>679</ele>
<time>2011-04-17T12:47:41Z</time>
</trkpt>
<trkpt lat="50.36511" lon="12.45584">
<ele>680</ele>
<time>2011-04-17T12:47:44Z</time>
</trkpt>
<trkpt lat="50.36505" lon="12.45587">
<ele>680</ele>
<time>2011-04-17T12:47:47Z</time>
</trkpt>
<trkpt lat="50.365" lon="12.4559">
<ele>680</ele>
<time>2011-04-17T12:47:50Z</time>
</trkpt>
<trkpt lat="50.36495" lon="12.45593">
<ele>680</ele>
<time>2011-04-17T12:47:53Z</time>
</trkpt>
<trkpt lat="50.36489" lon="12.45597">
<ele>680</ele>
<time>2011-04-17T12:47:56Z</time>
</trkpt>
<trkpt lat="50.36483" lon="12.45601">
<ele>677</ele>
<time>2011-04-17T12:47:58Z</time>
</trkpt>
<trkpt lat="50.36477" lon="12.45603">
<ele>678</ele>
<time>2011-04-17T12:48:00Z</time>
</trkpt>
<trkpt lat="50.36471" lon="12.45603">
<ele>679</ele>
<time>2011-04-17T12:48:02Z</time>
</trkpt>
<trkpt lat="50.36466" lon="12.45604">
<ele>680</ele>
<time>2011-04-17T12:48:04Z</time>
</trkpt>
<trkpt lat="50.36458" lon="12.45604">
<ele>679</ele>
<time>2011-04-17T12:48:06Z</time>
</trkpt>
<trkpt lat="50.36452" lon="12.45606">
<ele>679</ele>
<time>2011-04-17T12:48:08Z</time>
</trkpt>
<trkpt lat="50.36447" lon="12.45611">
<ele>678</ele>
<time>2011-04-17T12:48:10Z</time>
</trkpt>
<trkpt lat="50.36442" lon="12.45618">
<ele>677</ele>
<time>2011-04-17T12:48:12Z</time>
</trkpt>
<trkpt lat="50.36438" lon="12.45624">
<ele>676</ele>
<time>2011-04-17T12:48:14Z</time>
</trkpt>
<trkpt lat="50.36433" lon="12.45632">
<ele>675</ele>
<time>2011-04-17T12:48:16Z</time>
</trkpt>
<trkpt lat="50.36429" lon="12.45639">
<ele>675</ele>
<time>2011-04-17T12:48:18Z</time>
</trkpt>
<trkpt lat="50.36427" lon="12.45647">
<ele>673</ele>
<time>2011-04-17T12:48:20Z</time>
</trkpt>
<trkpt lat="50.36421" lon="12.45653">
<ele>669</ele>
<time>2011-04-17T12:48:22Z</time>
</trkpt>
<trkpt lat="50.36416" lon="12.4566">
<ele>668</ele>
<time>2011-04-17T12:48:24Z</time>
</trkpt>
<trkpt lat="50.36411" lon="12.45666">
<ele>668</ele>
<time>2011-04-17T12:48:26Z</time>
</trkpt>
<trkpt lat="50.36406" lon="12.45673">
<ele>667</ele>
<time>2011-04-17T12:48:28Z</time>
</trkpt>
<trkpt lat="50.36402" lon="12.45682">
<ele>666</ele>
<time>2011-04-17T12:48:30Z</time>
</trkpt>
<trkpt lat="50.36397" lon="12.4569">
<ele>665</ele>
<time>2011-04-17T12:48:32Z</time>
</trkpt>
<trkpt lat="50.36394" lon="12.45697">
<ele>665</ele>
<time>2011-04-17T12:48:33Z</time>
</trkpt>
<trkpt lat="50.36392" lon="12.45703">
<ele>664</ele>
<time>2011-04-17T12:48:34Z</time>
</trkpt>
<trkpt lat="50.36386" lon="12.45712">
<ele>663</ele>
<time>2011-04-17T12:48:36Z</time>
</trkpt>
<trkpt lat="50.36381" lon="12.45722">
<ele>662</ele>
<time>2011-04-17T12:48:38Z</time>
</trkpt>
<trkpt lat="50.36374" lon="12.45732">
<ele>660</ele>
<time>2011-04-17T12:48:40Z</time>
</trkpt>
<trkpt lat="50.36368" lon="12.4574">
<ele>659</ele>
<time>2011-04-17T12:48:42Z</time>
</trkpt>
<trkpt lat="50.36361" lon="12.45746">
<ele>657</ele>
<time>2011-04-17T12:48:44Z</time>
</trkpt>
<trkpt lat="50.36353" lon="12.45749">
<ele>656</ele>
<time>2011-04-17T12:48:46Z</time>
</trkpt>
<trkpt lat="50.36346" lon="12.4575">
<ele>655</ele>
<time>2011-04-17T12:48:48Z</time>
</trkpt>
<trkpt lat="50.36339" lon="12.45751">
<ele>656</ele>
<time>2011-04-17T12:48:50Z</time>
</trkpt>
<trkpt lat="50.36332" lon="12.45755">
<ele>655</ele>
<time>2011-04-17T12:48:52Z</time>
</trkpt>
<trkpt lat="50.36327" lon="12.45756">
<ele>655</ele>
<time>2011-04-17T12:48:53Z</time>
</trkpt>
<trkpt lat="50.36319" lon="12.45759">
<ele>655</ele>
<time>2011-04-17T12:48:55Z</time>
</trkpt>
<trkpt lat="50.36315" lon="12.45763">
<ele>655</ele>
<time>2011-04-17T12:48:56Z</time>
</trkpt>
<trkpt lat="50.36311" lon="12.45766">
<ele>655</ele>
<time>2011-04-17T12:48:57Z</time>
</trkpt>
<trkpt lat="50.36306" lon="12.45767">
<ele>655</ele>
<time>2011-04-17T12:48:58Z</time>
</trkpt>
<trkpt lat="50.363" lon="12.45774">
<ele>655</ele>
<time>2011-04-17T12:48:59Z</time>
</trkpt>
<trkpt lat="50.36295" lon="12.45778">
<ele>655</ele>
<time>2011-04-17T12:49:00Z</time>
</trkpt>
<trkpt lat="50.36287" lon="12.45785">
<ele>654</ele>
<time>2011-04-17T12:49:02Z</time>
</trkpt>
<trkpt lat="50.36279" lon="12.4579">
<ele>653</ele>
<time>2011-04-17T12:49:04Z</time>
</trkpt>
<trkpt lat="50.36272" lon="12.45797">
<ele>652</ele>
<time>2011-04-17T12:49:06Z</time>
</trkpt>
<trkpt lat="50.36268" lon="12.458">
<ele>651</ele>
<time>2011-04-17T12:49:07Z</time>
</trkpt>
<trkpt lat="50.36264" lon="12.45802">
<ele>652</ele>
<time>2011-04-17T12:49:08Z</time>
</trkpt>
<trkpt lat="50.36257" lon="12.45803">
<ele>650</ele>
<time>2011-04-17T12:49:10Z</time>
</trkpt>
<trkpt lat="50.36249" lon="12.45804">
<ele>650</ele>
<time>2011-04-17T12:49:12Z</time>
</trkpt>
<trkpt lat="50.36244" lon="12.45804">
<ele>648</ele>
<time>2011-04-17T12:49:13Z</time>
</trkpt>
<trkpt lat="50.36238" lon="12.45803">
<ele>648</ele>
<time>2011-04-17T12:49:14Z</time>
</trkpt>
<trkpt lat="50.36233" lon="12.45803">
<ele>647</ele>
<time>2011-04-17T12:49:15Z</time>
</trkpt>
<trkpt lat="50.36226" lon="12.45801">
<ele>646</ele>
<time>2011-04-17T12:49:17Z</time>
</trkpt>
<trkpt lat="50.36218" lon="12.458">
<ele>645</ele>
<time>2011-04-17T12:49:19Z</time>
</trkpt>
<trkpt lat="50.36211" lon="12.45798">
<ele>644</ele>
<time>2011-04-17T12:49:21Z</time>
</trkpt>
<trkpt lat="50.36206" lon="12.45792">
<ele>645</ele>
<time>2011-04-17T12:49:23Z</time>
</trkpt>
<trkpt lat="50.36201" lon="12.4579">
<ele>641</ele>
<time>2011-04-17T12:49:32Z</time>
</trkpt>
<trkpt lat="50.36197" lon="12.45794">
<ele>641</ele>
<time>2011-04-17T12:49:37Z</time>
</trkpt>
<trkpt lat="50.36197" lon="12.45803">
<ele>640</ele>
<time>2011-04-17T12:49:41Z</time>
</trkpt>
<trkpt lat="50.36191" lon="12.45811">
<ele>639</ele>
<time>2011-04-17T12:49:43Z</time>
</trkpt>
<trkpt lat="50.36186" lon="12.45817">
<ele>638</ele>
<time>2011-04-17T12:49:45Z</time>
</trkpt>
<trkpt lat="50.36182" lon="12.45822">
<ele>638</ele>
<time>2011-04-17T12:49:47Z</time>
</trkpt>
<trkpt lat="50.36179" lon="12.45831">
<ele>638</ele>
<time>2011-04-17T12:49:49Z</time>
</trkpt>
<trkpt lat="50.36175" lon="12.45838">
<ele>638</ele>
<time>2011-04-17T12:49:52Z</time>
</trkpt>
<trkpt lat="50.36171" lon="12.45847">
<ele>637</ele>
<time>2011-04-17T12:49:54Z</time>
</trkpt>
<trkpt lat="50.36168" lon="12.45858">
<ele>636</ele>
<time>2011-04-17T12:49:56Z</time>
</trkpt>
<trkpt lat="50.36167" lon="12.45869">
<ele>636</ele>
<time>2011-04-17T12:49:58Z</time>
</trkpt>
<trkpt lat="50.36166" lon="12.45881">
<ele>635</ele>
<time>2011-04-17T12:50:00Z</time>
</trkpt>
<trkpt lat="50.36166" lon="12.45892">
<ele>634</ele>
<time>2011-04-17T12:50:02Z</time>
</trkpt>
<trkpt lat="50.36167" lon="12.45903">
<ele>633</ele>
<time>2011-04-17T12:50:04Z</time>
</trkpt>
<trkpt lat="50.36168" lon="12.4591">
<ele>631</ele>
<time>2011-04-17T12:50:05Z</time>
</trkpt>
<trkpt lat="50.36168" lon="12.45917">
<ele>631</ele>
<time>2011-04-17T12:50:06Z</time>
</trkpt>
<trkpt lat="50.3617" lon="12.45924">
<ele>629</ele>
<time>2011-04-17T12:50:07Z</time>
</trkpt>
<trkpt lat="50.36169" lon="12.45932">
<ele>629</ele>
<time>2011-04-17T12:50:08Z</time>
</trkpt>
<trkpt lat="50.3617" lon="12.45939">
<ele>628</ele>
<time>2011-04-17T12:50:09Z</time>
</trkpt>
<trkpt lat="50.36169" lon="12.45946">
<ele>627</ele>
<time>2011-04-17T12:50:10Z</time>
</trkpt>
<trkpt lat="50.36167" lon="12.45952">
<ele>627</ele>
<time>2011-04-17T12:50:11Z</time>
</trkpt>
<trkpt lat="50.36164" lon="12.45962">
<ele>626</ele>
<time>2011-04-17T12:50:13Z</time>
</trkpt>
<trkpt lat="50.36158" lon="12.45971">
<ele>625</ele>
<time>2011-04-17T12:50:15Z</time>
</trkpt>
<trkpt lat="50.36154" lon="12.45974">
<ele>625</ele>
<time>2011-04-17T12:50:16Z</time>
</trkpt>
<trkpt lat="50.36148" lon="12.45972">
<ele>625</ele>
<time>2011-04-17T12:50:17Z</time>
</trkpt>
<trkpt lat="50.36142" lon="12.45972">
<ele>624</ele>
<time>2011-04-17T12:50:18Z</time>
</trkpt>
<trkpt lat="50.36134" lon="12.45972">
<ele>624</ele>
<time>2011-04-17T12:50:20Z</time>
</trkpt>
<trkpt lat="50.36123" lon="12.45968">
<ele>625</ele>
<time>2011-04-17T12:50:22Z</time>
</trkpt>
<trkpt lat="50.36114" lon="12.45968">
<ele>625</ele>
<time>2011-04-17T12:50:23Z</time>
</trkpt>
<trkpt lat="50.36109" lon="12.45966">
<ele>625</ele>
<time>2011-04-17T12:50:24Z</time>
</trkpt>
<trkpt lat="50.361" lon="12.45964">
<ele>624</ele>
<time>2011-04-17T12:50:25Z</time>
</trkpt>
<trkpt lat="50.36093" lon="12.45962">
<ele>624</ele>
<time>2011-04-17T12:50:26Z</time>
</trkpt>
<trkpt lat="50.36086" lon="12.4596">
<ele>624</ele>
<time>2011-04-17T12:50:27Z</time>
</trkpt>
<trkpt lat="50.36079" lon="12.45955">
<ele>625</ele>
<time>2011-04-17T12:50:28Z</time>
</trkpt>
<trkpt lat="50.3607" lon="12.45952">
<ele>624</ele>
<time>2011-04-17T12:50:29Z</time>
</trkpt>
<trkpt lat="50.36061" lon="12.4595">
<ele>625</ele>
<time>2011-04-17T12:50:30Z</time>
</trkpt>
<trkpt lat="50.36053" lon="12.45947">
<ele>625</ele>
<time>2011-04-17T12:50:31Z</time>
</trkpt>
<trkpt lat="50.36047" lon="12.45941">
<ele>626</ele>
<time>2011-04-17T12:50:32Z</time>
</trkpt>
<trkpt lat="50.36039" lon="12.45935">
<ele>626</ele>
<time>2011-04-17T12:50:33Z</time>
</trkpt>
<trkpt lat="50.36033" lon="12.45931">
<ele>625</ele>
<time>2011-04-17T12:50:34Z</time>
</trkpt>
<trkpt lat="50.36028" lon="12.45925">
<ele>625</ele>
<time>2011-04-17T12:50:35Z</time>
</trkpt>
<trkpt lat="50.36024" lon="12.4592">
<ele>625</ele>
<time>2011-04-17T12:50:36Z</time>
</trkpt>
<trkpt lat="50.36018" lon="12.45916">
<ele>625</ele>
<time>2011-04-17T12:50:37Z</time>
</trkpt>
<trkpt lat="50.36014" lon="12.45912">
<ele>626</ele>
<time>2011-04-17T12:50:38Z</time>
</trkpt>
<trkpt lat="50.36007" lon="12.45908">
<ele>626</ele>
<time>2011-04-17T12:50:39Z</time>
</trkpt>
<trkpt lat="50.36002" lon="12.45904">
<ele>626</ele>
<time>2011-04-17T12:50:40Z</time>
</trkpt>
<trkpt lat="50.35996" lon="12.45902">
<ele>626</ele>
<time>2011-04-17T12:50:41Z</time>
</trkpt>
<trkpt lat="50.35992" lon="12.45897">
<ele>625</ele>
<time>2011-04-17T12:50:42Z</time>
</trkpt>
<trkpt lat="50.35987" lon="12.45892">
<ele>625</ele>
<time>2011-04-17T12:50:43Z</time>
</trkpt>
<trkpt lat="50.35977" lon="12.45887">
<ele>625</ele>
<time>2011-04-17T12:50:45Z</time>
</trkpt>
<trkpt lat="50.35971" lon="12.45882">
<ele>625</ele>
<time>2011-04-17T12:50:46Z</time>
</trkpt>
<trkpt lat="50.35966" lon="12.45878">
<ele>624</ele>
<time>2011-04-17T12:50:47Z</time>
</trkpt>
<trkpt lat="50.35962" lon="12.45874">
<ele>624</ele>
<time>2011-04-17T12:50:48Z</time>
</trkpt>
<trkpt lat="50.35956" lon="12.45872">
<ele>624</ele>
<time>2011-04-17T12:50:49Z</time>
</trkpt>
<trkpt lat="50.3595" lon="12.45867">
<ele>623</ele>
<time>2011-04-17T12:50:50Z</time>
</trkpt>
<trkpt lat="50.35945" lon="12.45864">
<ele>623</ele>
<time>2011-04-17T12:50:51Z</time>
</trkpt>
<trkpt lat="50.35939" lon="12.45859">
<ele>622</ele>
<time>2011-04-17T12:50:52Z</time>
</trkpt>
<trkpt lat="50.35933" lon="12.45856">
<ele>622</ele>
<time>2011-04-17T12:50:53Z</time>
</trkpt>
<trkpt lat="50.35927" lon="12.45852">
<ele>622</ele>
<time>2011-04-17T12:50:54Z</time>
</trkpt>
<trkpt lat="50.35923" lon="12.45849">
<ele>622</ele>
<time>2011-04-17T12:50:55Z</time>
</trkpt>
<trkpt lat="50.35918" lon="12.45845">
<ele>622</ele>
<time>2011-04-17T12:50:56Z</time>
</trkpt>
<trkpt lat="50.3591" lon="12.45838">
<ele>621</ele>
<time>2011-04-17T12:50:58Z</time>
</trkpt>
<trkpt lat="50.35905" lon="12.45833">
<ele>621</ele>
<time>2011-04-17T12:50:59Z</time>
</trkpt>
<trkpt lat="50.359" lon="12.45829">
<ele>620</ele>
<time>2011-04-17T12:51:00Z</time>
</trkpt>
<trkpt lat="50.35895" lon="12.45825">
<ele>619</ele>
<time>2011-04-17T12:51:01Z</time>
</trkpt>
<trkpt lat="50.3589" lon="12.45823">
<ele>619</ele>
<time>2011-04-17T12:51:02Z</time>
</trkpt>
<trkpt lat="50.35886" lon="12.4582">
<ele>618</ele>
<time>2011-04-17T12:51:03Z</time>
</trkpt>
<trkpt lat="50.35882" lon="12.45816">
<ele>618</ele>
<time>2011-04-17T12:51:04Z</time>
</trkpt>
<trkpt lat="50.35874" lon="12.4581">
<ele>617</ele>
<time>2011-04-17T12:51:06Z</time>
</trkpt>
<trkpt lat="50.35867" lon="12.45806">
<ele>618</ele>
<time>2011-04-17T12:51:08Z</time>
</trkpt>
<trkpt lat="50.35859" lon="12.45804">
<ele>619</ele>
<time>2011-04-17T12:51:10Z</time>
</trkpt>
<trkpt lat="50.35854" lon="12.45804">
<ele>619</ele>
<time>2011-04-17T12:51:11Z</time>
</trkpt>
<trkpt lat="50.35848" lon="12.45797">
<ele>620</ele>
<time>2011-04-17T12:51:14Z</time>
</trkpt>
<trkpt lat="50.35844" lon="12.45792">
<ele>618</ele>
<time>2011-04-17T12:51:16Z</time>
</trkpt>
<trkpt lat="50.3584" lon="12.45795">
<ele>618</ele>
<time>2011-04-17T12:51:20Z</time>
</trkpt>
<trkpt lat="50.35836" lon="12.458">
<ele>618</ele>
<time>2011-04-17T12:51:42Z</time>
</trkpt>
<trkpt lat="50.35831" lon="12.45801">
<ele>617</ele>
<time>2011-04-17T12:51:45Z</time>
</trkpt>
<trkpt lat="50.35826" lon="12.45797">
<ele>619</ele>
<time>2011-04-17T12:51:48Z</time>
</trkpt>
<trkpt lat="50.35821" lon="12.45785">
<ele>618</ele>
<time>2011-04-17T12:51:49Z</time>
</trkpt>
<trkpt lat="50.35818" lon="12.45773">
<ele>618</ele>
<time>2011-04-17T12:51:51Z</time>
</trkpt>
<trkpt lat="50.35817" lon="12.45763">
<ele>618</ele>
<time>2011-04-17T12:51:53Z</time>
</trkpt>
<trkpt lat="50.35816" lon="12.45756">
<ele>618</ele>
<time>2011-04-17T12:51:55Z</time>
</trkpt>
<trkpt lat="50.35816" lon="12.45748">
<ele>618</ele>
<time>2011-04-17T12:51:57Z</time>
</trkpt>
<trkpt lat="50.35814" lon="12.45738">
<ele>616</ele>
<time>2011-04-17T12:52:00Z</time>
</trkpt>
<trkpt lat="50.35814" lon="12.45728">
<ele>615</ele>
<time>2011-04-17T12:52:03Z</time>
</trkpt>
<trkpt lat="50.35814" lon="12.45718">
<ele>614</ele>
<time>2011-04-17T12:52:06Z</time>
</trkpt>
<trkpt lat="50.35814" lon="12.45709">
<ele>615</ele>
<time>2011-04-17T12:52:09Z</time>
</trkpt>
<trkpt lat="50.35811" lon="12.45703">
<ele>614</ele>
<time>2011-04-17T12:52:11Z</time>
</trkpt>
<trkpt lat="50.3581" lon="12.45694">
<ele>613</ele>
<time>2011-04-17T12:52:14Z</time>
</trkpt>
<trkpt lat="50.35808" lon="12.45682">
<ele>616</ele>
<time>2011-04-17T12:52:18Z</time>
</trkpt>
<trkpt lat="50.35806" lon="12.45672">
<ele>617</ele>
<time>2011-04-17T12:52:20Z</time>
</trkpt>
<trkpt lat="50.35806" lon="12.45663">
<ele>617</ele>
<time>2011-04-17T12:52:24Z</time>
</trkpt>
<trkpt lat="50.35811" lon="12.45658">
<ele>616</ele>
<time>2011-04-17T12:52:27Z</time>
</trkpt>
<trkpt lat="50.35811" lon="12.45649">
<ele>615</ele>
<time>2011-04-17T12:52:31Z</time>
</trkpt>
<trkpt lat="50.35812" lon="12.45641">
<ele>614</ele>
<time>2011-04-17T12:52:35Z</time>
</trkpt>
<trkpt lat="50.35811" lon="12.45633">
<ele>615</ele>
<time>2011-04-17T12:52:38Z</time>
</trkpt>
<trkpt lat="50.35811" lon="12.45625">
<ele>615</ele>
<time>2011-04-17T12:52:41Z</time>
</trkpt>
<trkpt lat="50.35808" lon="12.45618">
<ele>615</ele>
<time>2011-04-17T12:52:43Z</time>
</trkpt>
<trkpt lat="50.35806" lon="12.4561">
<ele>615</ele>
<time>2011-04-17T12:52:45Z</time>
</trkpt>
<trkpt lat="50.35803" lon="12.45602">
<ele>614</ele>
<time>2011-04-17T12:52:47Z</time>
</trkpt>
<trkpt lat="50.358" lon="12.45594">
<ele>615</ele>
<time>2011-04-17T12:52:49Z</time>
</trkpt>
<trkpt lat="50.35797" lon="12.45586">
<ele>614</ele>
<time>2011-04-17T12:52:51Z</time>
</trkpt>
<trkpt lat="50.35794" lon="12.45576">
<ele>614</ele>
<time>2011-04-17T12:52:53Z</time>
</trkpt>
<trkpt lat="50.35791" lon="12.45567">
<ele>614</ele>
<time>2011-04-17T12:52:55Z</time>
</trkpt>
<trkpt lat="50.35787" lon="12.45556">
<ele>614</ele>
<time>2011-04-17T12:52:57Z</time>
</trkpt>
<trkpt lat="50.35785" lon="12.45544">
<ele>614</ele>
<time>2011-04-17T12:52:59Z</time>
</trkpt>
<trkpt lat="50.35782" lon="12.45531">
<ele>613</ele>
<time>2011-04-17T12:53:01Z</time>
</trkpt>
<trkpt lat="50.35779" lon="12.45517">
<ele>613</ele>
<time>2011-04-17T12:53:03Z</time>
</trkpt>
<trkpt lat="50.35778" lon="12.4551">
<ele>613</ele>
<time>2011-04-17T12:53:04Z</time>
</trkpt>
<trkpt lat="50.35777" lon="12.45502">
<ele>612</ele>
<time>2011-04-17T12:53:05Z</time>
</trkpt>
<trkpt lat="50.35775" lon="12.45494">
<ele>612</ele>
<time>2011-04-17T12:53:06Z</time>
</trkpt>
<trkpt lat="50.35774" lon="12.45487">
<ele>612</ele>
<time>2011-04-17T12:53:07Z</time>
</trkpt>
<trkpt lat="50.35772" lon="12.45479">
<ele>612</ele>
<time>2011-04-17T12:53:08Z</time>
</trkpt>
<trkpt lat="50.35771" lon="12.45472">
<ele>612</ele>
<time>2011-04-17T12:53:09Z</time>
</trkpt>
<trkpt lat="50.35769" lon="12.45464">
<ele>612</ele>
<time>2011-04-17T12:53:10Z</time>
</trkpt>
<trkpt lat="50.35768" lon="12.45457">
<ele>611</ele>
<time>2011-04-17T12:53:11Z</time>
</trkpt>
<trkpt lat="50.35766" lon="12.45449">
<ele>610</ele>
<time>2011-04-17T12:53:12Z</time>
</trkpt>
<trkpt lat="50.35765" lon="12.45441">
<ele>610</ele>
<time>2011-04-17T12:53:13Z</time>
</trkpt>
<trkpt lat="50.35764" lon="12.45433">
<ele>610</ele>
<time>2011-04-17T12:53:14Z</time>
</trkpt>
<trkpt lat="50.35762" lon="12.45425">
<ele>610</ele>
<time>2011-04-17T12:53:15Z</time>
</trkpt>
<trkpt lat="50.35762" lon="12.45416">
<ele>610</ele>
<time>2011-04-17T12:53:16Z</time>
</trkpt>
<trkpt lat="50.3576" lon="12.45408">
<ele>611</ele>
<time>2011-04-17T12:53:17Z</time>
</trkpt>
<trkpt lat="50.35758" lon="12.45401">
<ele>610</ele>
<time>2011-04-17T12:53:18Z</time>
</trkpt>
<trkpt lat="50.35757" lon="12.45394">
<ele>610</ele>
<time>2011-04-17T12:53:19Z</time>
</trkpt>
<trkpt lat="50.35758" lon="12.45387">
<ele>610</ele>
<time>2011-04-17T12:53:20Z</time>
</trkpt>
<trkpt lat="50.35758" lon="12.45376">
<ele>610</ele>
<time>2011-04-17T12:53:22Z</time>
</trkpt>
<trkpt lat="50.35756" lon="12.45364">
<ele>610</ele>
<time>2011-04-17T12:53:24Z</time>
</trkpt>
<trkpt lat="50.35754" lon="12.45353">
<ele>611</ele>
<time>2011-04-17T12:53:26Z</time>
</trkpt>
<trkpt lat="50.35751" lon="12.45341">
<ele>610</ele>
<time>2011-04-17T12:53:28Z</time>
</trkpt>
<trkpt lat="50.35745" lon="12.45334">
<ele>610</ele>
<time>2011-04-17T12:53:30Z</time>
</trkpt>
<trkpt lat="50.35741" lon="12.45331">
<ele>609</ele>
<time>2011-04-17T12:53:31Z</time>
</trkpt>
<trkpt lat="50.35732" lon="12.4533">
<ele>609</ele>
<time>2011-04-17T12:53:33Z</time>
</trkpt>
<trkpt lat="50.35727" lon="12.45331">
<ele>610</ele>
<time>2011-04-17T12:53:34Z</time>
</trkpt>
<trkpt lat="50.35722" lon="12.45332">
<ele>610</ele>
<time>2011-04-17T12:53:35Z</time>
</trkpt>
<trkpt lat="50.35714" lon="12.45335">
<ele>609</ele>
<time>2011-04-17T12:53:37Z</time>
</trkpt>
<trkpt lat="50.35705" lon="12.45338">
<ele>609</ele>
<time>2011-04-17T12:53:39Z</time>
</trkpt>
<trkpt lat="50.35697" lon="12.45341">
<ele>608</ele>
<time>2011-04-17T12:53:41Z</time>
</trkpt>
<trkpt lat="50.35689" lon="12.45343">
<ele>608</ele>
<time>2011-04-17T12:53:43Z</time>
</trkpt>
<trkpt lat="50.35682" lon="12.45345">
<ele>608</ele>
<time>2011-04-17T12:53:45Z</time>
</trkpt>
<trkpt lat="50.35675" lon="12.45346">
<ele>607</ele>
<time>2011-04-17T12:53:47Z</time>
</trkpt>
<trkpt lat="50.35668" lon="12.45348">
<ele>607</ele>
<time>2011-04-17T12:53:49Z</time>
</trkpt>
<trkpt lat="50.35658" lon="12.45352">
<ele>607</ele>
<time>2011-04-17T12:53:51Z</time>
</trkpt>
<trkpt lat="50.35651" lon="12.45357">
<ele>607</ele>
<time>2011-04-17T12:53:53Z</time>
</trkpt>
<trkpt lat="50.35644" lon="12.45359">
<ele>606</ele>
<time>2011-04-17T12:53:55Z</time>
</trkpt>
<trkpt lat="50.35635" lon="12.45364">
<ele>606</ele>
<time>2011-04-17T12:53:57Z</time>
</trkpt>
<trkpt lat="50.35628" lon="12.45369">
<ele>606</ele>
<time>2011-04-17T12:53:59Z</time>
</trkpt>
<trkpt lat="50.3562" lon="12.45373">
<ele>605</ele>
<time>2011-04-17T12:54:01Z</time>
</trkpt>
<trkpt lat="50.35613" lon="12.45375">
<ele>605</ele>
<time>2011-04-17T12:54:03Z</time>
</trkpt>
<trkpt lat="50.35606" lon="12.4538">
<ele>605</ele>
<time>2011-04-17T12:54:05Z</time>
</trkpt>
<trkpt lat="50.356" lon="12.45381">
<ele>605</ele>
<time>2011-04-17T12:54:07Z</time>
</trkpt>
<trkpt lat="50.35595" lon="12.4538">
<ele>605</ele>
<time>2011-04-17T12:54:08Z</time>
</trkpt>
<trkpt lat="50.35588" lon="12.45379">
<ele>604</ele>
<time>2011-04-17T12:54:10Z</time>
</trkpt>
<trkpt lat="50.35584" lon="12.45376">
<ele>605</ele>
<time>2011-04-17T12:54:13Z</time>
</trkpt>
<trkpt lat="50.35585" lon="12.45385">
<ele>607</ele>
<time>2011-04-17T12:55:01Z</time>
</trkpt>
<trkpt lat="50.3558" lon="12.45383">
<ele>605</ele>
<time>2011-04-17T12:55:05Z</time>
</trkpt>
<trkpt lat="50.35576" lon="12.4538">
<ele>604</ele>
<time>2011-04-17T12:55:10Z</time>
</trkpt>
<trkpt lat="50.35575" lon="12.45369">
<ele>604</ele>
<time>2011-04-17T12:55:14Z</time>
</trkpt>
<trkpt lat="50.35574" lon="12.45359">
<ele>604</ele>
<time>2011-04-17T12:55:17Z</time>
</trkpt>
<trkpt lat="50.35573" lon="12.4535">
<ele>603</ele>
<time>2011-04-17T12:55:19Z</time>
</trkpt>
<trkpt lat="50.35572" lon="12.45342">
<ele>604</ele>
<time>2011-04-17T12:55:21Z</time>
</trkpt>
<trkpt lat="50.35571" lon="12.45334">
<ele>603</ele>
<time>2011-04-17T12:55:23Z</time>
</trkpt>
<trkpt lat="50.3557" lon="12.45326">
<ele>604</ele>
<time>2011-04-17T12:55:25Z</time>
</trkpt>
<trkpt lat="50.35569" lon="12.45316">
<ele>603</ele>
<time>2011-04-17T12:55:27Z</time>
</trkpt>
<trkpt lat="50.35568" lon="12.45307">
<ele>603</ele>
<time>2011-04-17T12:55:29Z</time>
</trkpt>
<trkpt lat="50.35567" lon="12.45299">
<ele>603</ele>
<time>2011-04-17T12:55:31Z</time>
</trkpt>
<trkpt lat="50.35566" lon="12.4529">
<ele>603</ele>
<time>2011-04-17T12:55:33Z</time>
</trkpt>
<trkpt lat="50.35565" lon="12.4528">
<ele>603</ele>
<time>2011-04-17T12:55:35Z</time>
</trkpt>
<trkpt lat="50.35563" lon="12.45271">
<ele>603</ele>
<time>2011-04-17T12:55:37Z</time>
</trkpt>
<trkpt lat="50.35562" lon="12.45262">
<ele>603</ele>
<time>2011-04-17T12:55:39Z</time>
</trkpt>
<trkpt lat="50.3556" lon="12.45254">
<ele>603</ele>
<time>2011-04-17T12:55:41Z</time>
</trkpt>
<trkpt lat="50.35559" lon="12.45244">
<ele>602</ele>
<time>2011-04-17T12:55:43Z</time>
</trkpt>
<trkpt lat="50.35558" lon="12.45235">
<ele>602</ele>
<time>2011-04-17T12:55:45Z</time>
</trkpt>
<trkpt lat="50.35557" lon="12.45227">
<ele>602</ele>
<time>2011-04-17T12:55:47Z</time>
</trkpt>
<trkpt lat="50.35556" lon="12.45214">
<ele>601</ele>
<time>2011-04-17T12:55:50Z</time>
</trkpt>
<trkpt lat="50.35557" lon="12.45207">
<ele>601</ele>
<time>2011-04-17T12:55:52Z</time>
</trkpt>
<trkpt lat="50.35557" lon="12.45198">
<ele>602</ele>
<time>2011-04-17T12:55:54Z</time>
</trkpt>
<trkpt lat="50.35557" lon="12.45187">
<ele>601</ele>
<time>2011-04-17T12:55:57Z</time>
</trkpt>
<trkpt lat="50.35557" lon="12.45178">
<ele>601</ele>
<time>2011-04-17T12:55:59Z</time>
</trkpt>
<trkpt lat="50.35557" lon="12.45169">
<ele>601</ele>
<time>2011-04-17T12:56:01Z</time>
</trkpt>
<trkpt lat="50.35558" lon="12.4516">
<ele>601</ele>
<time>2011-04-17T12:56:03Z</time>
</trkpt>
<trkpt lat="50.35558" lon="12.45153">
<ele>601</ele>
<time>2011-04-17T12:56:05Z</time>
</trkpt>
<trkpt lat="50.35556" lon="12.45144">
<ele>600</ele>
<time>2011-04-17T12:56:07Z</time>
</trkpt>
<trkpt lat="50.35557" lon="12.45134">
<ele>600</ele>
<time>2011-04-17T12:56:09Z</time>
</trkpt>
<trkpt lat="50.35556" lon="12.45125">
<ele>601</ele>
<time>2011-04-17T12:56:11Z</time>
</trkpt>
<trkpt lat="50.35556" lon="12.45112">
<ele>600</ele>
<time>2011-04-17T12:56:14Z</time>
</trkpt>
<trkpt lat="50.35554" lon="12.45102">
<ele>601</ele>
<time>2011-04-17T12:56:16Z</time>
</trkpt>
<trkpt lat="50.35554" lon="12.45094">
<ele>602</ele>
<time>2011-04-17T12:56:18Z</time>
</trkpt>
<trkpt lat="50.35552" lon="12.45087">
<ele>602</ele>
<time>2011-04-17T12:56:19Z</time>
</trkpt>
<trkpt lat="50.35552" lon="12.45079">
<ele>602</ele>
<time>2011-04-17T12:56:21Z</time>
</trkpt>
<trkpt lat="50.35552" lon="12.4507">
<ele>602</ele>
<time>2011-04-17T12:56:23Z</time>
</trkpt>
<trkpt lat="50.35554" lon="12.45063">
<ele>602</ele>
<time>2011-04-17T12:56:25Z</time>
</trkpt>
<trkpt lat="50.35558" lon="12.45058">
<ele>602</ele>
<time>2011-04-17T12:56:27Z</time>
</trkpt>
<trkpt lat="50.35556" lon="12.4505">
<ele>603</ele>
<time>2011-04-17T12:56:28Z</time>
</trkpt>
<trkpt lat="50.35555" lon="12.4504">
<ele>603</ele>
<time>2011-04-17T12:56:30Z</time>
</trkpt>
<trkpt lat="50.35556" lon="12.4503">
<ele>602</ele>
<time>2011-04-17T12:56:32Z</time>
</trkpt>
<trkpt lat="50.35558" lon="12.45022">
<ele>602</ele>
<time>2011-04-17T12:56:34Z</time>
</trkpt>
<trkpt lat="50.35557" lon="12.45011">
<ele>602</ele>
<time>2011-04-17T12:56:36Z</time>
</trkpt>
<trkpt lat="50.35559" lon="12.45002">
<ele>601</ele>
<time>2011-04-17T12:56:38Z</time>
</trkpt>
<trkpt lat="50.35558" lon="12.44989">
<ele>601</ele>
<time>2011-04-17T12:56:40Z</time>
</trkpt>
<trkpt lat="50.35556" lon="12.44977">
<ele>600</ele>
<time>2011-04-17T12:56:42Z</time>
</trkpt>
<trkpt lat="50.35558" lon="12.44969">
<ele>601</ele>
<time>2011-04-17T12:56:44Z</time>
</trkpt>
<trkpt lat="50.35556" lon="12.44962">
<ele>601</ele>
<time>2011-04-17T12:56:45Z</time>
</trkpt>
<trkpt lat="50.35558" lon="12.44952">
<ele>600</ele>
<time>2011-04-17T12:56:47Z</time>
</trkpt>
<trkpt lat="50.35559" lon="12.44942">
<ele>602</ele>
<time>2011-04-17T12:56:49Z</time>
</trkpt>
<trkpt lat="50.35558" lon="12.44933">
<ele>601</ele>
<time>2011-04-17T12:56:51Z</time>
</trkpt>
<trkpt lat="50.35562" lon="12.44925">
<ele>603</ele>
<time>2011-04-17T12:56:53Z</time>
</trkpt>
<trkpt lat="50.3556" lon="12.44918">
<ele>603</ele>
<time>2011-04-17T12:56:54Z</time>
</trkpt>
<trkpt lat="50.35562" lon="12.44909">
<ele>602</ele>
<time>2011-04-17T12:56:56Z</time>
</trkpt>
<trkpt lat="50.35562" lon="12.44902">
<ele>602</ele>
<time>2011-04-17T12:56:58Z</time>
</trkpt>
<trkpt lat="50.35563" lon="12.44893">
<ele>603</ele>
<time>2011-04-17T12:57:00Z</time>
</trkpt>
<trkpt lat="50.35564" lon="12.44883">
<ele>605</ele>
<time>2011-04-17T12:57:02Z</time>
</trkpt>
<trkpt lat="50.35564" lon="12.44871">
<ele>607</ele>
<time>2011-04-17T12:57:04Z</time>
</trkpt>
<trkpt lat="50.35565" lon="12.4486">
<ele>606</ele>
<time>2011-04-17T12:57:06Z</time>
</trkpt>
<trkpt lat="50.35565" lon="12.4485">
<ele>607</ele>
<time>2011-04-17T12:57:08Z</time>
</trkpt>
<trkpt lat="50.35566" lon="12.44839">
<ele>604</ele>
<time>2011-04-17T12:57:10Z</time>
</trkpt>
<trkpt lat="50.35566" lon="12.44828">
<ele>603</ele>
<time>2011-04-17T12:57:12Z</time>
</trkpt>
<trkpt lat="50.35568" lon="12.44818">
<ele>602</ele>
<time>2011-04-17T12:57:14Z</time>
</trkpt>
<trkpt lat="50.3557" lon="12.44807">
<ele>601</ele>
<time>2011-04-17T12:57:16Z</time>
</trkpt>
<trkpt lat="50.35571" lon="12.44794">
<ele>602</ele>
<time>2011-04-17T12:57:18Z</time>
</trkpt>
<trkpt lat="50.35572" lon="12.44783">
<ele>603</ele>
<time>2011-04-17T12:57:20Z</time>
</trkpt>
<trkpt lat="50.35572" lon="12.44774">
<ele>603</ele>
<time>2011-04-17T12:57:22Z</time>
</trkpt>
<trkpt lat="50.35572" lon="12.44767">
<ele>603</ele>
<time>2011-04-17T12:57:24Z</time>
</trkpt>
<trkpt lat="50.3557" lon="12.44758">
<ele>603</ele>
<time>2011-04-17T12:57:26Z</time>
</trkpt>
<trkpt lat="50.35568" lon="12.44749">
<ele>603</ele>
<time>2011-04-17T12:57:29Z</time>
</trkpt>
<trkpt lat="50.35566" lon="12.44741">
<ele>603</ele>
<time>2011-04-17T12:57:31Z</time>
</trkpt>
<trkpt lat="50.35565" lon="12.44733">
<ele>603</ele>
<time>2011-04-17T12:57:33Z</time>
</trkpt>
<trkpt lat="50.35562" lon="12.44724">
<ele>603</ele>
<time>2011-04-17T12:57:35Z</time>
</trkpt>
<trkpt lat="50.35561" lon="12.44714">
<ele>603</ele>
<time>2011-04-17T12:57:37Z</time>
</trkpt>
<trkpt lat="50.35559" lon="12.44705">
<ele>604</ele>
<time>2011-04-17T12:57:39Z</time>
</trkpt>
<trkpt lat="50.35557" lon="12.44696">
<ele>604</ele>
<time>2011-04-17T12:57:41Z</time>
</trkpt>
<trkpt lat="50.35555" lon="12.44688">
<ele>604</ele>
<time>2011-04-17T12:57:43Z</time>
</trkpt>
<trkpt lat="50.35554" lon="12.4468">
<ele>604</ele>
<time>2011-04-17T12:57:45Z</time>
</trkpt>
<trkpt lat="50.35553" lon="12.44672">
<ele>604</ele>
<time>2011-04-17T12:57:47Z</time>
</trkpt>
<trkpt lat="50.35553" lon="12.44663">
<ele>605</ele>
<time>2011-04-17T12:57:49Z</time>
</trkpt>
<trkpt lat="50.35552" lon="12.44654">
<ele>604</ele>
<time>2011-04-17T12:57:51Z</time>
</trkpt>
<trkpt lat="50.35553" lon="12.44645">
<ele>605</ele>
<time>2011-04-17T12:57:53Z</time>
</trkpt>
<trkpt lat="50.35554" lon="12.44635">
<ele>605</ele>
<time>2011-04-17T12:57:56Z</time>
</trkpt>
<trkpt lat="50.35551" lon="12.44624">
<ele>605</ele>
<time>2011-04-17T12:57:59Z</time>
</trkpt>
<trkpt lat="50.3555" lon="12.44617">
<ele>605</ele>
<time>2011-04-17T12:58:01Z</time>
</trkpt>
<trkpt lat="50.35549" lon="12.44609">
<ele>605</ele>
<time>2011-04-17T12:58:04Z</time>
</trkpt>
<trkpt lat="50.35552" lon="12.44602">
<ele>607</ele>
<time>2011-04-17T12:58:07Z</time>
</trkpt>
<trkpt lat="50.35552" lon="12.44593">
<ele>608</ele>
<time>2011-04-17T12:58:11Z</time>
</trkpt>
<trkpt lat="50.3555" lon="12.44586">
<ele>608</ele>
<time>2011-04-17T12:58:15Z</time>
</trkpt>
<trkpt lat="50.35548" lon="12.44578">
<ele>609</ele>
<time>2011-04-17T12:58:19Z</time>
</trkpt>
<trkpt lat="50.35548" lon="12.44578">
<ele>609</ele>
<time>2011-04-17T12:58:19Z</time>
</trkpt>
<trkpt lat="50.35548" lon="12.44578">
<ele>609</ele>
<time>2011-04-17T12:58:20Z</time>
</trkpt>
<trkpt lat="50.35546" lon="12.44571">
<ele>608</ele>
<time>2011-04-17T12:58:24Z</time>
</trkpt>
<trkpt lat="50.35545" lon="12.44562">
<ele>608</ele>
<time>2011-04-17T12:58:28Z</time>
</trkpt>
<trkpt lat="50.35544" lon="12.44554">
<ele>608</ele>
<time>2011-04-17T12:58:32Z</time>
</trkpt>
<trkpt lat="50.35543" lon="12.44545">
<ele>609</ele>
<time>2011-04-17T12:58:36Z</time>
</trkpt>
<trkpt lat="50.35544" lon="12.44536">
<ele>609</ele>
<time>2011-04-17T12:58:40Z</time>
</trkpt>
<trkpt lat="50.35545" lon="12.44528">
<ele>609</ele>
<time>2011-04-17T12:58:44Z</time>
</trkpt>
<trkpt lat="50.35543" lon="12.44521">
<ele>610</ele>
<time>2011-04-17T12:58:47Z</time>
</trkpt>
<trkpt lat="50.35543" lon="12.44512">
<ele>611</ele>
<time>2011-04-17T12:58:51Z</time>
</trkpt>
<trkpt lat="50.35543" lon="12.44504">
<ele>611</ele>
<time>2011-04-17T12:58:55Z</time>
</trkpt>
<trkpt lat="50.35543" lon="12.44496">
<ele>612</ele>
<time>2011-04-17T12:59:00Z</time>
</trkpt>
<trkpt lat="50.35539" lon="12.44489">
<ele>615</ele>
<time>2011-04-17T12:59:17Z</time>
</trkpt>
<trkpt lat="50.35535" lon="12.44483">
<ele>615</ele>
<time>2011-04-17T12:59:21Z</time>
</trkpt>
<trkpt lat="50.35534" lon="12.44474">
<ele>615</ele>
<time>2011-04-17T12:59:25Z</time>
</trkpt>
<trkpt lat="50.35532" lon="12.44465">
<ele>617</ele>
<time>2011-04-17T12:59:29Z</time>
</trkpt>
<trkpt lat="50.35529" lon="12.44461">
<ele>618</ele>
<time>2011-04-17T12:59:32Z</time>
</trkpt>
<trkpt lat="50.35528" lon="12.44452">
<ele>617</ele>
<time>2011-04-17T12:59:36Z</time>
</trkpt>
<trkpt lat="50.35524" lon="12.44444">
<ele>618</ele>
<time>2011-04-17T12:59:40Z</time>
</trkpt>
<trkpt lat="50.35523" lon="12.44437">
<ele>617</ele>
<time>2011-04-17T12:59:44Z</time>
</trkpt>
<trkpt lat="50.35522" lon="12.4443">
<ele>617</ele>
<time>2011-04-17T13:01:23Z</time>
</trkpt>
<trkpt lat="50.35518" lon="12.44428">
<ele>618</ele>
<time>2011-04-17T13:01:28Z</time>
</trkpt>
<trkpt lat="50.35518" lon="12.44428">
<ele>618</ele>
<time>2011-04-17T13:01:28Z</time>
</trkpt>
<trkpt lat="50.35518" lon="12.44428">
<ele>618</ele>
<time>2011-04-17T13:01:33Z</time>
</trkpt>
<trkpt lat="50.35514" lon="12.44422">
<ele>621</ele>
<time>2011-04-17T13:02:02Z</time>
</trkpt>
<trkpt lat="50.35514" lon="12.44414">
<ele>620</ele>
<time>2011-04-17T13:02:05Z</time>
</trkpt>
<trkpt lat="50.35513" lon="12.44405">
<ele>620</ele>
<time>2011-04-17T13:02:08Z</time>
</trkpt>
<trkpt lat="50.35512" lon="12.44396">
<ele>619</ele>
<time>2011-04-17T13:02:11Z</time>
</trkpt>
<trkpt lat="50.35509" lon="12.44388">
<ele>619</ele>
<time>2011-04-17T13:02:14Z</time>
</trkpt>
<trkpt lat="50.35507" lon="12.4438">
<ele>619</ele>
<time>2011-04-17T13:02:18Z</time>
</trkpt>
<trkpt lat="50.35508" lon="12.4437">
<ele>619</ele>
<time>2011-04-17T13:02:23Z</time>
</trkpt>
<trkpt lat="50.35508" lon="12.44362">
<ele>618</ele>
<time>2011-04-17T13:02:26Z</time>
</trkpt>
<trkpt lat="50.35505" lon="12.44355">
<ele>618</ele>
<time>2011-04-17T13:02:30Z</time>
</trkpt>
<trkpt lat="50.35503" lon="12.44348">
<ele>617</ele>
<time>2011-04-17T13:02:33Z</time>
</trkpt>
<trkpt lat="50.35502" lon="12.4434">
<ele>614</ele>
<time>2011-04-17T13:02:37Z</time>
</trkpt>
<trkpt lat="50.35502" lon="12.44331">
<ele>614</ele>
<time>2011-04-17T13:02:41Z</time>
</trkpt>
<trkpt lat="50.35503" lon="12.44323">
<ele>614</ele>
<time>2011-04-17T13:02:45Z</time>
</trkpt>
<trkpt lat="50.35502" lon="12.44314">
<ele>615</ele>
<time>2011-04-17T13:02:50Z</time>
</trkpt>
<trkpt lat="50.35502" lon="12.44306">
<ele>615</ele>
<time>2011-04-17T13:02:55Z</time>
</trkpt>
<trkpt lat="50.35502" lon="12.44297">
<ele>615</ele>
<time>2011-04-17T13:02:59Z</time>
</trkpt>
<trkpt lat="50.35502" lon="12.4429">
<ele>614</ele>
<time>2011-04-17T13:03:03Z</time>
</trkpt>
<trkpt lat="50.35501" lon="12.4428">
<ele>614</ele>
<time>2011-04-17T13:03:07Z</time>
</trkpt>
<trkpt lat="50.355" lon="12.44272">
<ele>614</ele>
<time>2011-04-17T13:03:10Z</time>
</trkpt>
<trkpt lat="50.35499" lon="12.44262">
<ele>614</ele>
<time>2011-04-17T13:03:14Z</time>
</trkpt>
<trkpt lat="50.35498" lon="12.44255">
<ele>615</ele>
<time>2011-04-17T13:03:17Z</time>
</trkpt>
<trkpt lat="50.35496" lon="12.44248">
<ele>616</ele>
<time>2011-04-17T13:03:20Z</time>
</trkpt>
<trkpt lat="50.35499" lon="12.44239">
<ele>619</ele>
<time>2011-04-17T13:03:25Z</time>
</trkpt>
<trkpt lat="50.35499" lon="12.44231">
<ele>620</ele>
<time>2011-04-17T13:03:29Z</time>
</trkpt>
<trkpt lat="50.355" lon="12.44223">
<ele>622</ele>
<time>2011-04-17T13:03:33Z</time>
</trkpt>
<trkpt lat="50.35501" lon="12.44213">
<ele>622</ele>
<time>2011-04-17T13:03:38Z</time>
</trkpt>
<trkpt lat="50.35504" lon="12.44209">
<ele>618</ele>
<time>2011-04-17T13:03:43Z</time>
</trkpt>
<trkpt lat="50.35502" lon="12.44202">
<ele>616</ele>
<time>2011-04-17T13:03:47Z</time>
</trkpt>
<trkpt lat="50.35497" lon="12.44195">
<ele>616</ele>
<time>2011-04-17T13:03:49Z</time>
</trkpt>
<trkpt lat="50.35496" lon="12.44187">
<ele>616</ele>
<time>2011-04-17T13:03:53Z</time>
</trkpt>
<trkpt lat="50.35494" lon="12.4418">
<ele>617</ele>
<time>2011-04-17T13:03:56Z</time>
</trkpt>
<trkpt lat="50.35492" lon="12.44171">
<ele>618</ele>
<time>2011-04-17T13:04:03Z</time>
</trkpt>
<trkpt lat="50.3549" lon="12.44164">
<ele>619</ele>
<time>2011-04-17T13:04:06Z</time>
</trkpt>
<trkpt lat="50.35487" lon="12.44156">
<ele>620</ele>
<time>2011-04-17T13:04:10Z</time>
</trkpt>
<trkpt lat="50.35485" lon="12.44147">
<ele>623</ele>
<time>2011-04-17T13:04:13Z</time>
</trkpt>
<trkpt lat="50.35484" lon="12.4414">
<ele>624</ele>
<time>2011-04-17T13:04:17Z</time>
</trkpt>
<trkpt lat="50.35482" lon="12.44133">
<ele>626</ele>
<time>2011-04-17T13:04:21Z</time>
</trkpt>
<trkpt lat="50.35479" lon="12.44125">
<ele>626</ele>
<time>2011-04-17T13:04:24Z</time>
</trkpt>
<trkpt lat="50.35476" lon="12.4412">
<ele>627</ele>
<time>2011-04-17T13:04:30Z</time>
</trkpt>
<trkpt lat="50.35471" lon="12.44113">
<ele>629</ele>
<time>2011-04-17T13:04:35Z</time>
</trkpt>
<trkpt lat="50.35468" lon="12.44103">
<ele>629</ele>
<time>2011-04-17T13:04:39Z</time>
</trkpt>
<trkpt lat="50.35464" lon="12.44098">
<ele>631</ele>
<time>2011-04-17T13:04:43Z</time>
</trkpt>
<trkpt lat="50.3546" lon="12.44091">
<ele>634</ele>
<time>2011-04-17T13:04:48Z</time>
</trkpt>
<trkpt lat="50.35457" lon="12.44084">
<ele>637</ele>
<time>2011-04-17T13:04:54Z</time>
</trkpt>
<trkpt lat="50.35454" lon="12.44073">
<ele>640</ele>
<time>2011-04-17T13:04:57Z</time>
</trkpt>
<trkpt lat="50.35452" lon="12.44067">
<ele>644</ele>
<time>2011-04-17T13:05:01Z</time>
</trkpt>
<trkpt lat="50.3545" lon="12.44058">
<ele>645</ele>
<time>2011-04-17T13:05:04Z</time>
</trkpt>
<trkpt lat="50.35447" lon="12.4405">
<ele>646</ele>
<time>2011-04-17T13:05:07Z</time>
</trkpt>
<trkpt lat="50.35444" lon="12.44042">
<ele>647</ele>
<time>2011-04-17T13:05:11Z</time>
</trkpt>
<trkpt lat="50.35443" lon="12.44033">
<ele>643</ele>
<time>2011-04-17T13:05:14Z</time>
</trkpt>
<trkpt lat="50.35442" lon="12.44025">
<ele>643</ele>
<time>2011-04-17T13:05:18Z</time>
</trkpt>
<trkpt lat="50.35441" lon="12.44018">
<ele>642</ele>
<time>2011-04-17T13:05:21Z</time>
</trkpt>
<trkpt lat="50.35442" lon="12.4401">
<ele>644</ele>
<time>2011-04-17T13:05:27Z</time>
</trkpt>
<trkpt lat="50.3544" lon="12.43999">
<ele>647</ele>
<time>2011-04-17T13:05:31Z</time>
</trkpt>
<trkpt lat="50.3544" lon="12.43992">
<ele>646</ele>
<time>2011-04-17T13:05:34Z</time>
</trkpt>
<trkpt lat="50.35441" lon="12.43985">
<ele>645</ele>
<time>2011-04-17T13:05:37Z</time>
</trkpt>
<trkpt lat="50.35444" lon="12.43978">
<ele>644</ele>
<time>2011-04-17T13:05:40Z</time>
</trkpt>
<trkpt lat="50.35442" lon="12.4397">
<ele>643</ele>
<time>2011-04-17T13:05:44Z</time>
</trkpt>
<trkpt lat="50.35443" lon="12.43962">
<ele>641</ele>
<time>2011-04-17T13:05:49Z</time>
</trkpt>
<trkpt lat="50.35443" lon="12.43954">
<ele>642</ele>
<time>2011-04-17T13:05:53Z</time>
</trkpt>
<trkpt lat="50.35445" lon="12.43946">
<ele>641</ele>
<time>2011-04-17T13:05:56Z</time>
</trkpt>
<trkpt lat="50.35444" lon="12.43937">
<ele>640</ele>
<time>2011-04-17T13:06:01Z</time>
</trkpt>
<trkpt lat="50.35443" lon="12.4393">
<ele>641</ele>
<time>2011-04-17T13:06:06Z</time>
</trkpt>
<trkpt lat="50.35442" lon="12.43923">
<ele>641</ele>
<time>2011-04-17T13:06:09Z</time>
</trkpt>
<trkpt lat="50.35438" lon="12.43917">
<ele>642</ele>
<time>2011-04-17T13:06:12Z</time>
</trkpt>
<trkpt lat="50.35439" lon="12.43908">
<ele>639</ele>
<time>2011-04-17T13:06:15Z</time>
</trkpt>
<trkpt lat="50.35437" lon="12.43898">
<ele>642</ele>
<time>2011-04-17T13:06:19Z</time>
</trkpt>
<trkpt lat="50.35435" lon="12.4389">
<ele>642</ele>
<time>2011-04-17T13:06:25Z</time>
</trkpt>
<trkpt lat="50.35433" lon="12.43884">
<ele>644</ele>
<time>2011-04-17T13:06:29Z</time>
</trkpt>
<trkpt lat="50.35433" lon="12.43876">
<ele>643</ele>
<time>2011-04-17T13:06:34Z</time>
</trkpt>
<trkpt lat="50.35431" lon="12.43869">
<ele>644</ele>
<time>2011-04-17T13:06:37Z</time>
</trkpt>
<trkpt lat="50.35427" lon="12.43865">
<ele>646</ele>
<time>2011-04-17T13:06:40Z</time>
</trkpt>
<trkpt lat="50.35423" lon="12.43855">
<ele>644</ele>
<time>2011-04-17T13:06:42Z</time>
</trkpt>
<trkpt lat="50.3542" lon="12.4385">
<ele>644</ele>
<time>2011-04-17T13:06:44Z</time>
</trkpt>
<trkpt lat="50.35416" lon="12.43844">
<ele>645</ele>
<time>2011-04-17T13:06:48Z</time>
</trkpt>
<trkpt lat="50.35413" lon="12.43838">
<ele>646</ele>
<time>2011-04-17T13:06:51Z</time>
</trkpt>
<trkpt lat="50.35411" lon="12.4383">
<ele>648</ele>
<time>2011-04-17T13:06:56Z</time>
</trkpt>
<trkpt lat="50.35409" lon="12.43823">
<ele>649</ele>
<time>2011-04-17T13:07:00Z</time>
</trkpt>
<trkpt lat="50.35405" lon="12.43819">
<ele>650</ele>
<time>2011-04-17T13:07:04Z</time>
</trkpt>
<trkpt lat="50.35403" lon="12.43812">
<ele>651</ele>
<time>2011-04-17T13:07:09Z</time>
</trkpt>
<trkpt lat="50.354" lon="12.43804">
<ele>651</ele>
<time>2011-04-17T13:07:11Z</time>
</trkpt>
<trkpt lat="50.35399" lon="12.43797">
<ele>652</ele>
<time>2011-04-17T13:07:15Z</time>
</trkpt>
<trkpt lat="50.35396" lon="12.43791">
<ele>653</ele>
<time>2011-04-17T13:07:18Z</time>
</trkpt>
<trkpt lat="50.35397" lon="12.43783">
<ele>651</ele>
<time>2011-04-17T13:07:22Z</time>
</trkpt>
<trkpt lat="50.35393" lon="12.43777">
<ele>653</ele>
<time>2011-04-17T13:07:25Z</time>
</trkpt>
<trkpt lat="50.35393" lon="12.4377">
<ele>652</ele>
<time>2011-04-17T13:07:27Z</time>
</trkpt>
<trkpt lat="50.35391" lon="12.43762">
<ele>650</ele>
<time>2011-04-17T13:07:33Z</time>
</trkpt>
<trkpt lat="50.35387" lon="12.43756">
<ele>647</ele>
<time>2011-04-17T13:07:38Z</time>
</trkpt>
<trkpt lat="50.35383" lon="12.43749">
<ele>646</ele>
<time>2011-04-17T13:07:44Z</time>
</trkpt>
<trkpt lat="50.35382" lon="12.43742">
<ele>646</ele>
<time>2011-04-17T13:07:47Z</time>
</trkpt>
<trkpt lat="50.35381" lon="12.43735">
<ele>644</ele>
<time>2011-04-17T13:07:51Z</time>
</trkpt>
<trkpt lat="50.3538" lon="12.43726">
<ele>646</ele>
<time>2011-04-17T13:07:55Z</time>
</trkpt>
<trkpt lat="50.35378" lon="12.4372">
<ele>648</ele>
<time>2011-04-17T13:08:01Z</time>
</trkpt>
<trkpt lat="50.35373" lon="12.43718">
<ele>650</ele>
<time>2011-04-17T13:08:09Z</time>
</trkpt>
<trkpt lat="50.35373" lon="12.43718">
<ele>650</ele>
<time>2011-04-17T13:08:09Z</time>
</trkpt>
<trkpt lat="50.35373" lon="12.43718">
<ele>650</ele>
<time>2011-04-17T13:09:34Z</time>
</trkpt>
<trkpt lat="50.35371" lon="12.43711">
<ele>650</ele>
<time>2011-04-17T13:09:54Z</time>
</trkpt>
<trkpt lat="50.35368" lon="12.43703">
<ele>651</ele>
<time>2011-04-17T13:09:57Z</time>
</trkpt>
<trkpt lat="50.35371" lon="12.43695">
<ele>649</ele>
<time>2011-04-17T13:09:59Z</time>
</trkpt>
<trkpt lat="50.35372" lon="12.43686">
<ele>648</ele>
<time>2011-04-17T13:10:02Z</time>
</trkpt>
<trkpt lat="50.35373" lon="12.43678">
<ele>649</ele>
<time>2011-04-17T13:10:05Z</time>
</trkpt>
<trkpt lat="50.3537" lon="12.4367">
<ele>647</ele>
<time>2011-04-17T13:10:10Z</time>
</trkpt>
<trkpt lat="50.35369" lon="12.43661">
<ele>647</ele>
<time>2011-04-17T13:10:13Z</time>
</trkpt>
<trkpt lat="50.35369" lon="12.43654">
<ele>647</ele>
<time>2011-04-17T13:10:17Z</time>
</trkpt>
<trkpt lat="50.35365" lon="12.43649">
<ele>646</ele>
<time>2011-04-17T13:10:21Z</time>
</trkpt>
<trkpt lat="50.3536" lon="12.43645">
<ele>648</ele>
<time>2011-04-17T13:10:24Z</time>
</trkpt>
<trkpt lat="50.35352" lon="12.43642">
<ele>647</ele>
<time>2011-04-17T13:10:27Z</time>
</trkpt>
<trkpt lat="50.35346" lon="12.4364">
<ele>647</ele>
<time>2011-04-17T13:10:29Z</time>
</trkpt>
<trkpt lat="50.3534" lon="12.43636">
<ele>647</ele>
<time>2011-04-17T13:10:31Z</time>
</trkpt>
<trkpt lat="50.3534" lon="12.43636">
<ele>647</ele>
<time>2011-04-17T13:10:31Z</time>
</trkpt>
<trkpt lat="50.3534" lon="12.43636">
<ele>647</ele>
<time>2011-04-17T13:10:32Z</time>
</trkpt>
<trkpt lat="50.35339" lon="12.43626">
<ele>648</ele>
<time>2011-04-17T13:10:34Z</time>
</trkpt>
<trkpt lat="50.35338" lon="12.43617">
<ele>646</ele>
<time>2011-04-17T13:10:36Z</time>
</trkpt>
<trkpt lat="50.35338" lon="12.43608">
<ele>648</ele>
<time>2011-04-17T13:10:39Z</time>
</trkpt>
<trkpt lat="50.35338" lon="12.436">
<ele>648</ele>
<time>2011-04-17T13:10:42Z</time>
</trkpt>
<trkpt lat="50.35337" lon="12.43593">
<ele>647</ele>
<time>2011-04-17T13:10:44Z</time>
</trkpt>
<trkpt lat="50.35339" lon="12.43586">
<ele>647</ele>
<time>2011-04-17T13:10:47Z</time>
</trkpt>
<trkpt lat="50.35342" lon="12.43578">
<ele>647</ele>
<time>2011-04-17T13:10:49Z</time>
</trkpt>
<trkpt lat="50.35344" lon="12.43571">
<ele>646</ele>
<time>2011-04-17T13:10:51Z</time>
</trkpt>
<trkpt lat="50.35343" lon="12.43564">
<ele>648</ele>
<time>2011-04-17T13:10:53Z</time>
</trkpt>
<trkpt lat="50.35344" lon="12.43555">
<ele>647</ele>
<time>2011-04-17T13:10:56Z</time>
</trkpt>
<trkpt lat="50.35348" lon="12.43548">
<ele>646</ele>
<time>2011-04-17T13:11:00Z</time>
</trkpt>
<trkpt lat="50.35351" lon="12.43542">
<ele>644</ele>
<time>2011-04-17T13:11:02Z</time>
</trkpt>
<trkpt lat="50.35349" lon="12.43535">
<ele>644</ele>
<time>2011-04-17T13:11:04Z</time>
</trkpt>
<trkpt lat="50.35347" lon="12.43528">
<ele>641</ele>
<time>2011-04-17T13:11:08Z</time>
</trkpt>
<trkpt lat="50.35346" lon="12.4352">
<ele>640</ele>
<time>2011-04-17T13:11:10Z</time>
</trkpt>
<trkpt lat="50.35347" lon="12.4351">
<ele>637</ele>
<time>2011-04-17T13:11:14Z</time>
</trkpt>
<trkpt lat="50.35345" lon="12.43501">
<ele>636</ele>
<time>2011-04-17T13:11:16Z</time>
</trkpt>
<trkpt lat="50.35345" lon="12.43491">
<ele>633</ele>
<time>2011-04-17T13:11:19Z</time>
</trkpt>
<trkpt lat="50.35344" lon="12.43483">
<ele>632</ele>
<time>2011-04-17T13:11:22Z</time>
</trkpt>
<trkpt lat="50.35342" lon="12.43476">
<ele>631</ele>
<time>2011-04-17T13:11:25Z</time>
</trkpt>
<trkpt lat="50.35339" lon="12.43467">
<ele>628</ele>
<time>2011-04-17T13:11:55Z</time>
</trkpt>
<trkpt lat="50.35336" lon="12.43461">
<ele>630</ele>
<time>2011-04-17T13:11:58Z</time>
</trkpt>
<trkpt lat="50.35334" lon="12.43453">
<ele>631</ele>
<time>2011-04-17T13:12:00Z</time>
</trkpt>
<trkpt lat="50.35335" lon="12.43442">
<ele>628</ele>
<time>2011-04-17T13:12:04Z</time>
</trkpt>
<trkpt lat="50.35333" lon="12.43432">
<ele>627</ele>
<time>2011-04-17T13:12:07Z</time>
</trkpt>
<trkpt lat="50.3533" lon="12.43423">
<ele>626</ele>
<time>2011-04-17T13:12:10Z</time>
</trkpt>
<trkpt lat="50.35326" lon="12.43406">
<ele>625</ele>
<time>2011-04-17T13:12:14Z</time>
</trkpt>
<trkpt lat="50.35324" lon="12.43396">
<ele>622</ele>
<time>2011-04-17T13:12:16Z</time>
</trkpt>
<trkpt lat="50.35322" lon="12.43387">
<ele>620</ele>
<time>2011-04-17T13:12:18Z</time>
</trkpt>
<trkpt lat="50.35321" lon="12.43378">
<ele>618</ele>
<time>2011-04-17T13:12:20Z</time>
</trkpt>
<trkpt lat="50.3532" lon="12.43369">
<ele>617</ele>
<time>2011-04-17T13:12:22Z</time>
</trkpt>
<trkpt lat="50.35317" lon="12.43359">
<ele>616</ele>
<time>2011-04-17T13:12:24Z</time>
</trkpt>
<trkpt lat="50.35315" lon="12.4335">
<ele>615</ele>
<time>2011-04-17T13:12:26Z</time>
</trkpt>
<trkpt lat="50.35314" lon="12.43341">
<ele>615</ele>
<time>2011-04-17T13:12:28Z</time>
</trkpt>
<trkpt lat="50.35315" lon="12.43334">
<ele>613</ele>
<time>2011-04-17T13:12:30Z</time>
</trkpt>
<trkpt lat="50.35318" lon="12.43325">
<ele>611</ele>
<time>2011-04-17T13:12:32Z</time>
</trkpt>
<trkpt lat="50.35321" lon="12.43319">
<ele>611</ele>
<time>2011-04-17T13:12:34Z</time>
</trkpt>
<trkpt lat="50.35325" lon="12.43313">
<ele>611</ele>
<time>2011-04-17T13:12:36Z</time>
</trkpt>
<trkpt lat="50.3533" lon="12.43305">
<ele>611</ele>
<time>2011-04-17T13:12:38Z</time>
</trkpt>
<trkpt lat="50.35334" lon="12.433">
<ele>612</ele>
<time>2011-04-17T13:12:39Z</time>
</trkpt>
<trkpt lat="50.35338" lon="12.43295">
<ele>611</ele>
<time>2011-04-17T13:12:40Z</time>
</trkpt>
<trkpt lat="50.35346" lon="12.43286">
<ele>611</ele>
<time>2011-04-17T13:12:42Z</time>
</trkpt>
<trkpt lat="50.35349" lon="12.4328">
<ele>612</ele>
<time>2011-04-17T13:12:43Z</time>
</trkpt>
<trkpt lat="50.35356" lon="12.43274">
<ele>612</ele>
<time>2011-04-17T13:12:45Z</time>
</trkpt>
<trkpt lat="50.35357" lon="12.43267">
<ele>613</ele>
<time>2011-04-17T13:12:46Z</time>
</trkpt>
<trkpt lat="50.3536" lon="12.43261">
<ele>614</ele>
<time>2011-04-17T13:12:47Z</time>
</trkpt>
<trkpt lat="50.35365" lon="12.43255">
<ele>614</ele>
<time>2011-04-17T13:12:49Z</time>
</trkpt>
<trkpt lat="50.35366" lon="12.43248">
<ele>615</ele>
<time>2011-04-17T13:12:56Z</time>
</trkpt>
<trkpt lat="50.35366" lon="12.43248">
<ele>615</ele>
<time>2011-04-17T13:12:56Z</time>
</trkpt>
<trkpt lat="50.35366" lon="12.43248">
<ele>615</ele>
<time>2011-04-17T13:12:57Z</time>
</trkpt>
<trkpt lat="50.35368" lon="12.43241">
<ele>624</ele>
<time>2011-04-17T13:15:04Z</time>
</trkpt>
<trkpt lat="50.35373" lon="12.43236">
<ele>623</ele>
<time>2011-04-17T13:15:10Z</time>
</trkpt>
<trkpt lat="50.35378" lon="12.43238">
<ele>623</ele>
<time>2011-04-17T13:15:14Z</time>
</trkpt>
<trkpt lat="50.35382" lon="12.43237">
<ele>623</ele>
<time>2011-04-17T13:15:16Z</time>
</trkpt>
<trkpt lat="50.35389" lon="12.43239">
<ele>623</ele>
<time>2011-04-17T13:15:18Z</time>
</trkpt>
<trkpt lat="50.35395" lon="12.43238">
<ele>622</ele>
<time>2011-04-17T13:15:20Z</time>
</trkpt>
<trkpt lat="50.354" lon="12.43235">
<ele>621</ele>
<time>2011-04-17T13:15:22Z</time>
</trkpt>
<trkpt lat="50.35405" lon="12.43232">
<ele>622</ele>
<time>2011-04-17T13:15:24Z</time>
</trkpt>
<trkpt lat="50.3541" lon="12.43232">
<ele>621</ele>
<time>2011-04-17T13:15:26Z</time>
</trkpt>
<trkpt lat="50.35416" lon="12.4323">
<ele>623</ele>
<time>2011-04-17T13:15:29Z</time>
</trkpt>
<trkpt lat="50.35421" lon="12.43232">
<ele>624</ele>
<time>2011-04-17T13:15:31Z</time>
</trkpt>
<trkpt lat="50.35425" lon="12.43236">
<ele>623</ele>
<time>2011-04-17T13:15:33Z</time>
</trkpt>
<trkpt lat="50.3543" lon="12.43241">
<ele>623</ele>
<time>2011-04-17T13:15:35Z</time>
</trkpt>
<trkpt lat="50.35433" lon="12.43246">
<ele>624</ele>
<time>2011-04-17T13:15:37Z</time>
</trkpt>
<trkpt lat="50.35438" lon="12.43254">
<ele>626</ele>
<time>2011-04-17T13:15:40Z</time>
</trkpt>
<trkpt lat="50.3544" lon="12.43261">
<ele>626</ele>
<time>2011-04-17T13:15:42Z</time>
</trkpt>
<trkpt lat="50.35436" lon="12.4327">
<ele>621</ele>
<time>2011-04-17T13:15:44Z</time>
</trkpt>
<trkpt lat="50.35434" lon="12.43277">
<ele>621</ele>
<time>2011-04-17T13:15:46Z</time>
</trkpt>
<trkpt lat="50.35438" lon="12.43286">
<ele>619</ele>
<time>2011-04-17T13:15:49Z</time>
</trkpt>
<trkpt lat="50.35441" lon="12.43294">
<ele>619</ele>
<time>2011-04-17T13:15:51Z</time>
</trkpt>
<trkpt lat="50.35444" lon="12.43299">
<ele>619</ele>
<time>2011-04-17T13:15:52Z</time>
</trkpt>
<trkpt lat="50.35449" lon="12.43307">
<ele>619</ele>
<time>2011-04-17T13:15:54Z</time>
</trkpt>
<trkpt lat="50.35454" lon="12.43311">
<ele>619</ele>
<time>2011-04-17T13:15:55Z</time>
</trkpt>
<trkpt lat="50.35458" lon="12.43319">
<ele>620</ele>
<time>2011-04-17T13:15:57Z</time>
</trkpt>
<trkpt lat="50.35464" lon="12.4333">
<ele>620</ele>
<time>2011-04-17T13:15:59Z</time>
</trkpt>
<trkpt lat="50.35468" lon="12.43336">
<ele>618</ele>
<time>2011-04-17T13:16:00Z</time>
</trkpt>
<trkpt lat="50.35472" lon="12.43347">
<ele>617</ele>
<time>2011-04-17T13:16:02Z</time>
</trkpt>
<trkpt lat="50.35477" lon="12.43356">
<ele>616</ele>
<time>2011-04-17T13:16:04Z</time>
</trkpt>
<trkpt lat="50.35482" lon="12.43366">
<ele>618</ele>
<time>2011-04-17T13:16:06Z</time>
</trkpt>
<trkpt lat="50.35485" lon="12.43376">
<ele>618</ele>
<time>2011-04-17T13:16:08Z</time>
</trkpt>
<trkpt lat="50.35489" lon="12.43386">
<ele>619</ele>
<time>2011-04-17T13:16:10Z</time>
</trkpt>
<trkpt lat="50.35491" lon="12.43397">
<ele>618</ele>
<time>2011-04-17T13:16:12Z</time>
</trkpt>
<trkpt lat="50.35493" lon="12.43408">
<ele>618</ele>
<time>2011-04-17T13:16:14Z</time>
</trkpt>
<trkpt lat="50.35496" lon="12.4342">
<ele>618</ele>
<time>2011-04-17T13:16:16Z</time>
</trkpt>
<trkpt lat="50.355" lon="12.43428">
<ele>618</ele>
<time>2011-04-17T13:16:18Z</time>
</trkpt>
<trkpt lat="50.35503" lon="12.43437">
<ele>618</ele>
<time>2011-04-17T13:16:20Z</time>
</trkpt>
<trkpt lat="50.35507" lon="12.43446">
<ele>617</ele>
<time>2011-04-17T13:16:22Z</time>
</trkpt>
<trkpt lat="50.3551" lon="12.4345">
<ele>617</ele>
<time>2011-04-17T13:16:23Z</time>
</trkpt>
<trkpt lat="50.35516" lon="12.4346">
<ele>617</ele>
<time>2011-04-17T13:16:25Z</time>
</trkpt>
<trkpt lat="50.3552" lon="12.43467">
<ele>616</ele>
<time>2011-04-17T13:16:27Z</time>
</trkpt>
<trkpt lat="50.35523" lon="12.43475">
<ele>616</ele>
<time>2011-04-17T13:16:29Z</time>
</trkpt>
<trkpt lat="50.35527" lon="12.43484">
<ele>616</ele>
<time>2011-04-17T13:16:31Z</time>
</trkpt>
<trkpt lat="50.3553" lon="12.43492">
<ele>616</ele>
<time>2011-04-17T13:16:33Z</time>
</trkpt>
<trkpt lat="50.35533" lon="12.43503">
<ele>616</ele>
<time>2011-04-17T13:16:35Z</time>
</trkpt>
<trkpt lat="50.35536" lon="12.43508">
<ele>616</ele>
<time>2011-04-17T13:16:36Z</time>
</trkpt>
<trkpt lat="50.3554" lon="12.43513">
<ele>616</ele>
<time>2011-04-17T13:16:37Z</time>
</trkpt>
<trkpt lat="50.35544" lon="12.43523">
<ele>616</ele>
<time>2011-04-17T13:16:39Z</time>
</trkpt>
<trkpt lat="50.35548" lon="12.43533">
<ele>616</ele>
<time>2011-04-17T13:16:41Z</time>
</trkpt>
<trkpt lat="50.3555" lon="12.43543">
<ele>615</ele>
<time>2011-04-17T13:16:43Z</time>
</trkpt>
<trkpt lat="50.35552" lon="12.43553">
<ele>615</ele>
<time>2011-04-17T13:16:45Z</time>
</trkpt>
<trkpt lat="50.35554" lon="12.43565">
<ele>616</ele>
<time>2011-04-17T13:16:47Z</time>
</trkpt>
<trkpt lat="50.35557" lon="12.43572">
<ele>616</ele>
<time>2011-04-17T13:16:48Z</time>
</trkpt>
<trkpt lat="50.3556" lon="12.43585">
<ele>616</ele>
<time>2011-04-17T13:16:50Z</time>
</trkpt>
<trkpt lat="50.35562" lon="12.43599">
<ele>616</ele>
<time>2011-04-17T13:16:52Z</time>
</trkpt>
<trkpt lat="50.35567" lon="12.4361">
<ele>616</ele>
<time>2011-04-17T13:16:54Z</time>
</trkpt>
<trkpt lat="50.35568" lon="12.4362">
<ele>615</ele>
<time>2011-04-17T13:16:56Z</time>
</trkpt>
<trkpt lat="50.35574" lon="12.43626">
<ele>615</ele>
<time>2011-04-17T13:16:57Z</time>
</trkpt>
<trkpt lat="50.35576" lon="12.43635">
<ele>615</ele>
<time>2011-04-17T13:16:58Z</time>
</trkpt>
<trkpt lat="50.35581" lon="12.43647">
<ele>614</ele>
<time>2011-04-17T13:17:00Z</time>
</trkpt>
<trkpt lat="50.35582" lon="12.43659">
<ele>614</ele>
<time>2011-04-17T13:17:02Z</time>
</trkpt>
<trkpt lat="50.35583" lon="12.4367">
<ele>614</ele>
<time>2011-04-17T13:17:04Z</time>
</trkpt>
<trkpt lat="50.35587" lon="12.43683">
<ele>613</ele>
<time>2011-04-17T13:17:06Z</time>
</trkpt>
<trkpt lat="50.35589" lon="12.43693">
<ele>613</ele>
<time>2011-04-17T13:17:08Z</time>
</trkpt>
<trkpt lat="50.35593" lon="12.43705">
<ele>614</ele>
<time>2011-04-17T13:17:10Z</time>
</trkpt>
<trkpt lat="50.35594" lon="12.43716">
<ele>614</ele>
<time>2011-04-17T13:17:12Z</time>
</trkpt>
<trkpt lat="50.35596" lon="12.43726">
<ele>614</ele>
<time>2011-04-17T13:17:14Z</time>
</trkpt>
<trkpt lat="50.35598" lon="12.43734">
<ele>613</ele>
<time>2011-04-17T13:17:16Z</time>
</trkpt>
<trkpt lat="50.356" lon="12.4374">
<ele>613</ele>
<time>2011-04-17T13:17:18Z</time>
</trkpt>
<trkpt lat="50.356" lon="12.4375">
<ele>614</ele>
<time>2011-04-17T13:17:20Z</time>
</trkpt>
<trkpt lat="50.35601" lon="12.43761">
<ele>614</ele>
<time>2011-04-17T13:17:22Z</time>
</trkpt>
<trkpt lat="50.35602" lon="12.43769">
<ele>615</ele>
<time>2011-04-17T13:17:23Z</time>
</trkpt>
<trkpt lat="50.35603" lon="12.43782">
<ele>615</ele>
<time>2011-04-17T13:17:25Z</time>
</trkpt>
<trkpt lat="50.35606" lon="12.43797">
<ele>613</ele>
<time>2011-04-17T13:17:27Z</time>
</trkpt>
<trkpt lat="50.35606" lon="12.43805">
<ele>612</ele>
<time>2011-04-17T13:17:28Z</time>
</trkpt>
<trkpt lat="50.35609" lon="12.43812">
<ele>611</ele>
<time>2011-04-17T13:17:29Z</time>
</trkpt>
<trkpt lat="50.3561" lon="12.43819">
<ele>610</ele>
<time>2011-04-17T13:17:30Z</time>
</trkpt>
<trkpt lat="50.35612" lon="12.43826">
<ele>611</ele>
<time>2011-04-17T13:17:31Z</time>
</trkpt>
<trkpt lat="50.35615" lon="12.43838">
<ele>610</ele>
<time>2011-04-17T13:17:33Z</time>
</trkpt>
<trkpt lat="50.35618" lon="12.43845">
<ele>610</ele>
<time>2011-04-17T13:17:34Z</time>
</trkpt>
<trkpt lat="50.35622" lon="12.43858">
<ele>610</ele>
<time>2011-04-17T13:17:36Z</time>
</trkpt>
<trkpt lat="50.35625" lon="12.4387">
<ele>611</ele>
<time>2011-04-17T13:17:38Z</time>
</trkpt>
<trkpt lat="50.35627" lon="12.43881">
<ele>610</ele>
<time>2011-04-17T13:17:40Z</time>
</trkpt>
<trkpt lat="50.3563" lon="12.43892">
<ele>611</ele>
<time>2011-04-17T13:17:42Z</time>
</trkpt>
<trkpt lat="50.35631" lon="12.43903">
<ele>611</ele>
<time>2011-04-17T13:17:44Z</time>
</trkpt>
<trkpt lat="50.35634" lon="12.43914">
<ele>612</ele>
<time>2011-04-17T13:17:46Z</time>
</trkpt>
<trkpt lat="50.35638" lon="12.43925">
<ele>614</ele>
<time>2011-04-17T13:17:48Z</time>
</trkpt>
<trkpt lat="50.3564" lon="12.43937">
<ele>614</ele>
<time>2011-04-17T13:17:50Z</time>
</trkpt>
<trkpt lat="50.35642" lon="12.43949">
<ele>615</ele>
<time>2011-04-17T13:17:52Z</time>
</trkpt>
<trkpt lat="50.35643" lon="12.43956">
<ele>614</ele>
<time>2011-04-17T13:17:53Z</time>
</trkpt>
<trkpt lat="50.35646" lon="12.4397">
<ele>613</ele>
<time>2011-04-17T13:17:55Z</time>
</trkpt>
<trkpt lat="50.35647" lon="12.43977">
<ele>613</ele>
<time>2011-04-17T13:17:56Z</time>
</trkpt>
<trkpt lat="50.35647" lon="12.4399">
<ele>613</ele>
<time>2011-04-17T13:17:58Z</time>
</trkpt>
<trkpt lat="50.35648" lon="12.44001">
<ele>613</ele>
<time>2011-04-17T13:18:00Z</time>
</trkpt>
<trkpt lat="50.35649" lon="12.4401">
<ele>613</ele>
<time>2011-04-17T13:18:02Z</time>
</trkpt>
<trkpt lat="50.3565" lon="12.44021">
<ele>612</ele>
<time>2011-04-17T13:18:04Z</time>
</trkpt>
<trkpt lat="50.35652" lon="12.44034">
<ele>611</ele>
<time>2011-04-17T13:18:06Z</time>
</trkpt>
<trkpt lat="50.35652" lon="12.44046">
<ele>611</ele>
<time>2011-04-17T13:18:08Z</time>
</trkpt>
<trkpt lat="50.35656" lon="12.44058">
<ele>612</ele>
<time>2011-04-17T13:18:10Z</time>
</trkpt>
<trkpt lat="50.35657" lon="12.44069">
<ele>611</ele>
<time>2011-04-17T13:18:12Z</time>
</trkpt>
<trkpt lat="50.35658" lon="12.44078">
<ele>611</ele>
<time>2011-04-17T13:18:14Z</time>
</trkpt>
<trkpt lat="50.35659" lon="12.44088">
<ele>612</ele>
<time>2011-04-17T13:18:16Z</time>
</trkpt>
<trkpt lat="50.35661" lon="12.44098">
<ele>612</ele>
<time>2011-04-17T13:18:18Z</time>
</trkpt>
<trkpt lat="50.35662" lon="12.4411">
<ele>611</ele>
<time>2011-04-17T13:18:20Z</time>
</trkpt>
<trkpt lat="50.35666" lon="12.44122">
<ele>611</ele>
<time>2011-04-17T13:18:22Z</time>
</trkpt>
<trkpt lat="50.35667" lon="12.44129">
<ele>611</ele>
<time>2011-04-17T13:18:23Z</time>
</trkpt>
<trkpt lat="50.3567" lon="12.44141">
<ele>611</ele>
<time>2011-04-17T13:18:25Z</time>
</trkpt>
<trkpt lat="50.35671" lon="12.44148">
<ele>610</ele>
<time>2011-04-17T13:18:26Z</time>
</trkpt>
<trkpt lat="50.35671" lon="12.44161">
<ele>611</ele>
<time>2011-04-17T13:18:28Z</time>
</trkpt>
<trkpt lat="50.35672" lon="12.44173">
<ele>612</ele>
<time>2011-04-17T13:18:30Z</time>
</trkpt>
<trkpt lat="50.35673" lon="12.44186">
<ele>613</ele>
<time>2011-04-17T13:18:32Z</time>
</trkpt>
<trkpt lat="50.35673" lon="12.44198">
<ele>613</ele>
<time>2011-04-17T13:18:34Z</time>
</trkpt>
<trkpt lat="50.35673" lon="12.4421">
<ele>613</ele>
<time>2011-04-17T13:18:36Z</time>
</trkpt>
<trkpt lat="50.35674" lon="12.44217">
<ele>612</ele>
<time>2011-04-17T13:18:37Z</time>
</trkpt>
<trkpt lat="50.35673" lon="12.4423">
<ele>612</ele>
<time>2011-04-17T13:18:39Z</time>
</trkpt>
<trkpt lat="50.35673" lon="12.44242">
<ele>612</ele>
<time>2011-04-17T13:18:41Z</time>
</trkpt>
<trkpt lat="50.35673" lon="12.44254">
<ele>611</ele>
<time>2011-04-17T13:18:43Z</time>
</trkpt>
<trkpt lat="50.35672" lon="12.44266">
<ele>611</ele>
<time>2011-04-17T13:18:45Z</time>
</trkpt>
<trkpt lat="50.3567" lon="12.44272">
<ele>611</ele>
<time>2011-04-17T13:18:46Z</time>
</trkpt>
<trkpt lat="50.35668" lon="12.44283">
<ele>611</ele>
<time>2011-04-17T13:18:48Z</time>
</trkpt>
<trkpt lat="50.35667" lon="12.44295">
<ele>611</ele>
<time>2011-04-17T13:18:50Z</time>
</trkpt>
<trkpt lat="50.35667" lon="12.44307">
<ele>610</ele>
<time>2011-04-17T13:18:52Z</time>
</trkpt>
<trkpt lat="50.35666" lon="12.44318">
<ele>610</ele>
<time>2011-04-17T13:18:54Z</time>
</trkpt>
<trkpt lat="50.35666" lon="12.44329">
<ele>610</ele>
<time>2011-04-17T13:18:56Z</time>
</trkpt>
<trkpt lat="50.35667" lon="12.44341">
<ele>609</ele>
<time>2011-04-17T13:18:58Z</time>
</trkpt>
<trkpt lat="50.35667" lon="12.44353">
<ele>608</ele>
<time>2011-04-17T13:19:00Z</time>
</trkpt>
<trkpt lat="50.35667" lon="12.44366">
<ele>607</ele>
<time>2011-04-17T13:19:02Z</time>
</trkpt>
<trkpt lat="50.35667" lon="12.44378">
<ele>607</ele>
<time>2011-04-17T13:19:04Z</time>
</trkpt>
<trkpt lat="50.35667" lon="12.4439">
<ele>608</ele>
<time>2011-04-17T13:19:06Z</time>
</trkpt>
<trkpt lat="50.35667" lon="12.44403">
<ele>607</ele>
<time>2011-04-17T13:19:08Z</time>
</trkpt>
<trkpt lat="50.35667" lon="12.44415">
<ele>608</ele>
<time>2011-04-17T13:19:10Z</time>
</trkpt>
<trkpt lat="50.3567" lon="12.44422">
<ele>607</ele>
<time>2011-04-17T13:19:11Z</time>
</trkpt>
<trkpt lat="50.35669" lon="12.44434">
<ele>608</ele>
<time>2011-04-17T13:19:13Z</time>
</trkpt>
<trkpt lat="50.35668" lon="12.44446">
<ele>608</ele>
<time>2011-04-17T13:19:15Z</time>
</trkpt>
<trkpt lat="50.35667" lon="12.44458">
<ele>607</ele>
<time>2011-04-17T13:19:17Z</time>
</trkpt>
<trkpt lat="50.35667" lon="12.44469">
<ele>607</ele>
<time>2011-04-17T13:19:19Z</time>
</trkpt>
<trkpt lat="50.35668" lon="12.44482">
<ele>607</ele>
<time>2011-04-17T13:19:21Z</time>
</trkpt>
<trkpt lat="50.35668" lon="12.44492">
<ele>607</ele>
<time>2011-04-17T13:19:23Z</time>
</trkpt>
<trkpt lat="50.35668" lon="12.44504">
<ele>607</ele>
<time>2011-04-17T13:19:25Z</time>
</trkpt>
<trkpt lat="50.35667" lon="12.44516">
<ele>607</ele>
<time>2011-04-17T13:19:27Z</time>
</trkpt>
<trkpt lat="50.35664" lon="12.44527">
<ele>606</ele>
<time>2011-04-17T13:19:29Z</time>
</trkpt>
<trkpt lat="50.35662" lon="12.44537">
<ele>606</ele>
<time>2011-04-17T13:19:31Z</time>
</trkpt>
<trkpt lat="50.3566" lon="12.44546">
<ele>606</ele>
<time>2011-04-17T13:19:33Z</time>
</trkpt>
<trkpt lat="50.35658" lon="12.44556">
<ele>606</ele>
<time>2011-04-17T13:19:35Z</time>
</trkpt>
<trkpt lat="50.35653" lon="12.44564">
<ele>606</ele>
<time>2011-04-17T13:19:37Z</time>
</trkpt>
<trkpt lat="50.35649" lon="12.44574">
<ele>606</ele>
<time>2011-04-17T13:19:39Z</time>
</trkpt>
<trkpt lat="50.35646" lon="12.44584">
<ele>606</ele>
<time>2011-04-17T13:19:41Z</time>
</trkpt>
<trkpt lat="50.35642" lon="12.44593">
<ele>606</ele>
<time>2011-04-17T13:19:43Z</time>
</trkpt>
<trkpt lat="50.35639" lon="12.44604">
<ele>606</ele>
<time>2011-04-17T13:19:45Z</time>
</trkpt>
<trkpt lat="50.35634" lon="12.44615">
<ele>606</ele>
<time>2011-04-17T13:19:47Z</time>
</trkpt>
<trkpt lat="50.3563" lon="12.44621">
<ele>606</ele>
<time>2011-04-17T13:19:48Z</time>
</trkpt>
<trkpt lat="50.35624" lon="12.4463">
<ele>605</ele>
<time>2011-04-17T13:19:50Z</time>
</trkpt>
<trkpt lat="50.35619" lon="12.4464">
<ele>604</ele>
<time>2011-04-17T13:19:52Z</time>
</trkpt>
<trkpt lat="50.35617" lon="12.44646">
<ele>605</ele>
<time>2011-04-17T13:19:53Z</time>
</trkpt>
<trkpt lat="50.35614" lon="12.44652">
<ele>605</ele>
<time>2011-04-17T13:19:54Z</time>
</trkpt>
<trkpt lat="50.35609" lon="12.44663">
<ele>605</ele>
<time>2011-04-17T13:19:56Z</time>
</trkpt>
<trkpt lat="50.35605" lon="12.44674">
<ele>605</ele>
<time>2011-04-17T13:19:58Z</time>
</trkpt>
<trkpt lat="50.35601" lon="12.44684">
<ele>605</ele>
<time>2011-04-17T13:20:00Z</time>
</trkpt>
<trkpt lat="50.35597" lon="12.44694">
<ele>604</ele>
<time>2011-04-17T13:20:02Z</time>
</trkpt>
<trkpt lat="50.35593" lon="12.44705">
<ele>605</ele>
<time>2011-04-17T13:20:04Z</time>
</trkpt>
<trkpt lat="50.35589" lon="12.44717">
<ele>605</ele>
<time>2011-04-17T13:20:06Z</time>
</trkpt>
<trkpt lat="50.35584" lon="12.44727">
<ele>606</ele>
<time>2011-04-17T13:20:08Z</time>
</trkpt>
<trkpt lat="50.3558" lon="12.44737">
<ele>605</ele>
<time>2011-04-17T13:20:10Z</time>
</trkpt>
<trkpt lat="50.35577" lon="12.44749">
<ele>606</ele>
<time>2011-04-17T13:20:12Z</time>
</trkpt>
<trkpt lat="50.35574" lon="12.44761">
<ele>605</ele>
<time>2011-04-17T13:20:14Z</time>
</trkpt>
<trkpt lat="50.35571" lon="12.44773">
<ele>606</ele>
<time>2011-04-17T13:20:16Z</time>
</trkpt>
<trkpt lat="50.35568" lon="12.44785">
<ele>605</ele>
<time>2011-04-17T13:20:18Z</time>
</trkpt>
<trkpt lat="50.35566" lon="12.44794">
<ele>605</ele>
<time>2011-04-17T13:20:20Z</time>
</trkpt>
<trkpt lat="50.35563" lon="12.44805">
<ele>604</ele>
<time>2011-04-17T13:20:22Z</time>
</trkpt>
<trkpt lat="50.35561" lon="12.44817">
<ele>604</ele>
<time>2011-04-17T13:20:24Z</time>
</trkpt>
<trkpt lat="50.35559" lon="12.44828">
<ele>604</ele>
<time>2011-04-17T13:20:26Z</time>
</trkpt>
<trkpt lat="50.35557" lon="12.4484">
<ele>604</ele>
<time>2011-04-17T13:20:28Z</time>
</trkpt>
<trkpt lat="50.35556" lon="12.44851">
<ele>603</ele>
<time>2011-04-17T13:20:30Z</time>
</trkpt>
<trkpt lat="50.35555" lon="12.44862">
<ele>603</ele>
<time>2011-04-17T13:20:32Z</time>
</trkpt>
<trkpt lat="50.35554" lon="12.44873">
<ele>602</ele>
<time>2011-04-17T13:20:34Z</time>
</trkpt>
<trkpt lat="50.35554" lon="12.44886">
<ele>602</ele>
<time>2011-04-17T13:20:36Z</time>
</trkpt>
<trkpt lat="50.35553" lon="12.44898">
<ele>602</ele>
<time>2011-04-17T13:20:38Z</time>
</trkpt>
<trkpt lat="50.35553" lon="12.44911">
<ele>602</ele>
<time>2011-04-17T13:20:40Z</time>
</trkpt>
<trkpt lat="50.35552" lon="12.44924">
<ele>602</ele>
<time>2011-04-17T13:20:42Z</time>
</trkpt>
<trkpt lat="50.35551" lon="12.44937">
<ele>603</ele>
<time>2011-04-17T13:20:44Z</time>
</trkpt>
<trkpt lat="50.3555" lon="12.44944">
<ele>603</ele>
<time>2011-04-17T13:20:45Z</time>
</trkpt>
<trkpt lat="50.3555" lon="12.44956">
<ele>604</ele>
<time>2011-04-17T13:20:47Z</time>
</trkpt>
<trkpt lat="50.35549" lon="12.44969">
<ele>604</ele>
<time>2011-04-17T13:20:49Z</time>
</trkpt>
<trkpt lat="50.35549" lon="12.44982">
<ele>604</ele>
<time>2011-04-17T13:20:51Z</time>
</trkpt>
<trkpt lat="50.35548" lon="12.44989">
<ele>604</ele>
<time>2011-04-17T13:20:52Z</time>
</trkpt>
<trkpt lat="50.35546" lon="12.45001">
<ele>604</ele>
<time>2011-04-17T13:20:54Z</time>
</trkpt>
<trkpt lat="50.35546" lon="12.45009">
<ele>605</ele>
<time>2011-04-17T13:20:55Z</time>
</trkpt>
<trkpt lat="50.35545" lon="12.45022">
<ele>604</ele>
<time>2011-04-17T13:20:57Z</time>
</trkpt>
<trkpt lat="50.35545" lon="12.45029">
<ele>605</ele>
<time>2011-04-17T13:20:58Z</time>
</trkpt>
<trkpt lat="50.35546" lon="12.45043">
<ele>606</ele>
<time>2011-04-17T13:21:00Z</time>
</trkpt>
<trkpt lat="50.35545" lon="12.4505">
<ele>606</ele>
<time>2011-04-17T13:21:01Z</time>
</trkpt>
<trkpt lat="50.35547" lon="12.45065">
<ele>607</ele>
<time>2011-04-17T13:21:03Z</time>
</trkpt>
<trkpt lat="50.35545" lon="12.45072">
<ele>607</ele>
<time>2011-04-17T13:21:04Z</time>
</trkpt>
<trkpt lat="50.35543" lon="12.45079">
<ele>609</ele>
<time>2011-04-17T13:21:05Z</time>
</trkpt>
<trkpt lat="50.35543" lon="12.45087">
<ele>608</ele>
<time>2011-04-17T13:21:06Z</time>
</trkpt>
<trkpt lat="50.35543" lon="12.45094">
<ele>607</ele>
<time>2011-04-17T13:21:07Z</time>
</trkpt>
<trkpt lat="50.35543" lon="12.45101">
<ele>608</ele>
<time>2011-04-17T13:21:08Z</time>
</trkpt>
<trkpt lat="50.35543" lon="12.45114">
<ele>607</ele>
<time>2011-04-17T13:21:10Z</time>
</trkpt>
<trkpt lat="50.35544" lon="12.45127">
<ele>607</ele>
<time>2011-04-17T13:21:12Z</time>
</trkpt>
<trkpt lat="50.35545" lon="12.45141">
<ele>607</ele>
<time>2011-04-17T13:21:14Z</time>
</trkpt>
<trkpt lat="50.35545" lon="12.45148">
<ele>607</ele>
<time>2011-04-17T13:21:15Z</time>
</trkpt>
<trkpt lat="50.35546" lon="12.45155">
<ele>607</ele>
<time>2011-04-17T13:21:16Z</time>
</trkpt>
<trkpt lat="50.35546" lon="12.45162">
<ele>607</ele>
<time>2011-04-17T13:21:17Z</time>
</trkpt>
<trkpt lat="50.35548" lon="12.4517">
<ele>607</ele>
<time>2011-04-17T13:21:18Z</time>
</trkpt>
<trkpt lat="50.35549" lon="12.45177">
<ele>607</ele>
<time>2011-04-17T13:21:19Z</time>
</trkpt>
<trkpt lat="50.3555" lon="12.45184">
<ele>607</ele>
<time>2011-04-17T13:21:20Z</time>
</trkpt>
<trkpt lat="50.3555" lon="12.45191">
<ele>607</ele>
<time>2011-04-17T13:21:21Z</time>
</trkpt>
<trkpt lat="50.35552" lon="12.45205">
<ele>606</ele>
<time>2011-04-17T13:21:23Z</time>
</trkpt>
<trkpt lat="50.35553" lon="12.45213">
<ele>606</ele>
<time>2011-04-17T13:21:24Z</time>
</trkpt>
<trkpt lat="50.35554" lon="12.4522">
<ele>606</ele>
<time>2011-04-17T13:21:25Z</time>
</trkpt>
<trkpt lat="50.35555" lon="12.45227">
<ele>606</ele>
<time>2011-04-17T13:21:26Z</time>
</trkpt>
<trkpt lat="50.35557" lon="12.4524">
<ele>606</ele>
<time>2011-04-17T13:21:28Z</time>
</trkpt>
<trkpt lat="50.35558" lon="12.45248">
<ele>605</ele>
<time>2011-04-17T13:21:29Z</time>
</trkpt>
<trkpt lat="50.35559" lon="12.45255">
<ele>605</ele>
<time>2011-04-17T13:21:30Z</time>
</trkpt>
<trkpt lat="50.3556" lon="12.45262">
<ele>606</ele>
<time>2011-04-17T13:21:31Z</time>
</trkpt>
<trkpt lat="50.35562" lon="12.45269">
<ele>606</ele>
<time>2011-04-17T13:21:32Z</time>
</trkpt>
<trkpt lat="50.35562" lon="12.45277">
<ele>605</ele>
<time>2011-04-17T13:21:33Z</time>
</trkpt>
<trkpt lat="50.35564" lon="12.45285">
<ele>605</ele>
<time>2011-04-17T13:21:34Z</time>
</trkpt>
<trkpt lat="50.35565" lon="12.45292">
<ele>605</ele>
<time>2011-04-17T13:21:35Z</time>
</trkpt>
<trkpt lat="50.35567" lon="12.453">
<ele>605</ele>
<time>2011-04-17T13:21:36Z</time>
</trkpt>
<trkpt lat="50.35568" lon="12.45308">
<ele>605</ele>
<time>2011-04-17T13:21:37Z</time>
</trkpt>
<trkpt lat="50.3557" lon="12.45315">
<ele>605</ele>
<time>2011-04-17T13:21:38Z</time>
</trkpt>
<trkpt lat="50.35572" lon="12.45322">
<ele>605</ele>
<time>2011-04-17T13:21:39Z</time>
</trkpt>
<trkpt lat="50.35574" lon="12.4533">
<ele>605</ele>
<time>2011-04-17T13:21:40Z</time>
</trkpt>
<trkpt lat="50.35575" lon="12.45338">
<ele>605</ele>
<time>2011-04-17T13:21:41Z</time>
</trkpt>
<trkpt lat="50.35576" lon="12.45345">
<ele>605</ele>
<time>2011-04-17T13:21:42Z</time>
</trkpt>
<trkpt lat="50.35578" lon="12.45352">
<ele>605</ele>
<time>2011-04-17T13:21:43Z</time>
</trkpt>
<trkpt lat="50.35579" lon="12.4536">
<ele>604</ele>
<time>2011-04-17T13:21:44Z</time>
</trkpt>
<trkpt lat="50.3558" lon="12.45367">
<ele>605</ele>
<time>2011-04-17T13:21:45Z</time>
</trkpt>
<trkpt lat="50.35582" lon="12.45374">
<ele>605</ele>
<time>2011-04-17T13:21:46Z</time>
</trkpt>
<trkpt lat="50.35583" lon="12.45382">
<ele>605</ele>
<time>2011-04-17T13:21:47Z</time>
</trkpt>
<trkpt lat="50.35583" lon="12.45389">
<ele>605</ele>
<time>2011-04-17T13:21:48Z</time>
</trkpt>
<trkpt lat="50.35585" lon="12.45396">
<ele>605</ele>
<time>2011-04-17T13:21:49Z</time>
</trkpt>
<trkpt lat="50.35587" lon="12.45404">
<ele>605</ele>
<time>2011-04-17T13:21:50Z</time>
</trkpt>
<trkpt lat="50.35589" lon="12.45411">
<ele>605</ele>
<time>2011-04-17T13:21:51Z</time>
</trkpt>
<trkpt lat="50.3559" lon="12.45419">
<ele>605</ele>
<time>2011-04-17T13:21:52Z</time>
</trkpt>
<trkpt lat="50.35591" lon="12.45427">
<ele>604</ele>
<time>2011-04-17T13:21:53Z</time>
</trkpt>
<trkpt lat="50.35593" lon="12.45434">
<ele>603</ele>
<time>2011-04-17T13:21:54Z</time>
</trkpt>
<trkpt lat="50.35594" lon="12.45442">
<ele>603</ele>
<time>2011-04-17T13:21:55Z</time>
</trkpt>
<trkpt lat="50.35596" lon="12.45449">
<ele>604</ele>
<time>2011-04-17T13:21:56Z</time>
</trkpt>
<trkpt lat="50.35597" lon="12.45456">
<ele>604</ele>
<time>2011-04-17T13:21:57Z</time>
</trkpt>
<trkpt lat="50.35598" lon="12.45464">
<ele>604</ele>
<time>2011-04-17T13:21:58Z</time>
</trkpt>
<trkpt lat="50.35601" lon="12.45478">
<ele>602</ele>
<time>2011-04-17T13:22:00Z</time>
</trkpt>
<trkpt lat="50.35602" lon="12.45485">
<ele>602</ele>
<time>2011-04-17T13:22:01Z</time>
</trkpt>
<trkpt lat="50.35603" lon="12.45492">
<ele>602</ele>
<time>2011-04-17T13:22:02Z</time>
</trkpt>
<trkpt lat="50.35604" lon="12.455">
<ele>602</ele>
<time>2011-04-17T13:22:03Z</time>
</trkpt>
<trkpt lat="50.35608" lon="12.45514">
<ele>602</ele>
<time>2011-04-17T13:22:05Z</time>
</trkpt>
<trkpt lat="50.35609" lon="12.45522">
<ele>602</ele>
<time>2011-04-17T13:22:06Z</time>
</trkpt>
<trkpt lat="50.35611" lon="12.4553">
<ele>602</ele>
<time>2011-04-17T13:22:07Z</time>
</trkpt>
<trkpt lat="50.35612" lon="12.45537">
<ele>602</ele>
<time>2011-04-17T13:22:08Z</time>
</trkpt>
<trkpt lat="50.35613" lon="12.45545">
<ele>602</ele>
<time>2011-04-17T13:22:09Z</time>
</trkpt>
<trkpt lat="50.35615" lon="12.45553">
<ele>602</ele>
<time>2011-04-17T13:22:10Z</time>
</trkpt>
<trkpt lat="50.35616" lon="12.4556">
<ele>602</ele>
<time>2011-04-17T13:22:11Z</time>
</trkpt>
<trkpt lat="50.35617" lon="12.45568">
<ele>602</ele>
<time>2011-04-17T13:22:12Z</time>
</trkpt>
<trkpt lat="50.35617" lon="12.45575">
<ele>601</ele>
<time>2011-04-17T13:22:13Z</time>
</trkpt>
<trkpt lat="50.35619" lon="12.45582">
<ele>601</ele>
<time>2011-04-17T13:22:14Z</time>
</trkpt>
<trkpt lat="50.3562" lon="12.4559">
<ele>601</ele>
<time>2011-04-17T13:22:15Z</time>
</trkpt>
<trkpt lat="50.35622" lon="12.45597">
<ele>601</ele>
<time>2011-04-17T13:22:16Z</time>
</trkpt>
<trkpt lat="50.35623" lon="12.45604">
<ele>601</ele>
<time>2011-04-17T13:22:17Z</time>
</trkpt>
<trkpt lat="50.35624" lon="12.45611">
<ele>602</ele>
<time>2011-04-17T13:22:18Z</time>
</trkpt>
<trkpt lat="50.35626" lon="12.45618">
<ele>601</ele>
<time>2011-04-17T13:22:19Z</time>
</trkpt>
<trkpt lat="50.35626" lon="12.45625">
<ele>601</ele>
<time>2011-04-17T13:22:20Z</time>
</trkpt>
<trkpt lat="50.35626" lon="12.45632">
<ele>600</ele>
<time>2011-04-17T13:22:21Z</time>
</trkpt>
<trkpt lat="50.35627" lon="12.4564">
<ele>601</ele>
<time>2011-04-17T13:22:22Z</time>
</trkpt>
<trkpt lat="50.35627" lon="12.45647">
<ele>600</ele>
<time>2011-04-17T13:22:23Z</time>
</trkpt>
<trkpt lat="50.35629" lon="12.45654">
<ele>600</ele>
<time>2011-04-17T13:22:24Z</time>
</trkpt>
<trkpt lat="50.3563" lon="12.45661">
<ele>600</ele>
<time>2011-04-17T13:22:25Z</time>
</trkpt>
<trkpt lat="50.35631" lon="12.45669">
<ele>600</ele>
<time>2011-04-17T13:22:26Z</time>
</trkpt>
<trkpt lat="50.35633" lon="12.45677">
<ele>600</ele>
<time>2011-04-17T13:22:27Z</time>
</trkpt>
<trkpt lat="50.35635" lon="12.45685">
<ele>599</ele>
<time>2011-04-17T13:22:28Z</time>
</trkpt>
<trkpt lat="50.35636" lon="12.45692">
<ele>599</ele>
<time>2011-04-17T13:22:29Z</time>
</trkpt>
<trkpt lat="50.35636" lon="12.45699">
<ele>599</ele>
<time>2011-04-17T13:22:30Z</time>
</trkpt>
<trkpt lat="50.35637" lon="12.45707">
<ele>599</ele>
<time>2011-04-17T13:22:31Z</time>
</trkpt>
<trkpt lat="50.35638" lon="12.45714">
<ele>599</ele>
<time>2011-04-17T13:22:32Z</time>
</trkpt>
<trkpt lat="50.35639" lon="12.45722">
<ele>599</ele>
<time>2011-04-17T13:22:33Z</time>
</trkpt>
<trkpt lat="50.35642" lon="12.45736">
<ele>599</ele>
<time>2011-04-17T13:22:35Z</time>
</trkpt>
<trkpt lat="50.35642" lon="12.45743">
<ele>599</ele>
<time>2011-04-17T13:22:36Z</time>
</trkpt>
<trkpt lat="50.35644" lon="12.45751">
<ele>599</ele>
<time>2011-04-17T13:22:37Z</time>
</trkpt>
<trkpt lat="50.35645" lon="12.45759">
<ele>599</ele>
<time>2011-04-17T13:22:38Z</time>
</trkpt>
<trkpt lat="50.35646" lon="12.45768">
<ele>599</ele>
<time>2011-04-17T13:22:39Z</time>
</trkpt>
<trkpt lat="50.35647" lon="12.45776">
<ele>599</ele>
<time>2011-04-17T13:22:40Z</time>
</trkpt>
<trkpt lat="50.35647" lon="12.45784">
<ele>598</ele>
<time>2011-04-17T13:22:41Z</time>
</trkpt>
<trkpt lat="50.35648" lon="12.45792">
<ele>598</ele>
<time>2011-04-17T13:22:42Z</time>
</trkpt>
<trkpt lat="50.35648" lon="12.45801">
<ele>598</ele>
<time>2011-04-17T13:22:43Z</time>
</trkpt>
<trkpt lat="50.35648" lon="12.45809">
<ele>597</ele>
<time>2011-04-17T13:22:44Z</time>
</trkpt>
<trkpt lat="50.35647" lon="12.45816">
<ele>596</ele>
<time>2011-04-17T13:22:45Z</time>
</trkpt>
<trkpt lat="50.35647" lon="12.45825">
<ele>596</ele>
<time>2011-04-17T13:22:46Z</time>
</trkpt>
<trkpt lat="50.35646" lon="12.45834">
<ele>596</ele>
<time>2011-04-17T13:22:47Z</time>
</trkpt>
<trkpt lat="50.35646" lon="12.45843">
<ele>596</ele>
<time>2011-04-17T13:22:48Z</time>
</trkpt>
<trkpt lat="50.35646" lon="12.45852">
<ele>596</ele>
<time>2011-04-17T13:22:49Z</time>
</trkpt>
<trkpt lat="50.35644" lon="12.4586">
<ele>595</ele>
<time>2011-04-17T13:22:50Z</time>
</trkpt>
<trkpt lat="50.35643" lon="12.45868">
<ele>595</ele>
<time>2011-04-17T13:22:51Z</time>
</trkpt>
<trkpt lat="50.35644" lon="12.45878">
<ele>594</ele>
<time>2011-04-17T13:22:52Z</time>
</trkpt>
<trkpt lat="50.35645" lon="12.45886">
<ele>594</ele>
<time>2011-04-17T13:22:53Z</time>
</trkpt>
<trkpt lat="50.35646" lon="12.45895">
<ele>594</ele>
<time>2011-04-17T13:22:54Z</time>
</trkpt>
<trkpt lat="50.35646" lon="12.45904">
<ele>594</ele>
<time>2011-04-17T13:22:55Z</time>
</trkpt>
<trkpt lat="50.35646" lon="12.45913">
<ele>594</ele>
<time>2011-04-17T13:22:56Z</time>
</trkpt>
<trkpt lat="50.35646" lon="12.45922">
<ele>593</ele>
<time>2011-04-17T13:22:57Z</time>
</trkpt>
<trkpt lat="50.35645" lon="12.45931">
<ele>593</ele>
<time>2011-04-17T13:22:58Z</time>
</trkpt>
<trkpt lat="50.35645" lon="12.4594">
<ele>593</ele>
<time>2011-04-17T13:22:59Z</time>
</trkpt>
<trkpt lat="50.35644" lon="12.45949">
<ele>593</ele>
<time>2011-04-17T13:23:00Z</time>
</trkpt>
<trkpt lat="50.35642" lon="12.45956">
<ele>593</ele>
<time>2011-04-17T13:23:01Z</time>
</trkpt>
<trkpt lat="50.3564" lon="12.45966">
<ele>592</ele>
<time>2011-04-17T13:23:02Z</time>
</trkpt>
<trkpt lat="50.3564" lon="12.45975">
<ele>592</ele>
<time>2011-04-17T13:23:03Z</time>
</trkpt>
<trkpt lat="50.35639" lon="12.45983">
<ele>592</ele>
<time>2011-04-17T13:23:04Z</time>
</trkpt>
<trkpt lat="50.35639" lon="12.45996">
<ele>592</ele>
<time>2011-04-17T13:23:06Z</time>
</trkpt>
<trkpt lat="50.35639" lon="12.46004">
<ele>592</ele>
<time>2011-04-17T13:23:07Z</time>
</trkpt>
<trkpt lat="50.35639" lon="12.46018">
<ele>593</ele>
<time>2011-04-17T13:23:09Z</time>
</trkpt>
<trkpt lat="50.35638" lon="12.46027">
<ele>593</ele>
<time>2011-04-17T13:23:10Z</time>
</trkpt>
<trkpt lat="50.35638" lon="12.46041">
<ele>592</ele>
<time>2011-04-17T13:23:12Z</time>
</trkpt>
<trkpt lat="50.35638" lon="12.46049">
<ele>592</ele>
<time>2011-04-17T13:23:13Z</time>
</trkpt>
<trkpt lat="50.35637" lon="12.46064">
<ele>593</ele>
<time>2011-04-17T13:23:15Z</time>
</trkpt>
<trkpt lat="50.35636" lon="12.46076">
<ele>592</ele>
<time>2011-04-17T13:23:17Z</time>
</trkpt>
<trkpt lat="50.35636" lon="12.46084">
<ele>592</ele>
<time>2011-04-17T13:23:18Z</time>
</trkpt>
<trkpt lat="50.35632" lon="12.46092">
<ele>592</ele>
<time>2011-04-17T13:23:19Z</time>
</trkpt>
<trkpt lat="50.35628" lon="12.46099">
<ele>592</ele>
<time>2011-04-17T13:23:20Z</time>
</trkpt>
<trkpt lat="50.35626" lon="12.46106">
<ele>591</ele>
<time>2011-04-17T13:23:21Z</time>
</trkpt>
<trkpt lat="50.35623" lon="12.46112">
<ele>591</ele>
<time>2011-04-17T13:23:22Z</time>
</trkpt>
<trkpt lat="50.35618" lon="12.46118">
<ele>591</ele>
<time>2011-04-17T13:23:23Z</time>
</trkpt>
<trkpt lat="50.35615" lon="12.46125">
<ele>592</ele>
<time>2011-04-17T13:23:24Z</time>
</trkpt>
<trkpt lat="50.35611" lon="12.46136">
<ele>593</ele>
<time>2011-04-17T13:23:25Z</time>
</trkpt>
<trkpt lat="50.35609" lon="12.46143">
<ele>592</ele>
<time>2011-04-17T13:23:26Z</time>
</trkpt>
<trkpt lat="50.35607" lon="12.46152">
<ele>592</ele>
<time>2011-04-17T13:23:27Z</time>
</trkpt>
<trkpt lat="50.35605" lon="12.46159">
<ele>592</ele>
<time>2011-04-17T13:23:28Z</time>
</trkpt>
<trkpt lat="50.35604" lon="12.46166">
<ele>592</ele>
<time>2011-04-17T13:23:29Z</time>
</trkpt>
<trkpt lat="50.35602" lon="12.46174">
<ele>593</ele>
<time>2011-04-17T13:23:30Z</time>
</trkpt>
<trkpt lat="50.356" lon="12.46182">
<ele>593</ele>
<time>2011-04-17T13:23:31Z</time>
</trkpt>
<trkpt lat="50.35598" lon="12.46189">
<ele>593</ele>
<time>2011-04-17T13:23:32Z</time>
</trkpt>
<trkpt lat="50.35596" lon="12.46197">
<ele>593</ele>
<time>2011-04-17T13:23:33Z</time>
</trkpt>
<trkpt lat="50.35596" lon="12.46204">
<ele>594</ele>
<time>2011-04-17T13:23:34Z</time>
</trkpt>
<trkpt lat="50.35595" lon="12.46211">
<ele>593</ele>
<time>2011-04-17T13:23:35Z</time>
</trkpt>
<trkpt lat="50.35591" lon="12.46218">
<ele>593</ele>
<time>2011-04-17T13:23:36Z</time>
</trkpt>
<trkpt lat="50.35589" lon="12.46224">
<ele>593</ele>
<time>2011-04-17T13:23:37Z</time>
</trkpt>
<trkpt lat="50.35586" lon="12.46232">
<ele>593</ele>
<time>2011-04-17T13:23:38Z</time>
</trkpt>
<trkpt lat="50.35584" lon="12.46239">
<ele>592</ele>
<time>2011-04-17T13:23:39Z</time>
</trkpt>
<trkpt lat="50.35582" lon="12.46246">
<ele>592</ele>
<time>2011-04-17T13:23:40Z</time>
</trkpt>
<trkpt lat="50.3558" lon="12.46258">
<ele>592</ele>
<time>2011-04-17T13:23:42Z</time>
</trkpt>
<trkpt lat="50.35579" lon="12.46271">
<ele>591</ele>
<time>2011-04-17T13:23:44Z</time>
</trkpt>
<trkpt lat="50.35579" lon="12.46278">
<ele>591</ele>
<time>2011-04-17T13:23:45Z</time>
</trkpt>
<trkpt lat="50.35577" lon="12.46286">
<ele>591</ele>
<time>2011-04-17T13:23:46Z</time>
</trkpt>
<trkpt lat="50.35576" lon="12.46293">
<ele>591</ele>
<time>2011-04-17T13:23:47Z</time>
</trkpt>
<trkpt lat="50.35574" lon="12.46301">
<ele>590</ele>
<time>2011-04-17T13:23:48Z</time>
</trkpt>
<trkpt lat="50.35571" lon="12.46315">
<ele>590</ele>
<time>2011-04-17T13:23:50Z</time>
</trkpt>
<trkpt lat="50.35569" lon="12.46322">
<ele>589</ele>
<time>2011-04-17T13:23:51Z</time>
</trkpt>
<trkpt lat="50.35567" lon="12.46329">
<ele>589</ele>
<time>2011-04-17T13:23:52Z</time>
</trkpt>
<trkpt lat="50.35565" lon="12.46337">
<ele>590</ele>
<time>2011-04-17T13:23:53Z</time>
</trkpt>
<trkpt lat="50.35564" lon="12.46344">
<ele>590</ele>
<time>2011-04-17T13:23:54Z</time>
</trkpt>
<trkpt lat="50.35562" lon="12.46353">
<ele>590</ele>
<time>2011-04-17T13:23:55Z</time>
</trkpt>
<trkpt lat="50.3556" lon="12.46361">
<ele>590</ele>
<time>2011-04-17T13:23:56Z</time>
</trkpt>
<trkpt lat="50.35558" lon="12.46367">
<ele>590</ele>
<time>2011-04-17T13:23:57Z</time>
</trkpt>
<trkpt lat="50.35554" lon="12.46374">
<ele>590</ele>
<time>2011-04-17T13:23:58Z</time>
</trkpt>
<trkpt lat="50.35554" lon="12.46381">
<ele>590</ele>
<time>2011-04-17T13:23:59Z</time>
</trkpt>
<trkpt lat="50.35554" lon="12.46389">
<ele>590</ele>
<time>2011-04-17T13:24:00Z</time>
</trkpt>
<trkpt lat="50.35554" lon="12.46397">
<ele>590</ele>
<time>2011-04-17T13:24:01Z</time>
</trkpt>
<trkpt lat="50.35553" lon="12.46404">
<ele>590</ele>
<time>2011-04-17T13:24:02Z</time>
</trkpt>
<trkpt lat="50.35553" lon="12.46411">
<ele>590</ele>
<time>2011-04-17T13:24:03Z</time>
</trkpt>
<trkpt lat="50.35552" lon="12.46419">
<ele>591</ele>
<time>2011-04-17T13:24:04Z</time>
</trkpt>
<trkpt lat="50.35551" lon="12.46426">
<ele>590</ele>
<time>2011-04-17T13:24:05Z</time>
</trkpt>
<trkpt lat="50.35551" lon="12.46434">
<ele>591</ele>
<time>2011-04-17T13:24:06Z</time>
</trkpt>
<trkpt lat="50.35553" lon="12.46442">
<ele>590</ele>
<time>2011-04-17T13:24:07Z</time>
</trkpt>
<trkpt lat="50.35553" lon="12.46449">
<ele>591</ele>
<time>2011-04-17T13:24:08Z</time>
</trkpt>
<trkpt lat="50.35552" lon="12.46457">
<ele>591</ele>
<time>2011-04-17T13:24:09Z</time>
</trkpt>
<trkpt lat="50.35552" lon="12.46464">
<ele>591</ele>
<time>2011-04-17T13:24:10Z</time>
</trkpt>
<trkpt lat="50.35552" lon="12.46472">
<ele>590</ele>
<time>2011-04-17T13:24:11Z</time>
</trkpt>
<trkpt lat="50.35552" lon="12.4648">
<ele>590</ele>
<time>2011-04-17T13:24:12Z</time>
</trkpt>
<trkpt lat="50.35552" lon="12.46487">
<ele>590</ele>
<time>2011-04-17T13:24:13Z</time>
</trkpt>
<trkpt lat="50.35549" lon="12.46501">
<ele>589</ele>
<time>2011-04-17T13:24:15Z</time>
</trkpt>
<trkpt lat="50.35549" lon="12.46515">
<ele>588</ele>
<time>2011-04-17T13:24:17Z</time>
</trkpt>
<trkpt lat="50.35549" lon="12.46529">
<ele>589</ele>
<time>2011-04-17T13:24:19Z</time>
</trkpt>
<trkpt lat="50.35546" lon="12.46543">
<ele>589</ele>
<time>2011-04-17T13:24:21Z</time>
</trkpt>
<trkpt lat="50.35546" lon="12.4655">
<ele>590</ele>
<time>2011-04-17T13:24:22Z</time>
</trkpt>
<trkpt lat="50.35545" lon="12.46557">
<ele>590</ele>
<time>2011-04-17T13:24:23Z</time>
</trkpt>
<trkpt lat="50.35545" lon="12.46568">
<ele>587</ele>
<time>2011-04-17T13:24:25Z</time>
</trkpt>
<trkpt lat="50.35544" lon="12.46575">
<ele>585</ele>
<time>2011-04-17T13:24:26Z</time>
</trkpt>
<trkpt lat="50.35542" lon="12.46586">
<ele>584</ele>
<time>2011-04-17T13:24:28Z</time>
</trkpt>
<trkpt lat="50.35541" lon="12.46594">
<ele>584</ele>
<time>2011-04-17T13:24:30Z</time>
</trkpt>
<trkpt lat="50.3554" lon="12.46603">
<ele>583</ele>
<time>2011-04-17T13:24:32Z</time>
</trkpt>
<trkpt lat="50.35537" lon="12.46611">
<ele>583</ele>
<time>2011-04-17T13:24:33Z</time>
</trkpt>
<trkpt lat="50.35533" lon="12.46619">
<ele>584</ele>
<time>2011-04-17T13:24:34Z</time>
</trkpt>
<trkpt lat="50.3553" lon="12.46627">
<ele>583</ele>
<time>2011-04-17T13:24:35Z</time>
</trkpt>
<trkpt lat="50.35527" lon="12.46634">
<ele>583</ele>
<time>2011-04-17T13:24:36Z</time>
</trkpt>
<trkpt lat="50.35524" lon="12.4664">
<ele>583</ele>
<time>2011-04-17T13:24:37Z</time>
</trkpt>
<trkpt lat="50.35523" lon="12.46647">
<ele>583</ele>
<time>2011-04-17T13:24:38Z</time>
</trkpt>
<trkpt lat="50.35522" lon="12.46656">
<ele>583</ele>
<time>2011-04-17T13:24:39Z</time>
</trkpt>
<trkpt lat="50.35521" lon="12.46664">
<ele>583</ele>
<time>2011-04-17T13:24:40Z</time>
</trkpt>
<trkpt lat="50.35521" lon="12.46671">
<ele>583</ele>
<time>2011-04-17T13:24:41Z</time>
</trkpt>
<trkpt lat="50.3552" lon="12.46678">
<ele>583</ele>
<time>2011-04-17T13:24:42Z</time>
</trkpt>
<trkpt lat="50.3552" lon="12.46686">
<ele>583</ele>
<time>2011-04-17T13:24:43Z</time>
</trkpt>
<trkpt lat="50.35519" lon="12.46694">
<ele>583</ele>
<time>2011-04-17T13:24:44Z</time>
</trkpt>
<trkpt lat="50.35518" lon="12.46702">
<ele>583</ele>
<time>2011-04-17T13:24:45Z</time>
</trkpt>
<trkpt lat="50.35515" lon="12.46715">
<ele>583</ele>
<time>2011-04-17T13:24:47Z</time>
</trkpt>
<trkpt lat="50.35514" lon="12.46728">
<ele>582</ele>
<time>2011-04-17T13:24:49Z</time>
</trkpt>
<trkpt lat="50.35513" lon="12.46739">
<ele>582</ele>
<time>2011-04-17T13:24:51Z</time>
</trkpt>
<trkpt lat="50.35512" lon="12.46749">
<ele>583</ele>
<time>2011-04-17T13:24:53Z</time>
</trkpt>
<trkpt lat="50.35516" lon="12.4676">
<ele>586</ele>
<time>2011-04-17T13:24:55Z</time>
</trkpt>
<trkpt lat="50.35519" lon="12.46765">
<ele>587</ele>
<time>2011-04-17T13:24:56Z</time>
</trkpt>
<trkpt lat="50.35523" lon="12.46775">
<ele>589</ele>
<time>2011-04-17T13:24:58Z</time>
</trkpt>
<trkpt lat="50.35524" lon="12.46786">
<ele>597</ele>
<time>2011-04-17T13:25:00Z</time>
</trkpt>
<trkpt lat="50.3552" lon="12.46792">
<ele>600</ele>
<time>2011-04-17T13:25:02Z</time>
</trkpt>
<trkpt lat="50.35525" lon="12.46801">
<ele>599</ele>
<time>2011-04-17T13:25:03Z</time>
</trkpt>
<trkpt lat="50.35527" lon="12.46809">
<ele>599</ele>
<time>2011-04-17T13:25:04Z</time>
</trkpt>
<trkpt lat="50.3553" lon="12.46818">
<ele>599</ele>
<time>2011-04-17T13:25:06Z</time>
</trkpt>
<trkpt lat="50.35538" lon="12.46816">
<ele>599</ele>
<time>2011-04-17T13:25:08Z</time>
</trkpt>
<trkpt lat="50.35547" lon="12.46815">
<ele>598</ele>
<time>2011-04-17T13:25:10Z</time>
</trkpt>
<trkpt lat="50.35554" lon="12.46817">
<ele>598</ele>
<time>2011-04-17T13:25:12Z</time>
</trkpt>
<trkpt lat="50.35561" lon="12.46821">
<ele>599</ele>
<time>2011-04-17T13:25:14Z</time>
</trkpt>
<trkpt lat="50.35567" lon="12.46824">
<ele>601</ele>
<time>2011-04-17T13:25:16Z</time>
</trkpt>
<trkpt lat="50.35572" lon="12.46827">
<ele>602</ele>
<time>2011-04-17T13:25:18Z</time>
</trkpt>
<trkpt lat="50.35578" lon="12.46831">
<ele>603</ele>
<time>2011-04-17T13:25:20Z</time>
</trkpt>
<trkpt lat="50.35582" lon="12.46835">
<ele>603</ele>
<time>2011-04-17T13:25:22Z</time>
</trkpt>
<trkpt lat="50.35587" lon="12.46841">
<ele>604</ele>
<time>2011-04-17T13:25:24Z</time>
</trkpt>
<trkpt lat="50.3559" lon="12.46846">
<ele>605</ele>
<time>2011-04-17T13:25:26Z</time>
</trkpt>
<trkpt lat="50.35597" lon="12.46854">
<ele>605</ele>
<time>2011-04-17T13:25:28Z</time>
</trkpt>
<trkpt lat="50.35601" lon="12.46861">
<ele>605</ele>
<time>2011-04-17T13:25:29Z</time>
</trkpt>
<trkpt lat="50.35604" lon="12.46866">
<ele>605</ele>
<time>2011-04-17T13:25:31Z</time>
</trkpt>
<trkpt lat="50.35609" lon="12.4687">
<ele>605</ele>
<time>2011-04-17T13:25:34Z</time>
</trkpt>
<trkpt lat="50.35612" lon="12.46876">
<ele>605</ele>
<time>2011-04-17T13:25:36Z</time>
</trkpt>
<trkpt lat="50.35618" lon="12.46883">
<ele>605</ele>
<time>2011-04-17T13:25:38Z</time>
</trkpt>
<trkpt lat="50.35623" lon="12.46889">
<ele>604</ele>
<time>2011-04-17T13:25:40Z</time>
</trkpt>
<trkpt lat="50.35628" lon="12.4689">
<ele>605</ele>
<time>2011-04-17T13:25:41Z</time>
</trkpt>
<trkpt lat="50.35632" lon="12.46894">
<ele>604</ele>
<time>2011-04-17T13:25:42Z</time>
</trkpt>
<trkpt lat="50.35638" lon="12.469">
<ele>604</ele>
<time>2011-04-17T13:25:44Z</time>
</trkpt>
<trkpt lat="50.35645" lon="12.46905">
<ele>605</ele>
<time>2011-04-17T13:25:46Z</time>
</trkpt>
<trkpt lat="50.35651" lon="12.4691">
<ele>605</ele>
<time>2011-04-17T13:25:48Z</time>
</trkpt>
<trkpt lat="50.35656" lon="12.46914">
<ele>606</ele>
<time>2011-04-17T13:25:50Z</time>
</trkpt>
<trkpt lat="50.35662" lon="12.46919">
<ele>607</ele>
<time>2011-04-17T13:25:52Z</time>
</trkpt>
<trkpt lat="50.3567" lon="12.46923">
<ele>608</ele>
<time>2011-04-17T13:25:54Z</time>
</trkpt>
<trkpt lat="50.35678" lon="12.46927">
<ele>610</ele>
<time>2011-04-17T13:25:56Z</time>
</trkpt>
<trkpt lat="50.35685" lon="12.46929">
<ele>613</ele>
<time>2011-04-17T13:25:57Z</time>
</trkpt>
<trkpt lat="50.35692" lon="12.46934">
<ele>617</ele>
<time>2011-04-17T13:25:59Z</time>
</trkpt>
<trkpt lat="50.35699" lon="12.46938">
<ele>618</ele>
<time>2011-04-17T13:26:01Z</time>
</trkpt>
<trkpt lat="50.35705" lon="12.46943">
<ele>619</ele>
<time>2011-04-17T13:26:03Z</time>
</trkpt>
<trkpt lat="50.35709" lon="12.46948">
<ele>618</ele>
<time>2011-04-17T13:26:05Z</time>
</trkpt>
<trkpt lat="50.35714" lon="12.46953">
<ele>618</ele>
<time>2011-04-17T13:26:07Z</time>
</trkpt>
<trkpt lat="50.35719" lon="12.46955">
<ele>617</ele>
<time>2011-04-17T13:26:08Z</time>
</trkpt>
<trkpt lat="50.35725" lon="12.46957">
<ele>616</ele>
<time>2011-04-17T13:26:10Z</time>
</trkpt>
<trkpt lat="50.35731" lon="12.4696">
<ele>615</ele>
<time>2011-04-17T13:26:12Z</time>
</trkpt>
<trkpt lat="50.35736" lon="12.46963">
<ele>616</ele>
<time>2011-04-17T13:26:14Z</time>
</trkpt>
<trkpt lat="50.35741" lon="12.46968">
<ele>615</ele>
<time>2011-04-17T13:26:16Z</time>
</trkpt>
<trkpt lat="50.35746" lon="12.46972">
<ele>615</ele>
<time>2011-04-17T13:26:19Z</time>
</trkpt>
<trkpt lat="50.35751" lon="12.46969">
<ele>618</ele>
<time>2011-04-17T13:28:11Z</time>
</trkpt>
<trkpt lat="50.35758" lon="12.46974">
<ele>617</ele>
<time>2011-04-17T13:28:14Z</time>
</trkpt>
<trkpt lat="50.35764" lon="12.46979">
<ele>616</ele>
<time>2011-04-17T13:28:17Z</time>
</trkpt>
<trkpt lat="50.3577" lon="12.4698">
<ele>616</ele>
<time>2011-04-17T13:28:19Z</time>
</trkpt>
<trkpt lat="50.35777" lon="12.46974">
<ele>616</ele>
<time>2011-04-17T13:28:21Z</time>
</trkpt>
<trkpt lat="50.35782" lon="12.46971">
<ele>617</ele>
<time>2011-04-17T13:28:23Z</time>
</trkpt>
<trkpt lat="50.35788" lon="12.46974">
<ele>616</ele>
<time>2011-04-17T13:28:25Z</time>
</trkpt>
<trkpt lat="50.35793" lon="12.46976">
<ele>615</ele>
<time>2011-04-17T13:28:27Z</time>
</trkpt>
<trkpt lat="50.35799" lon="12.46976">
<ele>615</ele>
<time>2011-04-17T13:28:29Z</time>
</trkpt>
<trkpt lat="50.35806" lon="12.46977">
<ele>614</ele>
<time>2011-04-17T13:28:32Z</time>
</trkpt>
<trkpt lat="50.35811" lon="12.46976">
<ele>612</ele>
<time>2011-04-17T13:28:34Z</time>
</trkpt>
<trkpt lat="50.35817" lon="12.46976">
<ele>611</ele>
<time>2011-04-17T13:28:37Z</time>
</trkpt>
<trkpt lat="50.35823" lon="12.4698">
<ele>611</ele>
<time>2011-04-17T13:28:39Z</time>
</trkpt>
<trkpt lat="50.35828" lon="12.46986">
<ele>610</ele>
<time>2011-04-17T13:28:41Z</time>
</trkpt>
<trkpt lat="50.35833" lon="12.46985">
<ele>608</ele>
<time>2011-04-17T13:28:43Z</time>
</trkpt>
<trkpt lat="50.35838" lon="12.46985">
<ele>608</ele>
<time>2011-04-17T13:28:45Z</time>
</trkpt>
<trkpt lat="50.35842" lon="12.46984">
<ele>606</ele>
<time>2011-04-17T13:28:47Z</time>
</trkpt>
<trkpt lat="50.35851" lon="12.46986">
<ele>607</ele>
<time>2011-04-17T13:28:49Z</time>
</trkpt>
<trkpt lat="50.35856" lon="12.46987">
<ele>607</ele>
<time>2011-04-17T13:28:51Z</time>
</trkpt>
<trkpt lat="50.35864" lon="12.46988">
<ele>608</ele>
<time>2011-04-17T13:28:53Z</time>
</trkpt>
<trkpt lat="50.35869" lon="12.46985">
<ele>608</ele>
<time>2011-04-17T13:28:54Z</time>
</trkpt>
<trkpt lat="50.35875" lon="12.46984">
<ele>606</ele>
<time>2011-04-17T13:28:56Z</time>
</trkpt>
<trkpt lat="50.35884" lon="12.46985">
<ele>606</ele>
<time>2011-04-17T13:28:58Z</time>
</trkpt>
<trkpt lat="50.35891" lon="12.46982">
<ele>606</ele>
<time>2011-04-17T13:29:00Z</time>
</trkpt>
<trkpt lat="50.35896" lon="12.46982">
<ele>605</ele>
<time>2011-04-17T13:29:02Z</time>
</trkpt>
<trkpt lat="50.35903" lon="12.46982">
<ele>603</ele>
<time>2011-04-17T13:29:04Z</time>
</trkpt>
<trkpt lat="50.35908" lon="12.46983">
<ele>604</ele>
<time>2011-04-17T13:29:06Z</time>
</trkpt>
<trkpt lat="50.35914" lon="12.46982">
<ele>604</ele>
<time>2011-04-17T13:29:08Z</time>
</trkpt>
<trkpt lat="50.3592" lon="12.46983">
<ele>605</ele>
<time>2011-04-17T13:29:10Z</time>
</trkpt>
<trkpt lat="50.35925" lon="12.46985">
<ele>606</ele>
<time>2011-04-17T13:29:12Z</time>
</trkpt>
<trkpt lat="50.35933" lon="12.46986">
<ele>608</ele>
<time>2011-04-17T13:29:14Z</time>
</trkpt>
<trkpt lat="50.35937" lon="12.46983">
<ele>610</ele>
<time>2011-04-17T13:29:16Z</time>
</trkpt>
<trkpt lat="50.35942" lon="12.46984">
<ele>610</ele>
<time>2011-04-17T13:29:18Z</time>
</trkpt>
<trkpt lat="50.35949" lon="12.46986">
<ele>610</ele>
<time>2011-04-17T13:29:20Z</time>
</trkpt>
<trkpt lat="50.35955" lon="12.46988">
<ele>610</ele>
<time>2011-04-17T13:29:22Z</time>
</trkpt>
<trkpt lat="50.35961" lon="12.46993">
<ele>610</ele>
<time>2011-04-17T13:29:24Z</time>
</trkpt>
<trkpt lat="50.35965" lon="12.46996">
<ele>610</ele>
<time>2011-04-17T13:29:25Z</time>
</trkpt>
<trkpt lat="50.3597" lon="12.46995">
<ele>611</ele>
<time>2011-04-17T13:29:26Z</time>
</trkpt>
<trkpt lat="50.35977" lon="12.46996">
<ele>610</ele>
<time>2011-04-17T13:29:28Z</time>
</trkpt>
<trkpt lat="50.35984" lon="12.46999">
<ele>610</ele>
<time>2011-04-17T13:29:30Z</time>
</trkpt>
<trkpt lat="50.3599" lon="12.46999">
<ele>610</ele>
<time>2011-04-17T13:29:32Z</time>
</trkpt>
<trkpt lat="50.35994" lon="12.47001">
<ele>609</ele>
<time>2011-04-17T13:29:34Z</time>
</trkpt>
<trkpt lat="50.36002" lon="12.47002">
<ele>609</ele>
<time>2011-04-17T13:29:37Z</time>
</trkpt>
<trkpt lat="50.36008" lon="12.47003">
<ele>609</ele>
<time>2011-04-17T13:29:39Z</time>
</trkpt>
<trkpt lat="50.36016" lon="12.47004">
<ele>609</ele>
<time>2011-04-17T13:29:41Z</time>
</trkpt>
<trkpt lat="50.36022" lon="12.47006">
<ele>609</ele>
<time>2011-04-17T13:29:43Z</time>
</trkpt>
<trkpt lat="50.36029" lon="12.47008">
<ele>609</ele>
<time>2011-04-17T13:29:45Z</time>
</trkpt>
<trkpt lat="50.36036" lon="12.4701">
<ele>609</ele>
<time>2011-04-17T13:29:47Z</time>
</trkpt>
<trkpt lat="50.36042" lon="12.47012">
<ele>609</ele>
<time>2011-04-17T13:29:49Z</time>
</trkpt>
<trkpt lat="50.36046" lon="12.47012">
<ele>609</ele>
<time>2011-04-17T13:29:51Z</time>
</trkpt>
<trkpt lat="50.36052" lon="12.47013">
<ele>608</ele>
<time>2011-04-17T13:29:52Z</time>
</trkpt>
<trkpt lat="50.3606" lon="12.47014">
<ele>607</ele>
<time>2011-04-17T13:29:54Z</time>
</trkpt>
<trkpt lat="50.36067" lon="12.47016">
<ele>607</ele>
<time>2011-04-17T13:29:56Z</time>
</trkpt>
<trkpt lat="50.36074" lon="12.47017">
<ele>607</ele>
<time>2011-04-17T13:29:58Z</time>
</trkpt>
<trkpt lat="50.36081" lon="12.47017">
<ele>607</ele>
<time>2011-04-17T13:30:00Z</time>
</trkpt>
<trkpt lat="50.36087" lon="12.47018">
<ele>607</ele>
<time>2011-04-17T13:30:02Z</time>
</trkpt>
<trkpt lat="50.36092" lon="12.47018">
<ele>609</ele>
<time>2011-04-17T13:30:04Z</time>
</trkpt>
<trkpt lat="50.36099" lon="12.47018">
<ele>609</ele>
<time>2011-04-17T13:30:06Z</time>
</trkpt>
<trkpt lat="50.36104" lon="12.47018">
<ele>608</ele>
<time>2011-04-17T13:30:08Z</time>
</trkpt>
<trkpt lat="50.36106" lon="12.47007">
<ele>609</ele>
<time>2011-04-17T13:30:10Z</time>
</trkpt>
<trkpt lat="50.36109" lon="12.46998">
<ele>607</ele>
<time>2011-04-17T13:30:13Z</time>
</trkpt>
<trkpt lat="50.36109" lon="12.4699">
<ele>606</ele>
<time>2011-04-17T13:30:15Z</time>
</trkpt>
<trkpt lat="50.36109" lon="12.46982">
<ele>606</ele>
<time>2011-04-17T13:30:17Z</time>
</trkpt>
<trkpt lat="50.36107" lon="12.46972">
<ele>606</ele>
<time>2011-04-17T13:30:19Z</time>
</trkpt>
<trkpt lat="50.36106" lon="12.46963">
<ele>606</ele>
<time>2011-04-17T13:30:21Z</time>
</trkpt>
<trkpt lat="50.36106" lon="12.46956">
<ele>606</ele>
<time>2011-04-17T13:30:23Z</time>
</trkpt>
<trkpt lat="50.36105" lon="12.46947">
<ele>606</ele>
<time>2011-04-17T13:30:25Z</time>
</trkpt>
<trkpt lat="50.36106" lon="12.46939">
<ele>606</ele>
<time>2011-04-17T13:30:26Z</time>
</trkpt>
<trkpt lat="50.36105" lon="12.46928">
<ele>609</ele>
<time>2011-04-17T13:30:28Z</time>
</trkpt>
<trkpt lat="50.36105" lon="12.46917">
<ele>609</ele>
<time>2011-04-17T13:30:30Z</time>
</trkpt>
<trkpt lat="50.36106" lon="12.46907">
<ele>609</ele>
<time>2011-04-17T13:30:32Z</time>
</trkpt>
<trkpt lat="50.36105" lon="12.469">
<ele>609</ele>
<time>2011-04-17T13:30:34Z</time>
</trkpt>
<trkpt lat="50.36103" lon="12.46891">
<ele>608</ele>
<time>2011-04-17T13:30:36Z</time>
</trkpt>
<trkpt lat="50.36101" lon="12.46882">
<ele>610</ele>
<time>2011-04-17T13:30:38Z</time>
</trkpt>
<trkpt lat="50.361" lon="12.46873">
<ele>610</ele>
<time>2011-04-17T13:30:41Z</time>
</trkpt>
<trkpt lat="50.36098" lon="12.46863">
<ele>611</ele>
<time>2011-04-17T13:30:44Z</time>
</trkpt>
<trkpt lat="50.36097" lon="12.46854">
<ele>610</ele>
<time>2011-04-17T13:30:47Z</time>
</trkpt>
<trkpt lat="50.36099" lon="12.46843">
<ele>608</ele>
<time>2011-04-17T13:30:49Z</time>
</trkpt>
<trkpt lat="50.36101" lon="12.46837">
<ele>605</ele>
<time>2011-04-17T13:30:51Z</time>
</trkpt>
<trkpt lat="50.36101" lon="12.46828">
<ele>609</ele>
<time>2011-04-17T13:30:55Z</time>
</trkpt>
<trkpt lat="50.36103" lon="12.4682">
<ele>607</ele>
<time>2011-04-17T13:30:57Z</time>
</trkpt>
<trkpt lat="50.36108" lon="12.46818">
<ele>609</ele>
<time>2011-04-17T13:31:00Z</time>
</trkpt>
<trkpt lat="50.36114" lon="12.46817">
<ele>607</ele>
<time>2011-04-17T13:31:03Z</time>
</trkpt>
<trkpt lat="50.3612" lon="12.46819">
<ele>607</ele>
<time>2011-04-17T13:31:06Z</time>
</trkpt>
<trkpt lat="50.36125" lon="12.46819">
<ele>607</ele>
<time>2011-04-17T13:31:08Z</time>
</trkpt>
<trkpt lat="50.3613" lon="12.46819">
<ele>608</ele>
<time>2011-04-17T13:31:10Z</time>
</trkpt>
<trkpt lat="50.36135" lon="12.46818">
<ele>609</ele>
<time>2011-04-17T13:31:12Z</time>
</trkpt>
<trkpt lat="50.36142" lon="12.46816">
<ele>610</ele>
<time>2011-04-17T13:31:15Z</time>
</trkpt>
<trkpt lat="50.36148" lon="12.46814">
<ele>610</ele>
<time>2011-04-17T13:31:17Z</time>
</trkpt>
<trkpt lat="50.36154" lon="12.46812">
<ele>609</ele>
<time>2011-04-17T13:31:19Z</time>
</trkpt>
<trkpt lat="50.3616" lon="12.46812">
<ele>609</ele>
<time>2011-04-17T13:31:22Z</time>
</trkpt>
<trkpt lat="50.36166" lon="12.46812">
<ele>608</ele>
<time>2011-04-17T13:31:24Z</time>
</trkpt>
<trkpt lat="50.36171" lon="12.46813">
<ele>608</ele>
<time>2011-04-17T13:31:26Z</time>
</trkpt>
<trkpt lat="50.36177" lon="12.46812">
<ele>609</ele>
<time>2011-04-17T13:31:28Z</time>
</trkpt>
<trkpt lat="50.36182" lon="12.46811">
<ele>610</ele>
<time>2011-04-17T13:31:30Z</time>
</trkpt>
<trkpt lat="50.36188" lon="12.46812">
<ele>611</ele>
<time>2011-04-17T13:31:33Z</time>
</trkpt>
<trkpt lat="50.36193" lon="12.46809">
<ele>610</ele>
<time>2011-04-17T13:31:35Z</time>
</trkpt>
<trkpt lat="50.36199" lon="12.46807">
<ele>610</ele>
<time>2011-04-17T13:31:38Z</time>
</trkpt>
<trkpt lat="50.36204" lon="12.46802">
<ele>610</ele>
<time>2011-04-17T13:31:41Z</time>
</trkpt>
<trkpt lat="50.36204" lon="12.46793">
<ele>611</ele>
<time>2011-04-17T13:31:45Z</time>
</trkpt>
<trkpt lat="50.36207" lon="12.46798">
<ele>609</ele>
<time>2011-04-17T13:33:24Z</time>
</trkpt>
<trkpt lat="50.36211" lon="12.46804">
<ele>610</ele>
<time>2011-04-17T13:33:28Z</time>
</trkpt>
<trkpt lat="50.36216" lon="12.46803">
<ele>611</ele>
<time>2011-04-17T13:33:31Z</time>
</trkpt>
<trkpt lat="50.36223" lon="12.46804">
<ele>611</ele>
<time>2011-04-17T13:33:33Z</time>
</trkpt>
<trkpt lat="50.3623" lon="12.46808">
<ele>610</ele>
<time>2011-04-17T13:33:35Z</time>
</trkpt>
<trkpt lat="50.36237" lon="12.46811">
<ele>611</ele>
<time>2011-04-17T13:33:37Z</time>
</trkpt>
<trkpt lat="50.36246" lon="12.46806">
<ele>610</ele>
<time>2011-04-17T13:33:39Z</time>
</trkpt>
<trkpt lat="50.36251" lon="12.46804">
<ele>611</ele>
<time>2011-04-17T13:33:40Z</time>
</trkpt>
<trkpt lat="50.36259" lon="12.46803">
<ele>610</ele>
<time>2011-04-17T13:33:42Z</time>
</trkpt>
<trkpt lat="50.36265" lon="12.46803">
<ele>610</ele>
<time>2011-04-17T13:33:44Z</time>
</trkpt>
<trkpt lat="50.36272" lon="12.46804">
<ele>611</ele>
<time>2011-04-17T13:33:46Z</time>
</trkpt>
<trkpt lat="50.36279" lon="12.46804">
<ele>610</ele>
<time>2011-04-17T13:33:48Z</time>
</trkpt>
<trkpt lat="50.36288" lon="12.46803">
<ele>609</ele>
<time>2011-04-17T13:33:50Z</time>
</trkpt>
<trkpt lat="50.36296" lon="12.46802">
<ele>610</ele>
<time>2011-04-17T13:33:52Z</time>
</trkpt>
<trkpt lat="50.36303" lon="12.46802">
<ele>609</ele>
<time>2011-04-17T13:33:54Z</time>
</trkpt>
<trkpt lat="50.3631" lon="12.46803">
<ele>609</ele>
<time>2011-04-17T13:33:56Z</time>
</trkpt>
<trkpt lat="50.36316" lon="12.46802">
<ele>610</ele>
<time>2011-04-17T13:33:58Z</time>
</trkpt>
<trkpt lat="50.36323" lon="12.46801">
<ele>609</ele>
<time>2011-04-17T13:34:00Z</time>
</trkpt>
<trkpt lat="50.3633" lon="12.468">
<ele>610</ele>
<time>2011-04-17T13:34:02Z</time>
</trkpt>
<trkpt lat="50.36337" lon="12.46797">
<ele>609</ele>
<time>2011-04-17T13:34:04Z</time>
</trkpt>
<trkpt lat="50.36342" lon="12.46794">
<ele>608</ele>
<time>2011-04-17T13:34:06Z</time>
</trkpt>
<trkpt lat="50.3635" lon="12.46791">
<ele>608</ele>
<time>2011-04-17T13:34:08Z</time>
</trkpt>
<trkpt lat="50.36356" lon="12.46789">
<ele>608</ele>
<time>2011-04-17T13:34:10Z</time>
</trkpt>
<trkpt lat="50.36363" lon="12.46788">
<ele>608</ele>
<time>2011-04-17T13:34:12Z</time>
</trkpt>
<trkpt lat="50.3637" lon="12.46787">
<ele>608</ele>
<time>2011-04-17T13:34:14Z</time>
</trkpt>
<trkpt lat="50.36377" lon="12.46785">
<ele>607</ele>
<time>2011-04-17T13:34:16Z</time>
</trkpt>
<trkpt lat="50.36385" lon="12.46782">
<ele>606</ele>
<time>2011-04-17T13:34:18Z</time>
</trkpt>
<trkpt lat="50.36393" lon="12.4678">
<ele>604</ele>
<time>2011-04-17T13:34:20Z</time>
</trkpt>
<trkpt lat="50.364" lon="12.46779">
<ele>604</ele>
<time>2011-04-17T13:34:22Z</time>
</trkpt>
<trkpt lat="50.36408" lon="12.46778">
<ele>604</ele>
<time>2011-04-17T13:34:24Z</time>
</trkpt>
<trkpt lat="50.36416" lon="12.46775">
<ele>604</ele>
<time>2011-04-17T13:34:26Z</time>
</trkpt>
<trkpt lat="50.36423" lon="12.46773">
<ele>604</ele>
<time>2011-04-17T13:34:28Z</time>
</trkpt>
<trkpt lat="50.36431" lon="12.4677">
<ele>604</ele>
<time>2011-04-17T13:34:30Z</time>
</trkpt>
<trkpt lat="50.36438" lon="12.46766">
<ele>604</ele>
<time>2011-04-17T13:34:32Z</time>
</trkpt>
<trkpt lat="50.36443" lon="12.46764">
<ele>604</ele>
<time>2011-04-17T13:34:33Z</time>
</trkpt>
<trkpt lat="50.3645" lon="12.46762">
<ele>603</ele>
<time>2011-04-17T13:34:35Z</time>
</trkpt>
<trkpt lat="50.3646" lon="12.4676">
<ele>600</ele>
<time>2011-04-17T13:34:37Z</time>
</trkpt>
<trkpt lat="50.36468" lon="12.46758">
<ele>600</ele>
<time>2011-04-17T13:34:39Z</time>
</trkpt>
<trkpt lat="50.36475" lon="12.46758">
<ele>600</ele>
<time>2011-04-17T13:34:41Z</time>
</trkpt>
<trkpt lat="50.36481" lon="12.46761">
<ele>599</ele>
<time>2011-04-17T13:34:43Z</time>
</trkpt>
<trkpt lat="50.36487" lon="12.46767">
<ele>599</ele>
<time>2011-04-17T13:34:45Z</time>
</trkpt>
<trkpt lat="50.36492" lon="12.46773">
<ele>599</ele>
<time>2011-04-17T13:34:47Z</time>
</trkpt>
<trkpt lat="50.36496" lon="12.4678">
<ele>599</ele>
<time>2011-04-17T13:34:49Z</time>
</trkpt>
<trkpt lat="50.36498" lon="12.46792">
<ele>598</ele>
<time>2011-04-17T13:34:51Z</time>
</trkpt>
<trkpt lat="50.36502" lon="12.46794">
<ele>597</ele>
<time>2011-04-17T13:34:52Z</time>
</trkpt>
<trkpt lat="50.36507" lon="12.46796">
<ele>597</ele>
<time>2011-04-17T13:34:53Z</time>
</trkpt>
<trkpt lat="50.36515" lon="12.46793">
<ele>598</ele>
<time>2011-04-17T13:34:54Z</time>
</trkpt>
<trkpt lat="50.36519" lon="12.4679">
<ele>597</ele>
<time>2011-04-17T13:34:55Z</time>
</trkpt>
<trkpt lat="50.36528" lon="12.46789">
<ele>598</ele>
<time>2011-04-17T13:34:57Z</time>
</trkpt>
<trkpt lat="50.36534" lon="12.46787">
<ele>599</ele>
<time>2011-04-17T13:34:59Z</time>
</trkpt>
<trkpt lat="50.36541" lon="12.46786">
<ele>600</ele>
<time>2011-04-17T13:35:01Z</time>
</trkpt>
<trkpt lat="50.36549" lon="12.46787">
<ele>600</ele>
<time>2011-04-17T13:35:03Z</time>
</trkpt>
<trkpt lat="50.36556" lon="12.4679">
<ele>599</ele>
<time>2011-04-17T13:35:05Z</time>
</trkpt>
<trkpt lat="50.36564" lon="12.46791">
<ele>600</ele>
<time>2011-04-17T13:35:07Z</time>
</trkpt>
<trkpt lat="50.36572" lon="12.46791">
<ele>601</ele>
<time>2011-04-17T13:35:09Z</time>
</trkpt>
<trkpt lat="50.36579" lon="12.46792">
<ele>601</ele>
<time>2011-04-17T13:35:11Z</time>
</trkpt>
<trkpt lat="50.36586" lon="12.46793">
<ele>602</ele>
<time>2011-04-17T13:35:13Z</time>
</trkpt>
<trkpt lat="50.36594" lon="12.46794">
<ele>602</ele>
<time>2011-04-17T13:35:15Z</time>
</trkpt>
<trkpt lat="50.36601" lon="12.46794">
<ele>602</ele>
<time>2011-04-17T13:35:17Z</time>
</trkpt>
<trkpt lat="50.36609" lon="12.46794">
<ele>602</ele>
<time>2011-04-17T13:35:19Z</time>
</trkpt>
<trkpt lat="50.36618" lon="12.46793">
<ele>604</ele>
<time>2011-04-17T13:35:21Z</time>
</trkpt>
<trkpt lat="50.36626" lon="12.46793">
<ele>603</ele>
<time>2011-04-17T13:35:23Z</time>
</trkpt>
<trkpt lat="50.36635" lon="12.46792">
<ele>601</ele>
<time>2011-04-17T13:35:25Z</time>
</trkpt>
<trkpt lat="50.36644" lon="12.4679">
<ele>601</ele>
<time>2011-04-17T13:35:27Z</time>
</trkpt>
<trkpt lat="50.3665" lon="12.46791">
<ele>602</ele>
<time>2011-04-17T13:35:29Z</time>
</trkpt>
<trkpt lat="50.36658" lon="12.4679">
<ele>602</ele>
<time>2011-04-17T13:35:31Z</time>
</trkpt>
<trkpt lat="50.36665" lon="12.46789">
<ele>601</ele>
<time>2011-04-17T13:35:33Z</time>
</trkpt>
<trkpt lat="50.36673" lon="12.46787">
<ele>601</ele>
<time>2011-04-17T13:35:35Z</time>
</trkpt>
<trkpt lat="50.36681" lon="12.46786">
<ele>601</ele>
<time>2011-04-17T13:35:37Z</time>
</trkpt>
<trkpt lat="50.36688" lon="12.46786">
<ele>601</ele>
<time>2011-04-17T13:35:39Z</time>
</trkpt>
<trkpt lat="50.36696" lon="12.46786">
<ele>602</ele>
<time>2011-04-17T13:35:41Z</time>
</trkpt>
<trkpt lat="50.36702" lon="12.46786">
<ele>602</ele>
<time>2011-04-17T13:35:43Z</time>
</trkpt>
<trkpt lat="50.36709" lon="12.46786">
<ele>602</ele>
<time>2011-04-17T13:35:45Z</time>
</trkpt>
<trkpt lat="50.36715" lon="12.46789">
<ele>603</ele>
<time>2011-04-17T13:35:47Z</time>
</trkpt>
<trkpt lat="50.36721" lon="12.46789">
<ele>603</ele>
<time>2011-04-17T13:35:49Z</time>
</trkpt>
<trkpt lat="50.36729" lon="12.46791">
<ele>602</ele>
<time>2011-04-17T13:35:51Z</time>
</trkpt>
<trkpt lat="50.36736" lon="12.46793">
<ele>602</ele>
<time>2011-04-17T13:35:53Z</time>
</trkpt>
<trkpt lat="50.36742" lon="12.46796">
<ele>602</ele>
<time>2011-04-17T13:35:55Z</time>
</trkpt>
<trkpt lat="50.36749" lon="12.46796">
<ele>603</ele>
<time>2011-04-17T13:35:57Z</time>
</trkpt>
<trkpt lat="50.36756" lon="12.46798">
<ele>603</ele>
<time>2011-04-17T13:35:59Z</time>
</trkpt>
<trkpt lat="50.36762" lon="12.46801">
<ele>603</ele>
<time>2011-04-17T13:36:01Z</time>
</trkpt>
<trkpt lat="50.36768" lon="12.46803">
<ele>603</ele>
<time>2011-04-17T13:36:03Z</time>
</trkpt>
<trkpt lat="50.36774" lon="12.46804">
<ele>604</ele>
<time>2011-04-17T13:36:05Z</time>
</trkpt>
<trkpt lat="50.3678" lon="12.46805">
<ele>604</ele>
<time>2011-04-17T13:36:07Z</time>
</trkpt>
<trkpt lat="50.36786" lon="12.46807">
<ele>604</ele>
<time>2011-04-17T13:36:09Z</time>
</trkpt>
<trkpt lat="50.36792" lon="12.46808">
<ele>605</ele>
<time>2011-04-17T13:36:11Z</time>
</trkpt>
<trkpt lat="50.36797" lon="12.46808">
<ele>605</ele>
<time>2011-04-17T13:36:12Z</time>
</trkpt>
<trkpt lat="50.36805" lon="12.46808">
<ele>606</ele>
<time>2011-04-17T13:36:14Z</time>
</trkpt>
<trkpt lat="50.3681" lon="12.46812">
<ele>606</ele>
<time>2011-04-17T13:36:15Z</time>
</trkpt>
<trkpt lat="50.36818" lon="12.46818">
<ele>605</ele>
<time>2011-04-17T13:36:17Z</time>
</trkpt>
<trkpt lat="50.36825" lon="12.46823">
<ele>606</ele>
<time>2011-04-17T13:36:19Z</time>
</trkpt>
<trkpt lat="50.36831" lon="12.46824">
<ele>606</ele>
<time>2011-04-17T13:36:20Z</time>
</trkpt>
<trkpt lat="50.36839" lon="12.46827">
<ele>606</ele>
<time>2011-04-17T13:36:22Z</time>
</trkpt>
<trkpt lat="50.36844" lon="12.46828">
<ele>605</ele>
<time>2011-04-17T13:36:23Z</time>
</trkpt>
<trkpt lat="50.36852" lon="12.4683">
<ele>606</ele>
<time>2011-04-17T13:36:25Z</time>
</trkpt>
<trkpt lat="50.36859" lon="12.46831">
<ele>607</ele>
<time>2011-04-17T13:36:27Z</time>
</trkpt>
<trkpt lat="50.36865" lon="12.46832">
<ele>606</ele>
<time>2011-04-17T13:36:29Z</time>
</trkpt>
<trkpt lat="50.36869" lon="12.46837">
<ele>606</ele>
<time>2011-04-17T13:36:31Z</time>
</trkpt>
<trkpt lat="50.36874" lon="12.46843">
<ele>606</ele>
<time>2011-04-17T13:36:33Z</time>
</trkpt>
<trkpt lat="50.36879" lon="12.46847">
<ele>606</ele>
<time>2011-04-17T13:36:36Z</time>
</trkpt>
<trkpt lat="50.36883" lon="12.46853">
<ele>607</ele>
<time>2011-04-17T13:36:39Z</time>
</trkpt>
<trkpt lat="50.36885" lon="12.4686">
<ele>608</ele>
<time>2011-04-17T13:36:41Z</time>
</trkpt>
<trkpt lat="50.36885" lon="12.46869">
<ele>609</ele>
<time>2011-04-17T13:36:45Z</time>
</trkpt>
<trkpt lat="50.36884" lon="12.46877">
<ele>608</ele>
<time>2011-04-17T13:36:48Z</time>
</trkpt>
<trkpt lat="50.36884" lon="12.46884">
<ele>609</ele>
<time>2011-04-17T13:36:51Z</time>
</trkpt>
<trkpt lat="50.3688" lon="12.46885">
<ele>608</ele>
<time>2011-04-17T13:37:25Z</time>
</trkpt>
<trkpt lat="50.36882" lon="12.46901">
<ele>608</ele>
<time>2011-04-17T13:37:28Z</time>
</trkpt>
<trkpt lat="50.36882" lon="12.46908">
<ele>610</ele>
<time>2011-04-17T13:37:31Z</time>
</trkpt>
<trkpt lat="50.36879" lon="12.46918">
<ele>611</ele>
<time>2011-04-17T13:37:34Z</time>
</trkpt>
<trkpt lat="50.36875" lon="12.46922">
<ele>611</ele>
<time>2011-04-17T13:37:35Z</time>
</trkpt>
<trkpt lat="50.36874" lon="12.4693">
<ele>610</ele>
<time>2011-04-17T13:37:37Z</time>
</trkpt>
<trkpt lat="50.36876" lon="12.46938">
<ele>607</ele>
<time>2011-04-17T13:37:39Z</time>
</trkpt>
<trkpt lat="50.36876" lon="12.46946">
<ele>605</ele>
<time>2011-04-17T13:37:42Z</time>
</trkpt>
<trkpt lat="50.36877" lon="12.46954">
<ele>606</ele>
<time>2011-04-17T13:37:49Z</time>
</trkpt>
<trkpt lat="50.36877" lon="12.46963">
<ele>605</ele>
<time>2011-04-17T13:37:56Z</time>
</trkpt>
<trkpt lat="50.36876" lon="12.4697">
<ele>604</ele>
<time>2011-04-17T13:38:02Z</time>
</trkpt>
<trkpt lat="50.36876" lon="12.4697">
<ele>604</ele>
<time>2011-04-17T13:38:02Z</time>
</trkpt>
<trkpt lat="50.36876" lon="12.4697">
<ele>605</ele>
<time>2011-04-17T13:38:03Z</time>
</trkpt>
<trkpt lat="50.3688" lon="12.46973">
<ele>607</ele>
<time>2011-04-17T13:38:10Z</time>
</trkpt>
<trkpt lat="50.36883" lon="12.46979">
<ele>609</ele>
<time>2011-04-17T13:38:17Z</time>
</trkpt>
<trkpt lat="50.36889" lon="12.4698">
<ele>610</ele>
<time>2011-04-17T13:38:24Z</time>
</trkpt>
<trkpt lat="50.36893" lon="12.46984">
<ele>611</ele>
<time>2011-04-17T13:38:29Z</time>
</trkpt>
<trkpt lat="50.36899" lon="12.46988">
<ele>612</ele>
<time>2011-04-17T13:38:32Z</time>
</trkpt>
<trkpt lat="50.36903" lon="12.46993">
<ele>613</ele>
<time>2011-04-17T13:38:37Z</time>
</trkpt>
<trkpt lat="50.36906" lon="12.46999">
<ele>611</ele>
<time>2011-04-17T13:38:42Z</time>
</trkpt>
<trkpt lat="50.3691" lon="12.47003">
<ele>608</ele>
<time>2011-04-17T13:38:49Z</time>
</trkpt>
<trkpt lat="50.36914" lon="12.47007">
<ele>611</ele>
<time>2011-04-17T13:39:08Z</time>
</trkpt>
<trkpt lat="50.36914" lon="12.47007">
<ele>611</ele>
<time>2011-04-17T13:39:08Z</time>
</trkpt>
<trkpt lat="50.36914" lon="12.47007">
<ele>612</ele>
<time>2011-04-17T13:39:10Z</time>
</trkpt>
<trkpt lat="50.36917" lon="12.47013">
<ele>614</ele>
<time>2011-04-17T13:39:18Z</time>
</trkpt>
<trkpt lat="50.36912" lon="12.4701">
<ele>614</ele>
<time>2011-04-17T13:39:35Z</time>
</trkpt>
<trkpt lat="50.36916" lon="12.47006">
<ele>616</ele>
<time>2011-04-17T13:39:42Z</time>
</trkpt>
<trkpt lat="50.36918" lon="12.46998">
<ele>618</ele>
<time>2011-04-17T13:39:47Z</time>
</trkpt>
<trkpt lat="50.36916" lon="12.47006">
<ele>625</ele>
<time>2011-04-17T13:41:43Z</time>
</trkpt>
<trkpt lat="50.36917" lon="12.47013">
<ele>624</ele>
<time>2011-04-17T13:41:49Z</time>
</trkpt>
<trkpt lat="50.36913" lon="12.47009">
<ele>618</ele>
<time>2011-04-17T13:42:01Z</time>
</trkpt>
<trkpt lat="50.36912" lon="12.46985">
<ele>621</ele>
<time>2011-04-17T13:42:33Z</time>
</trkpt>
<trkpt lat="50.36914" lon="12.46975">
<ele>620</ele>
<time>2011-04-17T13:42:36Z</time>
</trkpt>
<trkpt lat="50.36917" lon="12.46983">
<ele>620</ele>
<time>2011-04-17T13:42:40Z</time>
</trkpt>
<trkpt lat="50.36916" lon="12.46993">
<ele>620</ele>
<time>2011-04-17T13:42:41Z</time>
</trkpt>
<trkpt lat="50.36911" lon="12.46998">
<ele>620</ele>
<time>2011-04-17T13:42:42Z</time>
</trkpt>
<trkpt lat="50.36915" lon="12.47004">
<ele>620</ele>
<time>2011-04-17T13:42:47Z</time>
</trkpt>
<trkpt lat="50.36919" lon="12.47009">
<ele>620</ele>
<time>2011-04-17T13:42:50Z</time>
</trkpt>
<trkpt lat="50.36931" lon="12.47015">
<ele>620</ele>
<time>2011-04-17T13:42:54Z</time>
</trkpt>
<trkpt lat="50.36925" lon="12.47015">
<ele>619</ele>
<time>2011-04-17T13:42:56Z</time>
</trkpt>
<trkpt lat="50.36928" lon="12.4701">
<ele>621</ele>
<time>2011-04-17T13:42:59Z</time>
</trkpt>
<trkpt lat="50.36927" lon="12.47017">
<ele>621</ele>
<time>2011-04-17T13:43:06Z</time>
</trkpt>
</trkseg>
</trk>
</gpx>
